[[{"header":{"parameterUnit":"m.s-1","parameterCategory":1,"la1":31.0,"la2":29.5877,"lo1":-88.7671,"lo2":-86.6584,"dy":0.0162,"dx":0.0185,"nx":115,"ny":88,"refTime":"2023-04-26T12:00:00:Z","depth":0,"parameterNumber":2,"parameterNumberName":"U-component_of_WINDS"},"data":[0.0,0.0,0.0,0.0,0.0,0.0,0.0,0.0,0.0,0.0,0.0,0.0,0.0,0.0,0.0,0.0,0.0,0.0,0.0,0.0,0.0,0.0,0.0,0.0,0.0,0.0,0.0,0.0,0.0,0.0,0.0,0.0,0.0,0.0,0.0,0.0,0.0,0.0,0.0,0.0,0.0,0.0,0.0,0.0,0.0,0.0,0.0,0.0,0.0,0.0,0.0,0.0,0.0,0.0,0.0,0.0,0.0,0.0,0.0,0.0,0.0,0.0,0.0,0.0,0.0,0.0,0.0,0.0,0.0,0.0,0.0,0.0,0.0,0.0,0.0,0.0,0.0,0.0,0.0,0.0,0.0,0.0,0.0,0.0,0.0,0.0,0.0,0.0,0.0,0.0,0.0,0.0,0.0,0.0,0.0,0.0,0.0,0.0,0.0,0.0,0.0,0.0,0.0,0.0,0.0,0.0,0.0,0.0,0.0,0.0,0.0,0.0,0.0,0.0,0.0,0.0,0.0,0.0,0.0,0.0,0.0,0.0,0.0,0.0,0.0,0.0,0.0,0.0,0.0,0.0,0.0,0.0,0.0,0.0,0.0,0.0,0.0,0.0,0.0,0.0,0.0,0.0,0.0,0.0,0.0,0.0,0.0,0.0,0.0,0.0,0.0,0.0,0.0,0.0,0.0,0.0,0.0,0.0,0.0,0.0,0.0,0.0,0.0,0.0,0.0,0.0,0.0,0.0,0.0,0.0,0.0,0.0,0.0,0.0,0.0,0.0,0.0,0.0,0.0,0.0,0.0,0.0,0.0,0.0,0.0,0.0,0.0,0.0,0.0,0.0,0.0,0.0,0.0,0.0,0.0,0.0,0.0,0.0,0.0,0.0,0.0,0.0,0.0,0.0,0.0,0.0,0.0,0.0,0.0,0.0,0.0,0.0,0.0,0.0,0.0,0.0,0.0,0.0,0.0,0.0,0.0,0.0,0.0,0.0,0.0,0.0,0.0,0.0,0.0,0.0,0.0,0.0,0.0,0.0,0.0,0.0,0.0,0.0,0.0,0.0,0.0,0.0,0.0,0.0,0.0,0.0,0.0,0.0,0.0,0.0,0.0,0.0,0.0,0.0,0.0,0.0,0.0,0.0,0.0,0.0,0.0,0.0,0.0,0.0,0.0,0.0,0.0,0.0,0.0,0.0,0.0,0.0,0.0,0.0,0.0,0.0,0.0,0.0,0.0,0.0,0.0,0.0,0.0,0.0,0.0,0.0,0.0,0.0,0.0,0.0,0.0,0.0,0.0,0.0,0.0,0.0,0.0,0.0,0.0,0.0,0.0,0.0,0.0,0.0,0.0,0.0,0.0,0.0,0.0,0.0,0.0,0.0,0.0,0.0,0.0,0.0,0.0,0.0,0.0,0.0,0.0,0.0,0.0,0.0,0.0,0.0,0.0,0.0,0.0,0.0,0.0,0.0,0.0,0.0,0.0,0.0,0.0,0.0,0.0,0.0,0.0,0.0,0.0,0.0,0.0,0.0,0.0,0.0,0.0,0.0,0.0,0.0,0.0,0.0,0.0,0.0,0.0,0.0,0.0,0.0,0.0,0.0,0.0,0.0,0.0,0.0,0.0,0.0,0.0,0.0,0.0,0.0,0.0,0.0,0.0,0.0,0.0,0.0,0.0,0.0,0.0,0.0,0.0,0.0,0.0,0.0,0.0,0.0,0.0,0.0,0.0,0.0,0.0,0.0,0.0,0.0,0.0,0.0,0.0,0.0,0.0,0.0,0.0,0.0,0.0,0.0,0.0,0.0,0.0,0.0,0.0,0.0,0.0,0.0,0.0,0.0,0.0,0.0,0.0,0.0,0.0,0.0,0.0,0.0,0.0,0.0,0.0,0.0,0.0,0.0,0.0,0.0,0.0,0.0,0.0,0.0,0.0,0.0,0.0,0.0,0.0,0.0,0.0,0.0,0.0,0.0,0.0,0.0,0.0,0.0,0.0,0.0,0.0,0.0,0.0,0.0,0.0,0.0,0.0,0.0,0.0,0.0,0.0,0.0,0.0,0.0,0.0,0.0,0.0,0.0,0.0,0.0,0.0,0.0,0.0,0.0,0.0,0.0,0.0,0.0,0.0,0.0,0.0,0.0,0.0,0.0,0.0,0.0,0.0,0.0,0.0,0.0,0.0,0.0,0.0,0.0,0.0,0.0,0.0,0.0,0.0,0.0,0.0,0.0,0.0,0.0,0.0,0.0,0.0,0.0,0.0,0.0,0.0,0.0,0.0,0.0,0.0,0.0,0.0,0.0,0.0,0.0,0.0,0.0,0.0,0.0,0.0,0.0,0.0,0.0,0.0,0.0,0.0,0.0,0.0,0.0,0.0,0.0,0.0,0.0,0.0,0.0,0.0,0.0,0.0,0.0,0.0,0.0,0.0,0.0,0.0,0.0,0.0,0.0,0.0,0.0,0.0,0.0,0.0,0.0,0.0,0.0,0.0,0.0,0.0,0.0,0.0,0.0,0.0,0.0,0.0,0.0,0.0,0.0,0.0,0.0,0.0,0.0,0.0,0.0,0.0,0.0,0.0,0.0,0.0,0.0,0.0,0.0,0.0,0.0,0.0,0.0,0.0,0.0,0.0,0.0,0.0,0.0,0.0,0.0,0.0,0.0,0.0,0.0,0.0,0.0,0.0,0.0,0.0,0.0,0.0,0.0,0.0,0.0,0.0,0.0,0.0,0.0,0.0,0.0,0.0,0.0,0.0,0.0,0.0,0.0,0.0,0.0,0.0,0.0,0.0,0.0,0.0,0.0,0.0,0.0,0.0,0.0,0.0,0.0,0.0,0.0,0.0,0.0,0.0,0.0,0.0,0.0,0.0,0.0,0.0,0.0,0.0,0.0,0.0,0.0,0.0,0.0,0.0,0.0,0.0,0.0,0.0,0.0,0.0,0.0,0.0,0.0,0.0,0.0,0.0,0.0,0.0,0.0,0.0,0.0,0.0,0.0,0.0,0.0,0.0,0.0,0.0,0.0,0.0,0.0,0.0,0.0,0.0,0.0,0.0,0.0,0.0,0.0,0.0,0.0,0.0,0.0,0.0,0.0,0.0,0.0,0.0,0.0,0.0,0.0,0.0,0.0,0.0,0.0,0.0,0.0,0.0,0.0,0.0,0.0,0.0,0.0,0.0,0.0,0.0,0.0,0.0,0.0,0.0,0.0,0.0,0.0,0.0,0.0,0.0,0.0,0.0,0.0,0.0,0.0,0.0,0.0,0.0,0.0,0.0,0.0,0.0,0.0,0.0,0.0,0.0,0.0,0.0,0.0,0.0,0.0,0.0,0.0,0.0,0.0,0.0,0.0,0.0,0.0,0.0,0.0,0.0,0.0,0.0,0.0,0.0,0.0,0.0,0.0,0.0,0.0,0.0,0.0,0.0,0.0,0.0,0.0,0.0,0.0,0.0,0.0,0.0,0.0,0.0,0.0,0.0,0.0,0.0,0.0,0.0,0.0,0.0,0.0,0.0,0.0,0.0,0.0,0.0,0.0,0.0,0.0,0.0,0.0,0.0,0.0,0.0,0.0,0.0,0.0,0.0,0.0,0.0,0.0,0.0,0.0,0.0,0.0,0.0,0.0,0.0,0.0,0.0,0.0,0.0,0.0,0.0,0.0,0.0,0.0,0.0,0.0,0.0,0.0,0.0,0.0,0.0,0.0,0.0,0.0,0.0,0.0,0.0,0.0,0.0,0.0,0.0,0.0,0.0,0.0,0.0,0.0,0.0,0.0,0.0,0.0,0.0,0.0,0.0,0.0,0.0,0.0,0.0,0.0,0.0,0.0,0.0,0.0,0.0,0.0,0.0,0.0,0.0,0.0,0.0,0.0,0.0,0.0,0.0,0.0,0.0,0.0,0.0,0.0,0.0,0.0,0.0,0.0,0.0,0.0,0.0,0.0,0.0,0.0,0.0,0.0,0.0,0.0,0.0,0.0,0.0,0.0,0.0,0.0,0.0,0.0,0.0,0.0,0.0,0.0,0.0,0.0,0.0,0.0,0.0,0.0,0.0,0.0,0.0,0.0,0.0,0.0,0.0,0.0,0.0,0.0,0.0,0.0,0.0,0.0,0.0,0.0,0.0,0.0,0.0,0.0,0.0,0.0,0.0,0.0,0.0,0.0,0.0,0.0,0.0,0.0,0.0,0.0,0.0,0.0,0.0,0.0,0.0,0.0,0.0,0.0,0.0,0.0,0.0,0.0,0.0,0.0,0.0,0.0,0.0,0.0,-3.2122,0.0,0.0,0.0,0.0,0.0,0.0,0.0,0.0,0.0,0.0,0.0,0.0,0.0,0.0,0.0,0.0,0.0,0.0,0.0,0.0,0.0,0.0,0.0,0.0,0.0,0.0,0.0,0.0,0.0,0.0,0.0,0.0,0.0,0.0,0.0,0.0,0.0,0.0,0.0,0.0,0.0,0.0,0.0,0.0,0.0,0.0,0.0,0.0,0.0,0.0,0.0,0.0,0.0,0.0,0.0,0.0,0.0,0.0,0.0,0.0,0.0,0.0,0.0,0.0,0.0,0.0,0.0,0.0,0.0,0.0,0.0,0.0,0.0,0.0,0.0,0.0,0.0,0.0,0.0,0.0,0.0,0.0,0.0,0.0,0.0,0.0,0.0,0.0,0.0,0.0,0.0,0.0,0.0,0.0,0.0,0.0,0.0,0.0,0.0,0.0,0.0,0.0,0.0,0.0,0.0,0.0,0.0,0.0,0.0,0.0,-3.4834,-3.5279,-3.453,-3.3706,-3.2826,0.0,0.0,0.0,0.0,0.0,0.0,0.0,0.0,0.0,0.0,0.0,0.0,0.0,0.0,0.0,0.0,0.0,0.0,0.0,0.0,0.0,0.0,0.0,0.0,0.0,0.0,0.0,0.0,0.0,0.0,0.0,0.0,0.0,0.0,0.0,0.0,0.0,0.0,0.0,0.0,0.0,0.0,0.0,0.0,0.0,0.0,0.0,0.0,0.0,0.0,0.0,0.0,0.0,0.0,0.0,0.0,0.0,0.0,0.0,0.0,0.0,0.0,0.0,0.0,0.0,0.0,0.0,0.0,0.0,0.0,0.0,0.0,0.0,0.0,0.0,0.0,0.0,0.0,0.0,0.0,0.0,0.0,0.0,0.0,0.0,0.0,0.0,0.0,0.0,0.0,0.0,0.0,0.0,0.0,0.0,0.0,0.0,0.0,0.0,0.0,0.0,0.0,0.0,0.0,0.0,0.0,0.0,0.0,0.0,0.0,0.0,0.0,-3.5572,-3.4667,-3.3353,0.0,0.0,0.0,0.0,0.0,0.0,0.0,0.0,0.0,0.0,0.0,0.0,0.0,0.0,0.0,0.0,0.0,0.0,0.0,0.0,0.0,0.0,0.0,0.0,0.0,0.0,0.0,0.0,0.0,0.0,0.0,0.0,0.0,0.0,0.0,0.0,0.0,0.0,0.0,0.0,0.0,0.0,0.0,0.0,0.0,0.0,0.0,0.0,0.0,0.0,0.0,0.0,0.0,0.0,0.0,0.0,0.0,0.0,0.0,0.0,0.0,0.0,0.0,0.0,0.0,0.0,0.0,0.0,0.0,0.0,0.0,0.0,0.0,0.0,0.0,0.0,0.0,0.0,0.0,0.0,0.0,0.0,0.0,0.0,0.0,0.0,0.0,0.0,0.0,0.0,0.0,0.0,0.0,0.0,0.0,0.0,0.0,0.0,0.0,0.0,0.0,0.0,0.0,0.0,0.0,0.0,0.0,0.0,0.0,0.0,-3.7737,-3.7023,-3.6966,0.0,-3.3393,0.0,0.0,0.0,0.0,0.0,0.0,0.0,0.0,0.0,0.0,0.0,0.0,0.0,0.0,0.0,0.0,0.0,0.0,0.0,0.0,0.0,0.0,0.0,0.0,0.0,0.0,0.0,0.0,0.0,0.0,0.0,0.0,0.0,0.0,0.0,0.0,0.0,0.0,0.0,0.0,0.0,0.0,0.0,0.0,0.0,0.0,0.0,0.0,0.0,0.0,0.0,0.0,0.0,0.0,0.0,0.0,0.0,0.0,0.0,0.0,0.0,0.0,0.0,0.0,0.0,0.0,0.0,0.0,0.0,0.0,0.0,0.0,0.0,0.0,0.0,0.0,0.0,0.0,0.0,0.0,0.0,0.0,0.0,0.0,0.0,0.0,0.0,0.0,0.0,0.0,0.0,0.0,0.0,0.0,0.0,0.0,0.0,0.0,0.0,0.0,0.0,0.0,0.0,0.0,0.0,0.0,0.0,0.0,0.0,0.0,-3.8156,-3.7879,-3.6896,-3.5364,0.0,0.0,0.0,0.0,0.0,0.0,0.0,0.0,0.0,0.0,0.0,0.0,0.0,0.0,0.0,0.0,0.0,0.0,0.0,0.0,0.0,0.0,0.0,0.0,0.0,0.0,0.0,0.0,0.0,0.0,0.0,0.0,0.0,0.0,0.0,0.0,0.0,0.0,0.0,0.0,0.0,0.0,0.0,0.0,0.0,0.0,0.0,0.0,0.0,0.0,0.0,0.0,0.0,0.0,0.0,0.0,0.0,0.0,0.0,0.0,0.0,0.0,0.0,0.0,0.0,0.0,0.0,0.0,0.0,0.0,0.0,0.0,0.0,0.0,0.0,0.0,0.0,0.0,0.0,0.0,0.0,0.0,0.0,0.0,0.0,0.0,0.0,0.0,0.0,0.0,0.0,0.0,0.0,0.0,0.0,0.0,0.0,0.0,0.0,0.0,0.0,0.0,0.0,0.0,0.0,0.0,0.0,0.0,0.0,0.0,-3.8791,-3.8806,-3.8373,-3.6913,-3.5169,-3.3151,0.0,0.0,0.0,0.0,0.0,0.0,0.0,0.0,0.0,0.0,0.0,0.0,0.0,0.0,0.0,0.0,0.0,0.0,0.0,0.0,0.0,0.0,0.0,0.0,0.0,0.0,0.0,0.0,0.0,0.0,0.0,0.0,0.0,0.0,0.0,0.0,0.0,0.0,0.0,0.0,0.0,0.0,0.0,0.0,0.0,0.0,0.0,0.0,0.0,0.0,0.0,0.0,0.0,0.0,0.0,0.0,0.0,0.0,0.0,0.0,0.0,0.0,0.0,0.0,0.0,0.0,0.0,0.0,0.0,0.0,0.0,0.0,0.0,0.0,0.0,0.0,0.0,0.0,0.0,0.0,0.0,0.0,0.0,0.0,0.0,0.0,0.0,0.0,0.0,0.0,0.0,0.0,0.0,0.0,0.0,0.0,0.0,0.0,0.0,0.0,0.0,0.0,0.0,0.0,0.0,0.0,0.0,0.0,-3.9232,-4.0191,-3.9948,-3.8456,-3.7468,-3.5747,0.0,0.0,0.0,0.0,0.0,0.0,0.0,0.0,0.0,0.0,0.0,0.0,0.0,0.0,0.0,0.0,0.0,0.0,0.0,0.0,0.0,0.0,0.0,0.0,0.0,0.0,0.0,0.0,0.0,0.0,0.0,0.0,0.0,0.0,0.0,0.0,0.0,0.0,0.0,0.0,0.0,0.0,0.0,0.0,0.0,0.0,0.0,0.0,0.0,0.0,0.0,0.0,0.0,0.0,0.0,0.0,0.0,0.0,0.0,0.0,0.0,0.0,0.0,0.0,0.0,0.0,0.0,0.0,0.0,0.0,0.0,0.0,0.0,0.0,0.0,0.0,0.0,0.0,0.0,0.0,0.0,0.0,0.0,0.0,0.0,0.0,0.0,0.0,0.0,0.0,0.0,0.0,0.0,0.0,0.0,0.0,0.0,0.0,0.0,0.0,0.0,0.0,0.0,0.0,0.0,0.0,0.0,0.0,0.0,-3.9946,-4.0494,-3.9973,-3.8409,-3.7956,-3.6289,0.0,0.0,0.0,0.0,0.0,0.0,0.0,0.0,0.0,0.0,0.0,0.0,0.0,0.0,0.0,0.0,0.0,0.0,0.0,0.0,0.0,0.0,0.0,0.0,0.0,0.0,0.0,0.0,0.0,0.0,0.0,0.0,0.0,0.0,0.0,0.0,0.0,0.0,0.0,0.0,0.0,0.0,0.0,0.0,0.0,0.0,0.0,0.0,0.0,0.0,0.0,0.0,0.0,0.0,0.0,0.0,0.0,0.0,0.0,0.0,0.0,0.0,0.0,0.0,0.0,0.0,0.0,0.0,0.0,0.0,0.0,0.0,0.0,0.0,0.0,0.0,0.0,0.0,0.0,0.0,0.0,0.0,0.0,0.0,0.0,0.0,0.0,0.0,0.0,0.0,0.0,0.0,0.0,0.0,0.0,0.0,0.0,0.0,0.0,0.0,0.0,0.0,0.0,0.0,0.0,0.0,0.0,0.0,0.0,-4.0404,0.0,-4.006,-3.875,-3.8352,-3.6786,0.0,0.0,0.0,0.0,0.0,0.0,0.0,0.0,0.0,0.0,0.0,0.0,0.0,0.0,0.0,0.0,0.0,0.0,0.0,0.0,0.0,0.0,0.0,0.0,0.0,0.0,0.0,0.0,0.0,0.0,0.0,0.0,0.0,0.0,0.0,0.0,0.0,0.0,0.0,0.0,0.0,0.0,0.0,0.0,0.0,0.0,0.0,0.0,0.0,0.0,0.0,0.0,0.0,0.0,0.0,0.0,0.0,0.0,0.0,0.0,0.0,0.0,0.0,0.0,0.0,0.0,0.0,0.0,0.0,0.0,0.0,0.0,0.0,0.0,0.0,0.0,0.0,0.0,0.0,0.0,0.0,0.0,0.0,0.0,0.0,0.0,0.0,0.0,0.0,0.0,0.0,0.0,0.0,0.0,0.0,0.0,0.0,0.0,0.0,0.0,0.0,0.0,0.0,0.0,0.0,0.0,0.0,0.0,-3.9409,-4.0554,-4.0694,-4.0352,-3.9516,-3.8588,-3.7237,0.0,0.0,0.0,0.0,0.0,0.0,0.0,0.0,0.0,0.0,0.0,0.0,0.0,0.0,0.0,0.0,0.0,0.0,0.0,0.0,0.0,0.0,0.0,0.0,0.0,0.0,0.0,0.0,0.0,0.0,0.0,0.0,0.0,0.0,0.0,0.0,0.0,0.0,0.0,0.0,0.0,0.0,0.0,0.0,0.0,0.0,0.0,0.0,0.0,0.0,0.0,0.0,0.0,0.0,0.0,0.0,0.0,0.0,0.0,0.0,0.0,0.0,0.0,0.0,0.0,0.0,0.0,0.0,0.0,0.0,0.0,0.0,0.0,0.0,0.0,0.0,0.0,0.0,0.0,0.0,0.0,0.0,0.0,0.0,0.0,0.0,0.0,0.0,0.0,0.0,0.0,0.0,0.0,0.0,0.0,0.0,0.0,0.0,0.0,0.0,0.0,0.0,0.0,0.0,0.0,0.0,0.0,0.0,0.0,-4.1397,-4.1435,-4.1075,-4.0255,-3.8784,-3.7125,0.0,0.0,0.0,0.0,0.0,0.0,0.0,0.0,0.0,0.0,0.0,0.0,0.0,0.0,0.0,0.0,0.0,0.0,0.0,0.0,0.0,0.0,0.0,0.0,0.0,0.0,0.0,0.0,0.0,0.0,0.0,0.0,0.0,0.0,0.0,0.0,0.0,0.0,0.0,0.0,0.0,0.0,0.0,0.0,0.0,0.0,0.0,0.0,0.0,0.0,0.0,0.0,0.0,0.0,0.0,0.0,0.0,0.0,0.0,0.0,0.0,0.0,0.0,0.0,0.0,0.0,0.0,0.0,0.0,0.0,0.0,0.0,0.0,0.0,0.0,0.0,0.0,0.0,0.0,0.0,0.0,0.0,0.0,0.0,0.0,0.0,0.0,0.0,0.0,0.0,0.0,0.0,0.0,0.0,0.0,0.0,0.0,0.0,0.0,0.0,0.0,0.0,0.0,0.0,0.0,0.0,0.0,0.0,0.0,-4.2507,-4.2356,-4.1838,-4.1012,-3.9525,-3.7904,-3.6065,0.0,0.0,0.0,0.0,0.0,0.0,0.0,0.0,0.0,0.0,0.0,0.0,0.0,0.0,0.0,0.0,0.0,0.0,0.0,0.0,0.0,0.0,0.0,0.0,0.0,0.0,0.0,0.0,0.0,0.0,0.0,0.0,0.0,0.0,0.0,0.0,0.0,0.0,0.0,0.0,0.0,0.0,0.0,0.0,0.0,0.0,0.0,0.0,0.0,0.0,0.0,0.0,0.0,0.0,0.0,0.0,0.0,0.0,0.0,0.0,0.0,0.0,0.0,0.0,0.0,0.0,0.0,0.0,0.0,0.0,0.0,0.0,0.0,0.0,0.0,0.0,0.0,0.0,0.0,0.0,0.0,0.0,0.0,0.0,0.0,0.0,0.0,0.0,0.0,0.0,0.0,0.0,0.0,0.0,0.0,0.0,0.0,0.0,0.0,0.0,0.0,0.0,0.0,0.0,0.0,0.0,0.0,0.0,-4.39,-4.3398,-4.2676,-4.1759,-4.0701,-3.9338,0.0,0.0,0.0,0.0,0.0,0.0,0.0,0.0,0.0,0.0,0.0,0.0,0.0,0.0,0.0,0.0,0.0,0.0,0.0,0.0,0.0,0.0,0.0,0.0,0.0,0.0,0.0,0.0,0.0,0.0,0.0,0.0,0.0,0.0,0.0,0.0,0.0,0.0,0.0,0.0,0.0,0.0,0.0,0.0,0.0,0.0,0.0,0.0,0.0,0.0,0.0,0.0,0.0,0.0,0.0,0.0,0.0,0.0,0.0,0.0,0.0,0.0,0.0,0.0,0.0,0.0,0.0,0.0,0.0,0.0,0.0,0.0,0.0,0.0,0.0,0.0,0.0,0.0,0.0,0.0,0.0,0.0,0.0,0.0,0.0,0.0,0.0,0.0,0.0,0.0,0.0,0.0,0.0,0.0,0.0,0.0,0.0,0.0,0.0,0.0,0.0,0.0,0.0,0.0,0.0,0.0,0.0,0.0,0.0,-4.5231,-4.4721,-4.4051,-4.3269,-4.1155,-3.9412,0.0,0.0,0.0,0.0,0.0,0.0,0.0,0.0,0.0,0.0,0.0,0.0,0.0,0.0,0.0,0.0,0.0,0.0,0.0,0.0,0.0,0.0,0.0,0.0,0.0,0.0,0.0,0.0,0.0,0.0,0.0,0.0,0.0,0.0,0.0,0.0,0.0,0.0,0.0,0.0,0.0,0.0,0.0,0.0,0.0,0.0,0.0,0.0,0.0,0.0,0.0,0.0,0.0,0.0,0.0,0.0,0.0,0.0,0.0,0.0,0.0,0.0,0.0,0.0,0.0,0.0,0.0,0.0,0.0,0.0,0.0,0.0,0.0,0.0,0.0,0.0,0.0,0.0,0.0,0.0,0.0,0.0,0.0,0.0,0.0,0.0,0.0,0.0,0.0,0.0,0.0,0.0,0.0,0.0,0.0,0.0,0.0,0.0,0.0,0.0,0.0,0.0,0.0,0.0,0.0,0.0,0.0,0.0,-4.3058,-4.5651,-4.5022,-4.4624,-4.4569,-4.2148,-4.0026,0.0,0.0,0.0,0.0,0.0,0.0,0.0,0.0,0.0,0.0,0.0,0.0,0.0,0.0,0.0,0.0,0.0,0.0,0.0,0.0,0.0,0.0,0.0,0.0,0.0,0.0,0.0,0.0,0.0,0.0,0.0,0.0,0.0,0.0,0.0,0.0,0.0,0.0,0.0,0.0,0.0,0.0,0.0,0.0,0.0,0.0,0.0,0.0,0.0,0.0,0.0,0.0,0.0,0.0,0.0,0.0,0.0,0.0,0.0,0.0,0.0,0.0,0.0,0.0,0.0,0.0,0.0,0.0,0.0,0.0,0.0,0.0,0.0,0.0,0.0,0.0,0.0,0.0,0.0,0.0,0.0,0.0,0.0,0.0,0.0,0.0,0.0,0.0,0.0,0.0,0.0,0.0,0.0,0.0,0.0,0.0,0.0,0.0,0.0,0.0,0.0,0.0,0.0,0.0,0.0,0.0,0.0,0.0,-4.273,-4.5475,-4.4707,-4.467,-4.5435,-4.3277,-4.0815,0.0,0.0,0.0,0.0,0.0,0.0,0.0,0.0,0.0,0.0,0.0,0.0,0.0,0.0,0.0,0.0,0.0,0.0,0.0,0.0,0.0,0.0,0.0,0.0,0.0,0.0,0.0,0.0,0.0,0.0,0.0,0.0,0.0,0.0,0.0,0.0,0.0,0.0,0.0,0.0,0.0,0.0,0.0,0.0,0.0,0.0,0.0,0.0,0.0,0.0,0.0,0.0,0.0,0.0,0.0,0.0,0.0,0.0,0.0,0.0,0.0,0.0,0.0,0.0,0.0,0.0,0.0,0.0,0.0,0.0,0.0,0.0,0.0,0.0,0.0,0.0,0.0,0.0,0.0,0.0,0.0,0.0,0.0,0.0,0.0,0.0,0.0,0.0,0.0,0.0,0.0,0.0,0.0,0.0,0.0,0.0,0.0,0.0,0.0,0.0,0.0,0.0,0.0,0.0,0.0,0.0,0.0,0.0,-4.2588,-4.5743,-4.4652,-4.4596,-4.5835,-4.323,-4.0826,0.0,0.0,0.0,0.0,0.0,0.0,0.0,0.0,0.0,0.0,0.0,0.0,0.0,0.0,0.0,0.0,0.0,0.0,0.0,0.0,0.0,0.0,0.0,0.0,0.0,0.0,0.0,0.0,0.0,0.0,0.0,0.0,0.0,0.0,0.0,0.0,0.0,0.0,0.0,0.0,0.0,0.0,0.0,0.0,0.0,0.0,0.0,0.0,-2.9891,0.0,0.0,0.0,0.0,0.0,0.0,0.0,0.0,0.0,0.0,0.0,0.0,0.0,0.0,0.0,0.0,0.0,0.0,0.0,0.0,0.0,0.0,0.0,0.0,0.0,0.0,0.0,0.0,0.0,0.0,0.0,0.0,0.0,0.0,0.0,0.0,0.0,0.0,0.0,0.0,0.0,0.0,0.0,0.0,0.0,0.0,0.0,0.0,0.0,0.0,0.0,0.0,0.0,0.0,0.0,0.0,0.0,0.0,0.0,-4.2414,-4.4967,-4.405,-4.403,-4.5041,-4.2627,-4.0412,0.0,0.0,0.0,0.0,0.0,0.0,0.0,0.0,0.0,0.0,0.0,0.0,0.0,0.0,0.0,0.0,0.0,0.0,0.0,0.0,0.0,0.0,0.0,0.0,0.0,0.0,0.0,0.0,0.0,0.0,0.0,0.0,0.0,0.0,0.0,0.0,0.0,0.0,0.0,0.0,0.0,0.0,0.0,0.0,0.0,0.0,0.0,0.0,0.0,0.0,0.0,0.0,0.0,0.0,0.0,0.0,0.0,0.0,0.0,0.0,0.0,0.0,0.0,0.0,0.0,0.0,0.0,0.0,0.0,0.0,0.0,0.0,0.0,0.0,0.0,0.0,0.0,0.0,0.0,0.0,0.0,0.0,0.0,0.0,0.0,0.0,0.0,0.0,0.0,0.0,0.0,0.0,0.0,0.0,0.0,0.0,0.0,0.0,0.0,0.0,0.0,0.0,0.0,0.0,0.0,0.0,0.0,-4.0654,-4.2034,-4.3853,-4.3261,-4.3228,-4.3938,-4.1796,-3.9835,-3.8142,0.0,0.0,0.0,0.0,0.0,0.0,0.0,0.0,0.0,0.0,0.0,0.0,0.0,0.0,0.0,0.0,0.0,0.0,0.0,0.0,0.0,0.0,0.0,0.0,0.0,0.0,0.0,0.0,0.0,0.0,0.0,0.0,0.0,0.0,0.0,0.0,0.0,0.0,-2.8877,-2.9021,0.0,0.0,0.0,0.0,0.0,0.0,0.0,0.0,-2.9654,0.0,0.0,0.0,0.0,0.0,0.0,0.0,0.0,0.0,0.0,0.0,0.0,0.0,0.0,0.0,0.0,0.0,0.0,0.0,0.0,0.0,0.0,0.0,0.0,0.0,0.0,0.0,0.0,0.0,0.0,0.0,0.0,0.0,0.0,0.0,0.0,0.0,0.0,0.0,0.0,0.0,0.0,0.0,0.0,0.0,0.0,0.0,0.0,0.0,0.0,0.0,0.0,0.0,0.0,0.0,0.0,-3.9359,-3.9623,-4.0937,-4.3337,-4.2708,-4.243,-4.2577,-4.1058,-3.9102,-3.6861,0.0,0.0,0.0,0.0,0.0,0.0,0.0,0.0,0.0,0.0,0.0,0.0,0.0,0.0,0.0,0.0,0.0,0.0,0.0,0.0,0.0,0.0,0.0,0.0,0.0,0.0,0.0,0.0,0.0,0.0,0.0,0.0,0.0,0.0,0.0,0.0,0.0,0.0,0.0,-2.891,-2.894,0.0,0.0,0.0,0.0,0.0,0.0,0.0,0.0,-2.9579,0.0,0.0,0.0,0.0,0.0,0.0,0.0,0.0,0.0,0.0,0.0,0.0,0.0,0.0,0.0,0.0,0.0,0.0,0.0,0.0,0.0,0.0,0.0,0.0,0.0,0.0,0.0,0.0,0.0,0.0,0.0,0.0,0.0,0.0,0.0,0.0,0.0,0.0,0.0,0.0,0.0,0.0,0.0,0.0,0.0,0.0,0.0,0.0,0.0,0.0,0.0,0.0,0.0,0.0,0.0,-3.8877,-3.9421,-4.0456,-4.2021,-4.1899,-4.1601,-4.1273,-4.0263,-3.8636,0.0,0.0,0.0,0.0,0.0,0.0,0.0,0.0,0.0,0.0,0.0,0.0,0.0,0.0,0.0,0.0,0.0,0.0,0.0,0.0,0.0,0.0,0.0,0.0,0.0,0.0,0.0,0.0,0.0,0.0,0.0,0.0,0.0,0.0,0.0,0.0,0.0,0.0,0.0,0.0,-2.887,-2.8834,-2.8791,0.0,0.0,0.0,0.0,0.0,0.0,-2.9246,-2.9318,0.0,0.0,0.0,0.0,0.0,0.0,0.0,0.0,0.0,0.0,0.0,0.0,0.0,0.0,0.0,0.0,0.0,0.0,0.0,0.0,0.0,0.0,0.0,0.0,0.0,0.0,0.0,0.0,0.0,0.0,0.0,0.0,0.0,0.0,0.0,0.0,0.0,0.0,0.0,0.0,0.0,0.0,0.0,0.0,0.0,0.0,0.0,0.0,0.0,0.0,0.0,0.0,0.0,0.0,0.0,-3.8219,-3.9072,-3.9859,-4.0625,-4.0845,-4.0617,-3.9935,-3.9322,-3.7918,0.0,0.0,0.0,0.0,0.0,0.0,0.0,0.0,0.0,0.0,0.0,0.0,0.0,0.0,0.0,0.0,0.0,0.0,0.0,0.0,0.0,0.0,0.0,0.0,0.0,0.0,0.0,0.0,0.0,0.0,0.0,0.0,0.0,0.0,0.0,0.0,0.0,0.0,0.0,0.0,0.0,-2.8724,-2.8632,-2.8587,0.0,0.0,0.0,0.0,-2.8845,-2.8945,0.0,0.0,0.0,0.0,0.0,0.0,0.0,0.0,0.0,0.0,0.0,0.0,0.0,0.0,0.0,0.0,0.0,0.0,0.0,0.0,0.0,0.0,0.0,0.0,0.0,0.0,0.0,0.0,0.0,0.0,0.0,0.0,0.0,0.0,0.0,0.0,0.0,0.0,0.0,0.0,0.0,0.0,0.0,0.0,0.0,0.0,0.0,0.0,0.0,0.0,0.0,0.0,0.0,0.0,0.0,0.0,-3.6983,-3.7695,-3.8496,-3.9347,-3.9447,-3.9189,-3.8637,-3.7907,-3.6575,0.0,0.0,0.0,0.0,0.0,0.0,0.0,0.0,0.0,0.0,0.0,0.0,0.0,0.0,0.0,0.0,0.0,0.0,0.0,0.0,0.0,0.0,0.0,0.0,0.0,0.0,0.0,0.0,0.0,0.0,0.0,0.0,0.0,0.0,0.0,0.0,0.0,0.0,0.0,0.0,0.0,-2.8574,-2.8445,-2.8398,-2.834,0.0,0.0,-2.8375,-2.8448,-2.8563,0.0,0.0,0.0,0.0,0.0,0.0,0.0,0.0,0.0,0.0,0.0,0.0,0.0,0.0,0.0,0.0,0.0,0.0,0.0,0.0,0.0,0.0,0.0,0.0,0.0,0.0,0.0,0.0,0.0,0.0,0.0,0.0,0.0,0.0,0.0,0.0,0.0,0.0,0.0,0.0,0.0,0.0,0.0,0.0,0.0,0.0,0.0,0.0,0.0,0.0,0.0,0.0,0.0,0.0,0.0,-3.5343,-3.6322,-3.664,-3.7183,-3.7977,-3.8068,-3.7812,-3.7182,-3.7035,-3.5993,0.0,0.0,0.0,0.0,0.0,0.0,0.0,0.0,0.0,0.0,0.0,0.0,0.0,0.0,0.0,0.0,0.0,0.0,0.0,0.0,0.0,0.0,0.0,0.0,0.0,0.0,0.0,0.0,0.0,0.0,0.0,0.0,0.0,0.0,0.0,0.0,0.0,0.0,0.0,0.0,0.0,0.0,-2.8286,-2.8136,0.0,0.0,0.0,-2.8132,-2.8201,0.0,0.0,0.0,0.0,0.0,0.0,0.0,0.0,0.0,0.0,0.0,0.0,0.0,0.0,0.0,0.0,0.0,0.0,0.0,0.0,0.0,0.0,0.0,0.0,0.0,0.0,0.0,0.0,0.0,0.0,0.0,0.0,0.0,0.0,0.0,0.0,0.0,0.0,0.0,0.0,0.0,0.0,0.0,0.0,0.0,0.0,0.0,0.0,0.0,0.0,0.0,0.0,0.0,0.0,0.0,0.0,0.0,-3.5506,-3.5663,-3.6025,-3.6569,-3.6654,-3.6481,-3.5968,-3.6074,0.0,0.0,0.0,0.0,0.0,0.0,0.0,0.0,0.0,0.0,0.0,0.0,0.0,0.0,0.0,0.0,0.0,0.0,0.0,0.0,0.0,0.0,0.0,0.0,0.0,0.0,0.0,-2.807,0.0,0.0,0.0,0.0,0.0,0.0,0.0,0.0,0.0,0.0,0.0,0.0,0.0,0.0,-2.8277,-2.8126,-2.7911,-2.7777,0.0,0.0,-2.7882,-2.794,-2.8025,-2.8077,0.0,0.0,0.0,0.0,0.0,0.0,0.0,0.0,0.0,0.0,0.0,0.0,0.0,0.0,0.0,0.0,0.0,0.0,0.0,0.0,0.0,0.0,0.0,0.0,0.0,0.0,0.0,0.0,0.0,0.0,0.0,0.0,0.0,0.0,0.0,0.0,0.0,0.0,0.0,0.0,0.0,0.0,0.0,0.0,0.0,0.0,0.0,0.0,0.0,0.0,0.0,0.0,0.0,0.0,-3.4041,-3.4248,-3.4778,-3.5098,-3.5146,-3.5146,-3.5208,-3.5247,-3.4732,-3.3889,0.0,0.0,0.0,0.0,0.0,0.0,0.0,0.0,0.0,0.0,0.0,0.0,0.0,0.0,0.0,0.0,0.0,0.0,0.0,0.0,0.0,0.0,0.0,0.0,0.0,0.0,0.0,0.0,0.0,0.0,0.0,0.0,0.0,0.0,0.0,0.0,0.0,0.0,0.0,0.0,0.0,-2.8053,-2.7864,-2.7704,-2.7587,0.0,-2.7526,-2.7542,-2.7524,-2.7642,-2.7745,-2.773,0.0,0.0,0.0,0.0,0.0,0.0,0.0,0.0,0.0,0.0,0.0,0.0,0.0,0.0,0.0,0.0,0.0,0.0,0.0,0.0,0.0,0.0,0.0,0.0,0.0,0.0,0.0,0.0,0.0,0.0,0.0,0.0,0.0,0.0,0.0,0.0,0.0,0.0,0.0,0.0,0.0,0.0,0.0,0.0,0.0,0.0,0.0,0.0,0.0,0.0,0.0,0.0,0.0,-3.3477,-3.3591,-3.3715,-3.3763,-3.3763,-3.3694,-3.3667,-3.3704,-3.3246,-3.2616,0.0,0.0,0.0,0.0,0.0,0.0,0.0,0.0,0.0,0.0,0.0,0.0,0.0,0.0,0.0,0.0,0.0,0.0,0.0,0.0,0.0,0.0,0.0,0.0,0.0,0.0,0.0,0.0,-2.9414,-2.9703,-3.037,0.0,0.0,0.0,0.0,0.0,0.0,0.0,0.0,0.0,0.0,-2.7806,-2.7689,-2.7574,0.0,0.0,-2.7467,-2.7452,-2.7496,-2.7557,-2.7585,-2.7569,-2.7689,0.0,0.0,0.0,0.0,0.0,0.0,0.0,0.0,0.0,0.0,0.0,0.0,0.0,0.0,0.0,0.0,0.0,0.0,0.0,0.0,0.0,0.0,0.0,0.0,0.0,0.0,0.0,0.0,0.0,0.0,0.0,0.0,0.0,0.0,0.0,0.0,0.0,0.0,0.0,0.0,0.0,0.0,0.0,0.0,0.0,0.0,0.0,0.0,0.0,0.0,0.0,0.0,-3.2947,-3.3027,-3.2823,-3.2683,-3.2699,-3.2532,-3.2477,-3.2461,-3.2069,-3.1575,0.0,0.0,0.0,0.0,0.0,0.0,0.0,0.0,0.0,0.0,0.0,0.0,0.0,0.0,0.0,0.0,0.0,0.0,0.0,0.0,0.0,0.0,0.0,0.0,0.0,0.0,0.0,0.0,-3.0132,-3.0466,-3.0974,0.0,0.0,0.0,0.0,0.0,0.0,0.0,0.0,0.0,0.0,-2.7522,-2.7463,-2.7359,-2.7297,-2.7359,-2.7312,-2.7297,-2.7359,-2.7373,-2.7371,-2.7388,0.0,0.0,0.0,0.0,0.0,0.0,0.0,0.0,0.0,0.0,0.0,0.0,0.0,0.0,0.0,0.0,0.0,0.0,0.0,0.0,0.0,0.0,0.0,0.0,0.0,0.0,0.0,0.0,0.0,0.0,-2.7079,0.0,0.0,0.0,0.0,0.0,0.0,0.0,0.0,0.0,0.0,0.0,0.0,0.0,0.0,0.0,0.0,0.0,0.0,0.0,0.0,0.0,0.0,-3.2398,-3.241,-3.2135,-3.2025,-3.201,-3.1824,-3.1739,-3.1709,-3.1271,-3.0777,-3.0309,0.0,0.0,0.0,0.0,0.0,0.0,0.0,0.0,0.0,0.0,0.0,0.0,0.0,0.0,0.0,0.0,0.0,0.0,0.0,0.0,0.0,0.0,0.0,0.0,0.0,0.0,-2.966,-3.0214,-3.061,0.0,0.0,0.0,0.0,0.0,0.0,0.0,0.0,0.0,0.0,-2.7276,-2.7181,-2.7117,-2.7055,-2.7007,-2.7024,-2.7007,-2.7007,-2.7007,-2.7054,-2.7119,0.0,0.0,0.0,0.0,0.0,0.0,0.0,0.0,0.0,0.0,0.0,0.0,0.0,0.0,0.0,0.0,0.0,0.0,0.0,0.0,0.0,0.0,0.0,0.0,0.0,0.0,0.0,-2.6705,-2.6705,0.0,0.0,0.0,0.0,0.0,0.0,0.0,0.0,0.0,0.0,0.0,-2.8052,-2.8183,0.0,0.0,0.0,0.0,0.0,0.0,0.0,0.0,0.0,0.0,0.0,0.0,-3.1667,-3.1667,-3.1437,-3.1307,-3.1204,-3.1073,-3.0955,-3.097,-3.0082,-2.9232,-2.8474,0.0,0.0,0.0,0.0,0.0,0.0,0.0,0.0,0.0,0.0,0.0,0.0,0.0,0.0,0.0,0.0,0.0,0.0,0.0,0.0,0.0,0.0,0.0,0.0,0.0,-3.0057,0.0,0.0,0.0,0.0,0.0,0.0,0.0,0.0,0.0,0.0,0.0,-2.6989,-2.6923,-2.6858,-2.6791,-2.6758,-2.6792,-2.6809,0.0,0.0,0.0,0.0,0.0,0.0,0.0,0.0,0.0,0.0,0.0,0.0,0.0,0.0,-2.7303,-2.7654,-2.78,-2.7823,-2.7869,0.0,0.0,0.0,0.0,0.0,0.0,0.0,0.0,0.0,0.0,0.0,0.0,0.0,0.0,-2.6495,0.0,-2.6399,0.0,0.0,0.0,0.0,0.0,0.0,0.0,0.0,-2.7536,-2.7469,-2.7335,-2.7469,-2.759,0.0,-2.7875,-2.7897,0.0,0.0,0.0,0.0,0.0,0.0,0.0,0.0,-3.0896,-3.0851,-3.0688,-3.0539,-3.0448,-3.0326,-3.0235,-3.0221,-2.916,-2.8097,-2.7126,-2.7159,-2.7414,0.0,0.0,0.0,0.0,0.0,0.0,0.0,0.0,0.0,0.0,0.0,0.0,0.0,0.0,0.0,0.0,0.0,0.0,0.0,0.0,0.0,0.0,0.0,-3.0242,0.0,0.0,0.0,0.0,0.0,0.0,0.0,0.0,0.0,-2.8247,-2.7214,-2.647,-2.647,-2.6401,-2.64,-2.6452,0.0,0.0,0.0,0.0,0.0,0.0,0.0,-2.6521,-2.6538,-2.6521,-2.6521,-2.6521,-2.6538,-2.6521,-2.6556,0.0,0.0,-2.7133,-2.7276,-2.7321,-2.7321,-2.7382,-2.7461,-2.7491,-2.7461,-2.7374,0.0,0.0,0.0,0.0,0.0,0.0,0.0,0.0,-2.699,-2.6943,0.0,-2.6939,0.0,0.0,0.0,0.0,0.0,-2.699,0.0,0.0,-2.699,-2.699,-2.6956,-2.6956,-2.7079,-2.7268,-2.7268,-2.7356,-2.7543,-2.8541,0.0,0.0,0.0,0.0,0.0,0.0,-3.0054,-3.0068,-2.987,-2.9777,-2.9747,-2.9634,-2.9557,-2.9473,-2.8443,-2.74,-2.6369,-2.6537,-2.6721,-2.6875,-2.7221,0.0,0.0,0.0,0.0,0.0,0.0,0.0,0.0,0.0,0.0,0.0,0.0,0.0,0.0,0.0,0.0,0.0,0.0,0.0,0.0,-3.0146,0.0,0.0,0.0,0.0,0.0,0.0,0.0,0.0,0.0,0.0,-2.8111,-2.6995,-2.61,-2.6072,0.0,0.0,0.0,0.0,-2.6188,-2.6188,-2.6188,-2.6171,-2.6188,-2.6188,-2.6188,-2.6171,0.0,0.0,-2.6205,-2.6206,-2.6224,-2.6261,-2.6295,-2.6366,-2.6624,-2.6758,-2.6808,-2.6791,-2.6924,-2.7006,-2.707,-2.7103,-2.6912,-2.7978,0.0,0.0,0.0,0.0,-2.7125,-2.7065,-2.7077,-2.6919,-2.6663,-2.6369,-2.6369,0.0,0.0,0.0,0.0,0.0,0.0,-2.6508,-2.644,-2.644,-2.6349,-2.6236,-2.6211,-2.6371,-2.6667,-2.6667,-2.6816,-2.7134,-2.759,-2.8006,-2.8371,0.0,0.0,0.0,0.0,-2.917,-2.917,-2.9107,-2.904,-2.8926,-2.8894,-2.8514,-2.777,-2.7575,-2.6943,-2.5908,-2.5934,-2.6096,-2.6312,-2.6445,0.0,0.0,0.0,0.0,0.0,0.0,0.0,0.0,0.0,0.0,0.0,0.0,0.0,0.0,0.0,0.0,0.0,0.0,0.0,-2.9393,-2.9409,-2.9454,0.0,0.0,0.0,0.0,0.0,0.0,0.0,0.0,0.0,-2.6602,-2.6489,-2.6526,0.0,0.0,-2.6383,-2.6403,-2.6043,-2.577,-2.5768,-2.577,0.0,-2.5772,-2.5772,-2.5772,-2.5772,-2.5809,-2.5883,-2.5989,-2.599,-2.6007,-2.6008,-2.6008,-2.6046,-2.6189,-2.6417,-2.6589,-2.6589,-2.6623,-2.664,-2.6674,-2.6691,-2.6708,-2.7254,-2.7107,-2.7032,-2.6878,-2.6661,-2.656,-2.6484,-2.6496,-2.637,-2.6156,-2.5861,-2.5698,-2.5658,-2.5744,-2.575,0.0,0.0,0.0,-2.6164,-2.6107,-2.606,-2.6002,-2.591,-2.5923,-2.6002,-2.6198,-2.6186,-2.6302,-2.6568,-2.6705,-2.6918,-2.731,0.0,0.0,-2.8287,-2.8287,-2.8287,-2.8287,-2.8384,-2.8352,-2.8281,-2.836,-2.7966,-2.7128,-2.6948,-2.6497,-2.5698,-2.5452,-2.5467,-2.5715,-2.5797,-2.592,0.0,0.0,0.0,0.0,0.0,0.0,0.0,0.0,0.0,0.0,0.0,-2.8165,-2.8174,0.0,0.0,0.0,-2.8352,-2.8511,-2.8716,-2.874,0.0,0.0,0.0,0.0,0.0,0.0,0.0,-2.732,-2.6435,-2.5811,-2.5754,-2.5967,-2.6259,-2.6671,-2.6432,-2.6254,-2.6278,0.0,-2.5375,-2.5371,-2.5355,-2.5359,-2.5397,-2.5416,-2.5435,-2.5473,-2.5495,-2.5567,-2.564,-2.5677,-2.5715,-2.5768,-2.5789,-2.5862,-2.5954,-2.6134,-2.6311,-2.6363,-2.638,-2.6398,-2.6416,-2.6468,-2.6454,-2.6312,-2.5906,-2.6179,-2.6023,-2.5613,-2.5602,-2.5652,-2.5613,-2.5613,-2.5618,-2.5499,-2.5131,-2.5105,-2.5433,-2.5529,0.0,-2.5548,-2.5723,-2.5793,-2.584,-2.584,-2.584,-2.584,-2.5828,-2.5863,-2.5875,-2.5875,-2.5863,-2.5923,-2.5923,-2.6002,-2.6198,-2.6973,-2.739,-2.7423,-2.7423,-2.7423,-2.7436,-2.761,-2.7756,-2.7709,-2.7934,-2.7754,-2.715,-2.6636,-2.6142,-2.5577,-2.5112,-2.4946,-2.5146,-2.5258,-2.5412,-2.5619,0.0,0.0,0.0,0.0,0.0,0.0,0.0,0.0,0.0,0.0,0.0,0.0,0.0,0.0,-2.7246,-2.7479,0.0,-2.8088,-2.8137,0.0,0.0,0.0,-2.8162,-2.7688,-2.7457,-2.6922,-2.5773,0.0,0.0,-2.5364,-2.5437,-2.5538,-2.5707,-2.577,-2.5832,-2.5952,-2.5424,-2.4982,-2.4985,-2.4982,-2.5005,-2.5048,-2.5052,-2.5107,-2.5236,-2.5275,-2.5278,-2.5314,-2.5355,-2.5451,-2.5562,-2.5659,-2.5719,-2.5862,-2.5936,-2.6043,-2.6168,-2.6202,-2.6221,-2.6277,-2.6295,-2.6198,-2.6311,-2.5873,-2.5601,-2.5633,-2.5834,-2.5834,-2.5834,-2.5834,-2.5834,-2.5613,-2.5249,-2.5309,-2.5166,-2.4834,-2.5131,-2.5094,-2.4778,-2.4957,-2.5135,-2.53,-2.53,-2.5359,-2.5418,-2.5418,-2.5523,-2.5676,-2.5688,-2.5758,-2.591,-2.5923,-2.5898,-2.598,-2.6176,-2.6405,-2.6667,-2.6816,-2.6897,-2.6884,-2.7066,-2.7201,-2.7214,-2.7469,-2.7348,-2.6757,-2.6895,-2.6507,-2.5511,-2.5325,-2.5103,-2.4761,-2.4778,-2.4863,-2.4991,-2.5033,0.0,0.0,0.0,0.0,0.0,0.0,0.0,0.0,0.0,-2.6747,-2.6709,0.0,-2.6561,0.0,-2.668,-2.6956,-2.7397,-2.7423,0.0,0.0,-2.7446,-2.7155,-2.7035,-2.6192,-2.5511,-2.5227,-2.4658,-2.4316,-2.4374,-2.478,-2.5122,-2.5188,-2.5495,-2.5722,-2.5749,-2.5164,-2.469,-2.469,-2.469,-2.471,-2.4731,-2.4715,-2.4771,-2.4902,-2.4985,-2.5084,-2.5127,-2.5224,-2.5355,-2.5432,-2.5454,-2.5532,-2.5701,-2.5756,-2.583,-2.6008,-2.6132,-2.622,-2.6239,-2.6259,-2.6263,-2.6028,-2.5522,-2.506,-2.5041,-2.5295,-2.5517,-2.5591,-2.5591,-2.5591,-2.544,-2.5159,-2.518,-2.4919,-2.4525,-2.4914,-2.5081,-2.5052,-2.5005,-2.5082,-2.5276,-2.5051,-2.4992,-2.5087,-2.5076,-2.5123,-2.523,-2.5242,-2.5312,-2.5419,-2.5419,-2.5419,-2.5431,-2.5419,-2.5633,-2.5993,-2.6218,-2.6336,-2.6349,-2.6624,-2.6773,-2.6875,-2.7146,-2.7113,-2.6789,-2.6739,-2.6386,-2.572,-2.5489,-2.5232,-2.5007,-2.4774,-2.4701,-2.4848,-2.4611,-2.452,0.0,0.0,0.0,0.0,0.0,0.0,0.0,0.0,0.0,0.0,0.0,-2.5838,-2.5892,-2.5973,-2.6229,-2.6747,-2.6774,-2.6828,-2.688,-2.6614,-2.6256,-2.5762,-2.5145,-2.4679,-2.4391,-2.4066,-2.3882,-2.3997,-2.4279,-2.4485,-2.455,-2.4787,-2.5043,-2.5259,-2.4775,-2.4323,-2.4343,-2.4323,-2.438,-2.4462,-2.4549,-2.4609,-2.4706,-2.4766,-2.4831,-2.4855,-2.5045,-2.5178,-2.522,-2.5301,-2.5435,-2.5551,-2.5645,-2.5738,-2.5846,-2.599,-2.6115,-2.6202,-2.6206,-2.6259,-2.5709,-2.522,-2.4776,-2.4516,-2.4507,-2.4903,-2.5073,-2.5115,-2.5115,-2.5115,-2.5126,-2.4921,-2.4686,-2.4433,-2.4836,-2.5195,-2.5515,-2.5271,-2.5277,-2.5452,-2.508,-2.4834,-2.4811,-2.4811,-2.4788,-2.4718,-2.4718,-2.4718,-2.4706,-2.4706,-2.4718,-2.4718,-2.4776,-2.5034,-2.5458,-2.5721,-2.5978,-2.6084,-2.6397,-2.6653,-2.6791,-2.6913,-2.699,-2.6965,-2.645,-2.6105,-2.6028,-2.5582,-2.5371,-2.5363,-2.4867,-2.4662,-2.4758,-2.4268,-2.3985,0.0,-2.3985,0.0,0.0,0.0,0.0,0.0,0.0,0.0,0.0,-2.509,-2.5118,-2.5259,-2.5328,-2.5563,-2.6135,-2.6176,-2.6148,-2.6006,-2.5937,-2.5487,-2.4502,-2.4405,-2.4208,-2.3641,-2.3588,-2.3674,-2.3897,-2.3839,-2.3818,-2.3949,-2.4006,-2.4225,-2.4628,-2.4353,-2.4024,-2.3982,-2.3982,-2.4109,-2.4255,-2.4421,-2.4508,-2.4528,-2.4569,-2.4569,-2.4589,-2.4806,-2.495,-2.5025,-2.5201,-2.5339,-2.5378,-2.5532,-2.5663,-2.5682,-2.5846,-2.6008,-2.6115,-2.6202,-2.6205,-2.6175,-2.572,-2.523,-2.4761,-2.4239,-2.4335,-2.4497,-2.4625,-2.4625,-2.4743,-2.4935,-2.4904,-2.4734,-2.4495,-2.4889,-2.4923,-2.469,-2.4921,-2.5147,-2.534,-2.5249,-2.51,-2.4909,-2.4886,-2.469,-2.4321,-2.4298,-2.4309,-2.4309,-2.4309,-2.4309,-2.4332,-2.469,-2.5006,-2.5271,0.0,0.0,0.0,-2.7164,-2.7323,-2.7335,-2.7119,-2.7014,-2.7001,-2.6578,0.0,-2.5728,-2.5602,-2.5325,-2.4847,-2.435,0.0,0.0,0.0,0.0,0.0,0.0,0.0,0.0,0.0,0.0,0.0,-2.3704,-2.3969,-2.4436,-2.4465,-2.4523,-2.4652,-2.4821,-2.509,-2.555,-2.5563,-2.57,-2.6007,-2.5709,-2.5247,-2.4747,-2.4347,-2.3914,-2.3415,-2.3466,-2.3553,-2.3596,-2.3625,-2.3653,-2.3696,-2.3696,-2.3719,-2.3854,-2.3951,-2.3982,-2.3982,-2.3982,-2.4003,-2.4046,-2.4088,-2.4193,-2.425,-2.4333,-2.44,-2.4482,-2.4589,-2.4751,-2.4926,-2.5029,-2.5143,-2.5278,-2.5413,-2.5492,-2.56,-2.568,-2.5828,-2.5992,-2.6132,-2.622,-2.6126,0.0,-2.5108,-2.4527,0.0,-2.4024,-2.4067,-2.4153,-2.4143,-2.4229,-2.4348,-2.4487,-2.4543,-2.4535,-2.4849,-2.4959,-2.4938,-2.4942,-2.4981,-2.5198,-2.5066,-2.4937,-2.4806,-2.491,-2.4823,-2.4585,-2.4585,-2.4585,-2.4585,-2.4623,-2.4585,-2.4597,-2.4823,-2.5149,-2.5499,-2.6108,-2.6511,-2.6749,-2.6949,-2.7061,-2.7049,-2.6749,-2.6553,-2.6565,-2.6098,0.0,0.0,0.0,0.0,0.0,0.0,0.0,0.0,0.0,0.0,-2.2665,-2.2665,-2.2696,-2.2757,-2.2757,-2.2848,-2.3042,-2.3133,-2.3378,-2.394,-2.3956,-2.4044,-2.429,-2.439,-2.4635,-2.5062,-2.5175,-2.5232,-2.531,-2.5188,-2.4958,-2.459,-2.4447,-2.4174,-2.3735,-2.3739,-2.3733,-2.3444,-2.3414,-2.348,-2.3523,-2.3523,-2.3581,-2.361,-2.3696,-2.3782,-2.3797,-2.3876,-2.3919,-2.3882,-2.3961,-2.4003,-2.4088,-2.4187,-2.4271,-2.4333,-2.4477,-2.4605,-2.4742,-2.4866,-2.5025,-2.5123,-2.524,-2.5391,-2.547,-2.5584,-2.568,-2.5828,-2.5974,-2.6115,-2.5987,-2.5488,-2.4886,-2.4279,-2.3754,-2.3754,-2.3711,-2.3667,0.0,0.0,0.0,-2.4024,-2.4196,-2.4411,-2.47,-2.5031,-2.5306,-2.5025,-2.4966,-2.5128,-2.488,-2.4752,-2.4675,-2.4829,-2.4853,-2.4775,-2.4775,-2.4775,-2.4775,-2.4775,-2.4786,-2.4786,-2.4864,-2.5203,-2.5824,-2.6442,-2.6634,-2.6391,-2.6615,-2.6742,-2.6756,-2.63,-2.6053,-2.6028,-2.5433,-2.5099,-2.5111,-2.5099,-2.5099,-2.5075,-2.4098,-2.3537,-2.3501,-2.2559,-2.203,-2.203,-2.203,-2.208,-2.2235,-2.2266,-2.2432,-2.2616,-2.28,-2.303,-2.345,-2.3539,-2.37,-2.3966,-2.3995,-2.4187,-2.462,-2.4791,-2.4787,-2.46,-2.4801,-2.4777,-2.4422,-2.4597,-2.4576,-2.411,-2.4168,-2.4126,-2.3679,-2.3665,-2.3615,-2.3615,-2.3666,-2.3592,-2.3596,-2.3595,-2.3616,-2.3631,-2.3717,-2.376,-2.376,-2.3839,-2.3925,-2.3961,-2.4046,-2.4124,-2.4202,-2.4348,-2.4436,-2.4518,-2.4742,-2.4902,-2.4982,-2.5103,-2.5275,-2.5336,-2.5432,-2.5581,-2.5677,-2.5826,-2.5972,-2.597,-2.527,-2.5164,-2.4471,-2.3547,-2.3547,-2.3416,-2.3222,-2.3624,-2.3797,-2.3797,-2.3841,-2.3884,-2.3927,-2.4358,-2.4583,-2.4668,-2.501,-2.5147,-2.5178,-2.5156,-2.4931,-2.4527,-2.4547,-2.4373,-2.3998,-2.3977,-2.3977,-2.3977,-2.3988,-2.3977,-2.4041,-2.4384,-2.5029,-2.5837,-2.6174,-2.6378,-2.6553,-2.7071,-2.7382,-2.737,-2.6488,-2.5934,-2.572,-2.483,-2.4334,-2.437,-2.437,-2.437,-2.4347,-2.3387,-2.2855,-2.2808,-2.1906,-2.1348,-2.136,-2.1443,-2.1526,-2.1557,-2.1819,-2.2111,-2.242,-2.2616,-2.28,-2.3,-2.3283,-2.3463,-2.348,-2.3628,-2.3806,-2.4141,-2.4229,-2.4436,-2.4827,-2.4953,-2.4929,-2.4791,-2.485,-2.4739,-2.4408,-2.4543,-2.4713,-2.4549,-2.4677,-2.4599,-2.4248,-2.4123,-2.3992,-2.3725,-2.3566,-2.3595,-2.3595,-2.3595,-2.3616,-2.3638,-2.3638,-2.3717,-2.3818,-2.3861,-2.3961,-2.4145,-2.4244,-2.4327,-2.4457,-2.4559,-2.4641,-2.4766,-2.4942,-2.508,-2.5146,-2.5259,-2.541,-2.5562,-2.5637,-2.5733,-2.5924,-2.5345,-2.4947,-2.4345,-2.3664,-2.3374,-2.3232,-2.3091,-2.3319,-2.344,-2.345,-2.359,-2.3624,-2.3667,-2.398,-2.4153,-2.4143,-2.4348,-2.4433,-2.4433,-2.4562,-2.4554,-2.4377,-2.4609,-2.4608,-2.4407,-2.4531,-2.4573,-2.4573,-2.4573,-2.4573,-2.4573,-2.4796,-2.5093,-2.5485,-2.5622,-2.5779,-2.5999,-2.6663,-2.6878,-2.6593,-2.5875,-2.5363,-2.4997,-2.4149,-2.3703,-2.3714,-2.3604,-2.3556,-2.353,-2.2838,-2.2482,-2.2576,-2.1936,-2.1575,-2.1675,-2.1841,-2.1973,-2.2049,-2.2497,-2.2834,-2.3007,-2.3252,-2.3289,-2.3058,-2.3083,-2.321,-2.3373,-2.3463,-2.3569,-2.3819,-2.3907,-2.4112,-2.4476,-2.4635,-2.4785,-2.4929,-2.5065,-2.5031,-2.4758,-2.4864,-2.4902,-2.4632,-2.4747,-2.4835,-2.4533,-2.4622,-2.4623,-2.4435,-2.4505,-2.4321,-2.3752,-2.3595,-2.3595,-2.361,-2.3595,-2.3616,-2.3674,-2.3739,-2.3861,-2.4046,-2.4124,-2.425,-2.4374,-2.4457,-2.4518,-2.4641,-2.4798,-2.4922,-2.5045,-2.5107,-2.5259,-2.5391,-2.5505,-2.5694,-2.5795,-2.5322,-2.4692,-2.4121,-2.3623,-2.3237,-2.3101,-2.3101,-2.3101,-2.3101,-2.3144,-2.3319,-2.3406,-2.3416,-2.3624,-2.3744,-2.3754,-2.3797,-2.3797,-2.3797,-2.4024,-2.411,-2.4153,-2.4487,-2.4647,-2.469,-2.4828,-2.4893,-2.4893,-2.4861,-2.4903,-2.4903,-2.4946,-2.4988,-2.5031,-2.5105,-2.5242,-2.5454,-2.5999,-2.6083,-2.5736,-2.5147,-2.4648,-2.4232,-2.3495,-2.3113,-2.3075,-2.2927,-2.2852,-2.283,-2.236,-2.2183,-2.2294,-2.1938,-2.1779,-2.1918,-2.2125,-2.2355,-2.2605,-2.3056,-2.3416,-2.3482,-2.3749,-2.3745,-2.3429,-2.3249,-2.3157,-2.3273,-2.3283,-2.3373,-2.3552,-2.37,-2.3848,-2.4024,-2.4274,-2.4523,-2.4836,-2.5147,-2.526,-2.5032,-2.5177,-2.5164,-2.487,-2.4855,-2.4977,-2.5036,-2.5048,-2.5067,-2.514,-2.5245,-2.4875,-2.432,-2.3999,-2.4096,-2.4059,-2.4103,-2.4059,-2.3909,-2.3929,-2.3993,-2.4031,-2.4067,-2.4187,-2.4276,-2.438,-2.4457,-2.4498,-2.462,-2.4782,-2.4906,-2.5005,-2.5084,-2.522,-2.5375,-2.56,-2.5527,-2.5086,-2.4619,-2.389,-2.3208,-2.312,-2.3101,-2.3101,-2.3101,-2.3101,-2.3101,-2.3144,-2.3135,-2.3178,-2.3406,-2.3547,-2.3537,-2.3711,-2.3797,-2.3807,-2.3797,-2.3841,-2.3797,-2.3884,-2.3927,-2.3927,-2.397,-2.4013,-2.4013,-2.397,-2.396,-2.397,-2.4153,-2.4368,-2.4583,-2.4775,-2.5031,-2.5242,-2.5285,-2.539,-2.5461,-2.4649,-2.4093,-2.3873,-2.2996,-2.2478,-2.2515,-2.2478,-2.244,-2.2435,-2.2003,-2.1773,-2.1767,-2.1535,-2.1347,-2.1404,-2.1732,-2.2068,-2.256,-2.282,-2.3149,-2.3461,-2.3575,-2.3718,-2.3874,-2.3891,-2.3602,-2.3158,-2.2976,-2.314,-2.3386,-2.3445,-2.3552,-2.3832,-2.4024,-2.4274,-2.4507,-2.485,-2.5062,-2.5161,-2.537,-2.5672,-2.5598,-2.5731,-2.5761,-2.5523,-2.5192,-2.5003,-2.5175,-2.5272,-2.5292,-2.5156,-2.5248,-2.5344,-2.5307,-2.5382,-2.5038,-2.4605,-2.4537,-2.438,-2.415,-2.4031,-2.4046,-2.4223,-2.4276,-2.4359,-2.4457,-2.4539,-2.46,-2.4762,-2.4826,-2.4886,-2.5052,-2.5224,-2.5432,-2.513,-2.4929,-2.4517,-2.3938,-2.3322,-2.3164,-2.3101,-2.3101,-2.3101,-2.3101,-2.3101,-2.3101,-2.3101,-2.3101,-2.3232,-2.3276,-2.3285,-2.3363,-2.3406,-2.3396,-2.3406,-2.3396,-2.3396,-2.3537,-2.3634,-2.3634,-2.3754,-2.3797,-2.3797,-2.3797,-2.3797,-2.3797,-2.3927,-2.4024,-2.4057,-2.4176,-2.4305,-2.4391,-2.4348,-2.4433,-2.4447,-2.4397,-2.4036,-2.3384,-2.2865,-2.2499,-2.2256,-2.2101,-2.2025,-2.2014,-2.1847,-2.1817,-2.1929,-2.1834,-2.1875,-2.2095,-2.2484,-2.2869,-2.3345,-2.3557,-2.3781,-2.4073,-2.4225,-2.4234,-2.4174,-2.4184,-2.3993,-2.3619,-2.3373,-2.3313,-2.3443,-2.323,-2.321,-2.339,-2.3569,-2.3806,-2.4099,-2.4361,-2.4563,-2.4751,-2.5076,-2.5342,-2.5508,-2.5784,-2.597,-2.5983,-2.5785,-2.5715,-2.5846,-2.6043,-2.6199,-2.6274,-2.645,-2.6189,-2.5711,-2.5568,-2.5457,-2.5277,-2.5187,-2.4994,-2.4551,-2.4509,-2.4548,-2.4288,-2.4378,-2.441,-2.4359,-2.4457,-2.4539,-2.4703,-2.4778,-2.4846,-2.5025,-2.5107,-2.5262,-2.4892,-2.4807,-2.4373,-2.3822,-2.33,-2.31,-2.3013,-2.3013,-2.3101,-2.3101,-2.3101,-2.3101,-2.3101,-2.3101,-2.3101,-2.3101,-2.3101,-2.3101,-2.3101,-2.3101,-2.3101,-2.3101,-2.3135,-2.3276,-2.3406,-2.3416,-2.3537,-2.3624,-2.3624,-2.3624,-2.3624,-2.3624,-2.3667,-2.3711,-2.3711,-2.3754,-2.3797,-2.3797,-2.3797,-2.3797,-2.3844,-2.4134,-2.3918,-2.3165,-2.2733,-2.2364,-2.2032,-2.1765,-2.1617,-2.1617,-2.1693,-2.1769,-2.1911,-2.2025,-2.2289,-2.2665,-2.3038,-2.3372,-2.3714,-2.3934,-2.4116,-2.4393,-2.4574,-2.4589,-2.4483,-2.4458,-2.4396,-2.4297,-2.3944,-2.3713,-2.3661,-2.3312,-2.3114,-2.3181,-2.3306,-2.342,-2.3658,-2.3865,-2.4157,-2.4363,-2.465,-2.492,-2.5146,-2.5481,-2.5783,-2.6068,-2.6229,-2.6392,-2.6472,-2.6628,-2.6814,-2.6843,-2.7011,-2.6823,-2.6115,-2.6113,-2.6051,-2.5899,-2.5869,-2.5683,-2.5167,-2.5153,-2.5242,-2.5042,-2.4851,-2.4896,-2.517,-2.5126,-2.5019,-2.5077,-2.5181,-2.5346,-2.5683,-2.5496,-2.5401,-2.4892,-2.4769,-2.4051,-2.3492,-2.3019,-2.2853,-2.2803,-2.2794,-2.3003,-2.3091,-2.3091,-2.3091,-2.3101,-2.3101,-2.3101,-2.3101,-2.3101,-2.3101,-2.3101,-2.3101,-2.3101,-2.3101,-2.3101,-2.3101,-2.3144,-2.3144,-2.3178,-2.3178,-2.3144,-2.3144,-2.3135,-2.3144,-2.3406,-2.3503,-2.3537,-2.3667,-2.3797,-2.3754,-2.3754,-2.3754,-2.3797,-2.381,-2.3654,-2.316,-2.2352,-2.1899,-2.1798,-2.1455,-2.1254,-2.1244,-2.1436,-2.1512,-2.154,-2.1883,-2.2289,-2.2628,-2.2889,-2.3075,-2.3335,-2.3519,-2.3787,-2.4127,-2.4225,-2.4358,-2.4648,-2.4684,-2.4744,-2.5016,-2.4479,-2.423,-2.4148,-2.3752,-2.3496,-2.3478,-2.325,-2.3195,-2.3193,-2.3607,-2.3949,-2.4099,-2.4247,-2.4536,-2.4948,-2.5118,-2.5453,-2.5757,-2.5921,-2.6029,-2.6245,-2.6433,-2.6525,-2.663,-2.6817,-2.7037,-2.7206,-2.7025,-2.6882,-2.6732,-2.6473,-2.6333,-2.5937,-2.5663,-2.5757,-2.5834,-2.5787,-2.5884,-2.6188,-2.6271,-2.6139,-2.6158,-2.6184,-2.6352,-2.624,-2.6031,-2.5962,-2.444,-2.4442,-2.399,-2.357,-2.3205,-2.3019,-2.2767,-2.2539,-2.2608,-2.275,-2.2882,-2.2925,-2.2969,-2.3101,-2.3101,-2.3101,-2.3101,-2.3101,-2.3101,-2.3101,-2.3101,-2.3101,-2.3101,-2.3101,-2.3101,-2.3101,-2.3101,-2.3101,-2.3101,-2.3101,-2.3101,-2.3101,-2.3178,-2.3242,-2.3276,-2.3319,-2.3363,-2.3353,-2.3363,-2.3353,-2.3363,-2.3353,-2.3284,-2.3106,-2.2579,-2.211,-2.1779,-2.1397,-2.1215,-2.1215,-2.1244,-2.1359,-2.1512,-2.1883,-2.2187,-2.2289,-2.2515,-2.2777,-2.3038,-2.3187,-2.3372,-2.3751,-2.3824,-2.3982,-2.4309,-2.4418,-2.4526,-2.4778,-2.4744,-2.466,-2.4628,-2.419,-2.3843,-2.3758,-2.3545,-2.3399,-2.3405,-2.3437,-2.3463,-2.3658,-2.3953,-2.4319,-2.4622,-2.4907,-2.5174,-2.5411,-2.5647,-2.5839,-2.6002,-2.6165,-2.6285,-2.6457,-2.659,-2.6777,-2.7107,-2.7284,-2.7308,-2.7239,-2.7081,-2.6856,-2.6507,-2.6384,-2.6428,-2.6151,-2.6244,-2.6428,-2.6528,-2.6641,-2.6649,-2.6648,-2.6722,-2.6898,-2.6638,-2.6555,-2.6575,-2.4003,-2.4038,-2.377,-2.3535,-2.3334,-2.3064,-2.2761,-2.2497,-2.241,-2.253,-2.2662,-2.2662,-2.275,-2.2872,-2.2872,-2.2925,-2.3013,-2.3047,-2.3101,-2.3101,-2.3101,-2.3057,-2.3013,-2.3013,-2.296,-2.2916,-2.296,-2.3013,-2.3101,-2.3101,-2.3101,-2.3101,-2.3101,-2.3101,-2.3101,-2.3101,-2.3101,-2.3101,-2.3101,-2.3101,-2.3101,-2.3101,-2.3101,-2.3037,-2.2695,-2.2287,-2.1849,-2.1421,-2.1142,-2.1032,-2.1061,-2.1205,-2.1502,-2.1769,-2.1959,-2.2101,-2.2214,-2.244,-2.274,-2.2852,-2.3038,-2.3383,-2.3482,-2.3666,-2.397,-2.4007,-2.42,-2.449,-2.461,-2.4706,-2.4827,-2.4548,-2.4239,-2.4123,-2.3859,-2.3715,-2.3762,-2.343,-2.3285,-2.3368,-2.3688,-2.4028,-2.4305,-2.4549,-2.4806,-2.5033,-2.5314,-2.5495,-2.5633,-2.5879,-2.6084,-2.6285,-2.6431,-2.6578,-2.6843,-2.7026,-2.7299,-2.7312,-2.7344,-2.7181,-2.7106,-2.703,-2.6898,-2.6579,-2.6537,-2.6694,-2.6826,-2.6942,-2.6972,-2.698,-2.7257,-2.7543,-2.7341,-2.7167,-2.717,-2.3555,-2.375,-2.3273,-2.3305,-2.3343,-2.2982,-2.273,-2.26,-2.2462,-2.24,-2.2407,-2.2388,-2.2432,-2.2432,-2.2485,-2.2574,-2.2794,-2.296,-2.3057,-2.3047,-2.3101,-2.2969,-2.2794,-2.2803,-2.2662,-2.2485,-2.2715,-2.2882,-2.3047,-2.3047,-2.3047,-2.3101,-2.3101,-2.3101,-2.3101,-2.3101,-2.3101,-2.3101,-2.3101,-2.3101,-2.3101,-2.3101,-2.3101,-2.3052,-2.2767,-2.2366,-2.1936,-2.1445,-2.1045,-2.0742,-2.0829,-2.1089,-2.1397,-2.1502,-2.1655,-2.1987,-2.2073,-2.2187,-2.2402,-2.259,-2.274,-2.3001,-2.3161,-2.3372,-2.3556,-2.3629,-2.3776,-2.4116,-2.42,-2.4345,-2.4682,-2.4684,-2.4637,-2.4522,-2.4207,-2.3992,-2.3961,-2.3712,-2.343,-2.3341,-2.358,-2.3781,-2.4047,-2.4338,-2.4582,-2.4918,-2.5121,-2.5265,-2.5436,-2.5716,-2.5881,-2.6002,-2.6177,-2.6418,-2.6592,-2.6777,-2.7078,-2.7284,-2.7346,-2.7344,-2.736,-2.733,-2.7375,-2.7139,-2.7197,-2.7349,-2.7559,-2.767,-2.7849,-2.7919,-2.8128,-2.8105,-2.796,-2.7791,-2.7759,-2.3456,-2.3538,-2.3372,-2.3247,-2.3247,-2.3015,-2.2774,-2.2437,-2.2362,-2.2303,-2.2213,-2.2176,-2.2264,-2.2397,-2.2397,-2.2441,-2.253,-2.2574,-2.2706,-2.2838,-2.2882,-2.275,-2.2574,-2.253,-2.2485,-2.2441,-2.2485,-2.2671,-2.2838,-2.2882,-2.2969,-2.3057,-2.3101,-2.3101,-2.3101,-2.3101,-2.3101,-2.3101,-2.3101,-2.3101,-2.3101,-2.3101,-2.3101,-2.3081,-2.2964,-2.2744,-2.2324,-2.158,-2.1142,-2.1006,-2.082,-2.0819,-2.1061,-2.1205,-2.1397,-2.1665,-2.1693,-2.1845,-2.2138,-2.2252,-2.2402,-2.259,-2.2777,-2.2964,-2.3187,-2.3298,-2.3494,-2.3751,-2.3787,-2.3934,-2.4273,-2.4381,-2.4529,-2.4885,-2.4511,-2.4324,-2.4396,-2.4218,-2.4057,-2.4089,-2.4293,-2.4513,-2.4675,-2.4836,-2.5079,-2.5336,-2.5518,-2.5648,-2.5679,-2.5816,-2.5896,-2.5937,-2.6086,-2.6402,-2.6693,-2.694,-2.7154,-2.7316,-2.7384,-2.7391,-2.7463,-2.7524,-2.76,-2.7675,-2.774,-2.7905,-2.8113,-2.8259,-2.8323,-2.8372,-2.8288,-2.8312,-2.8422,-2.8355,-2.8202,-2.3147,-2.3247,-2.3247,-2.3263,-2.3211,-2.3028,-2.2685,-2.2288,-2.2208,-2.2017,-2.1894,-2.1919,-2.2052,-2.2132,-2.2132,-2.222,-2.2255,-2.2264,-2.2407,-2.2539,-2.2627,-2.253,-2.2309,-2.2176,-2.222,-2.2264,-2.2274,-2.2407,-2.2671,-2.2662,-2.2794,-2.2969,-2.3013,-2.3057,-2.3101,-2.3101,-2.3101,-2.3101,-2.3101,-2.3101,-2.3101,-2.3101,-2.3101,-2.3101,-2.3091,-2.2955,-2.2662,-2.2019,-2.1512,-2.119,-2.081,-2.0702,-2.0867,-2.1022,-2.1167,-2.1359,-2.1464,-2.1617,-2.1845,-2.2025,-2.2138,-2.2289,-2.2488,-2.2628,-2.2777,-2.2964,-2.315,-2.3335,-2.3446,-2.3629,-2.3897,-2.4043,-2.4298,-2.4683,-2.4684,-2.462,-2.4679,-2.4545,-2.4328,-2.4345,-2.4454,-2.4743,-2.4936,-2.5116,-2.5402,-2.5591,-2.578,-2.5915,-2.5942,-2.6102,-2.6173,-2.6312,-2.6637,-2.6863,-2.6972,-2.7138,-2.7302,-2.7372,-2.7436,-2.7384,-2.7401,-2.7463,-2.7514,-2.764,-2.7715,-2.779,-2.7989,-2.8162,-2.8235,-2.8299,-2.8348,-2.8396,-2.8429,-2.8429,-2.8347,-2.2745,-2.2937,-2.2946,-2.3138,-2.3276,-2.2925,-2.2593,-2.2224,-2.2046,-2.1779,-2.1563,-2.1625,-2.1696,-2.1687,-2.1785,-2.1865,-2.2052,-2.2052,-2.2097,-2.2132,-2.2264,-2.222,-2.2052,-2.1874,-2.1909,-2.2052,-2.2052,-2.2185,-2.2397,-2.2397,-2.253,-2.275,-2.2759,-2.2838,-2.296,-2.3047,-2.3003,-2.3003,-2.3013,-2.3003,-2.3003,-2.3013,-2.3057,-2.3057,-2.3047,-2.3081,-2.2974,-2.2565,-2.2051,-2.1307,-2.0908,-2.0762,-2.0878,-2.0887,-2.0974,-2.1167,-2.1359,-2.1436,-2.154,-2.1807,-2.1987,-2.2073,-2.2262,-2.2375,-2.244,-2.259,-2.2777,-2.2964,-2.3102,-2.3346,-2.3567,-2.3751,-2.397,-2.4236,-2.466,-2.4802,-2.4594,-2.4715,-2.4672,-2.4362,-2.4398,-2.4673,-2.4973,-2.5111,-2.5293,-2.5505,-2.5755,-2.5933,-2.6041,-2.6343,-2.6685,-2.6868,-2.696,-2.7168,-2.7229,-2.74,-2.7555,-2.7705,-2.7721,-2.7644,-2.7495,-2.7494,-2.7503,-2.759,-2.7735,-2.7771,-2.784,-2.8014,-2.8162,-2.8235,-2.8299,-2.8372,-2.8411,-2.842,-2.8444,-2.2644,-2.2695,-2.2703,-2.2846,-2.3088,-2.2982,-2.2769,-2.2527,-2.2233,-2.1897,-2.1596,-2.1509,-2.15,-2.1482,-2.1642,-2.1731,-2.1776,-2.1776,-2.183,-2.183,-2.1874,-2.1865,-2.183,-2.1741,-2.1731,-2.182,-2.182,-2.1909,-2.2185,-2.2185,-2.2264,-2.253,-2.253,-2.252,-2.2564,-2.2608,-2.2564,-2.2564,-2.2574,-2.2608,-2.2608,-2.2608,-2.2706,-2.2882,-2.2882,-2.2969,-2.3062,-2.2691,-2.2285,-2.1758,-2.1299,-2.1064,-2.1105,-2.0879,-2.08,-2.0945,-2.1061,-2.1128,-2.1292,-2.1512,-2.1655,-2.1703,-2.1959,-2.2176,-2.2176,-2.2365,-2.2478,-2.258,-2.274,-2.2927,-2.3161,-2.3335,-2.3666,-2.4164,-2.455,-2.485,-2.492,-2.4967,-2.5024,-2.5182,-2.5213,-2.5326,-2.5484,-2.5688,-2.5857,-2.6047,-2.6197,-2.6385,-2.6408,-2.6521,-2.6844,-2.6819,-2.6922,-2.725,-2.7502,-2.7664,-2.7838,-2.8054,-2.8109,-2.8072,-2.7876,-2.7687,-2.7605,-2.7575,-2.7805,-2.79,-2.7841,-2.788,-2.8014,-2.8137,-2.8235,-2.8299,-2.8372,-2.8396,-2.8396,-2.2241,-2.2241,-2.2241,-2.2333,-2.2485,-2.2585,-2.2479,-2.229,-2.2232,-2.1907,-2.1552,-2.1479,-2.1364,-2.1257,-2.1374,-2.141,-2.141,-2.141,-2.1419,-2.141,-2.141,-2.1508,-2.1651,-2.1687,-2.1687,-2.1687,-2.1696,-2.1785,-2.1919,-2.1919,-2.2052,-2.2264,-2.2264,-2.2318,-2.2441,-2.2397,-2.2397,-2.2388,-2.2397,-2.2397,-2.2397,-2.2397,-2.2485,-2.2618,-2.2618,-2.275,-2.2877,-2.2814,-2.2588,-2.2168,-2.1748,-2.1385,-2.119,-2.0996,-2.085,-2.0819,-2.0858,-2.0984,-2.1061,-2.1244,-2.1359,-2.1436,-2.1655,-2.1807,-2.1883,-2.2111,-2.2252,-2.23,-2.2478,-2.2628,-2.2767,-2.299,-2.3409,-2.3861,-2.4236,-2.455,-2.4909,-2.5028,-2.5182,-2.5359,-2.5535,-2.5653,-2.5758,-2.6027,-2.6188,-2.6324,-2.6476,-2.6587,-2.6642,-2.6817,-2.6948,-2.699,-2.7265,-2.7714,-2.8063,-2.8232,-2.8448,-2.8647,-2.8641,-2.8612,-2.8416,-2.816,-2.821,-2.8204,-2.8102,-2.8045,-2.8096,-2.8037,-2.7865,-2.7989,-2.8113,-2.8241,-2.8345,-2.8501,-2.851,-2.1674,-2.1725,-2.1725,-2.1674,-2.1776,-2.1971,-2.1963,-2.1752,-2.1978,-2.1795,-2.1388,-2.1468,-2.1296,-2.1014,-2.1095,-2.1042,-2.1033,-2.1087,-2.1095,-2.1176,-2.1212,-2.1383,-2.1771,-2.167,-2.167,-2.1752,-2.1769,-2.1842,-2.1979,-2.1951,-2.1949,-2.2147,-2.2154,-2.2178,-2.2239,-2.2264,-2.2299,-2.2255,-2.2255,-2.2255,-2.2264,-2.2264,-2.2309,-2.2344,-2.2432,-2.252,-2.275,-2.2867,-2.2853,-2.2555,-2.2178,-2.1807,-2.1405,-2.1317,-2.1055,-2.0772,-2.079,-2.0858,-2.0906,-2.1051,-2.1167,-2.1205,-2.1359,-2.1464,-2.155,-2.1807,-2.1987,-2.1997,-2.2252,-2.2365,-2.2478,-2.274,-2.3075,-2.3482,-2.3714,-2.4043,-2.4562,-2.4921,-2.5052,-2.5111,-2.5394,-2.55,-2.5688,-2.5875,-2.6131,-2.6154,-2.6383,-2.6548,-2.6663,-2.6835,-2.7102,-2.7341,-2.7767,-2.8309,-2.8611,-2.8866,-2.9112,-2.931,-2.9263,-2.9216,-2.916,-2.9006,-2.9096,-2.9052,-2.8729,-2.8629,-2.8708,-2.8501,-2.8202,-2.8319,-2.8723,-2.8575,-2.8409,-2.8627,-2.8722,-2.1674,-2.1674,-2.1674,-2.1674,-2.1725,-2.1776,-2.1735,-2.1686,-2.152,-2.1509,-2.1394,-2.1139,-2.1081,-2.1136,-2.1056,-2.0997,-2.1023,-2.1041,-2.1148,-2.1467,-2.1476,-2.1671,-2.1855,-2.1652,-2.1645,-2.1853,-2.2108,-2.2318,-2.2529,-2.2519,-2.2511,-2.2272,-2.2272,-2.2143,-2.1957,-2.1983,-2.1865,-2.1865,-2.1874,-2.1909,-2.1909,-2.1909,-2.1998,-2.2132,-2.2309,-2.2432,-2.253,-2.2706,-2.2799,-2.2679,-2.2499,-2.222,-2.2038,-2.1561,-2.12,-2.1025,-2.0781,-2.0673,-2.0693,-2.0858,-2.0945,-2.0984,-2.1128,-2.1282,-2.1282,-2.1474,-2.1617,-2.1693,-2.1959,-2.2229,-2.2444,-2.2483,-2.2837,-2.317,-2.3297,-2.3535,-2.403,-2.4418,-2.473,-2.5016,-2.5147,-2.5253,-2.5347,-2.5606,-2.5793,-2.5945,-2.6188,-2.6418,-2.6624,-2.6816,-2.7053,-2.7289,-2.7656,-2.8085,-2.8379,-2.8716,-2.9131,-2.9446,-2.9549,-2.9668,-2.9608,-2.9551,-2.9503,-2.9391,-2.9201,-2.9193,-2.9301,-2.9247,-2.8997,-2.9196,-2.9275,-2.9117,-2.8976,-2.9032,-2.9056,-2.1318,-2.1318,-2.1318,-2.1326,-2.1318,-2.1471,-2.1522,-2.1489,-2.1485,-2.1412,-2.1362,-2.1107,-2.1064,-2.1114,-2.104,-2.1046,-2.1177,-2.1177,-2.129,-2.1473,-2.1491,-2.1604,-2.1756,-2.169,-2.1735,-2.2053,-2.2295,-2.2543,-2.267,-2.2809,-2.2757,-2.2593,-2.2574,-2.2501,-2.2236,-2.2071,-2.2034,-2.1979,-2.1778,-2.1687,-2.1687,-2.1687,-2.1741,-2.1919,-2.2141,-2.2264,-2.2274,-2.2485,-2.2583,-2.2604,-2.2529,-2.2481,-2.2467,-2.208,-2.168,-2.12,-2.1045,-2.0752,-2.0732,-2.0693,-2.078,-2.08,-2.0945,-2.1012,-2.1089,-2.1244,-2.1359,-2.1438,-2.1734,-2.2141,-2.2631,-2.2879,-2.3062,-2.3332,-2.3525,-2.3782,-2.4069,-2.4289,-2.4465,-2.4778,-2.4981,-2.5123,-2.5253,-2.543,-2.5571,-2.5793,-2.6097,-2.6292,-2.6396,-2.6602,-2.6782,-2.7053,-2.7356,-2.7689,-2.7987,-2.8411,-2.8908,-2.9257,-2.9532,-2.9756,-2.9888,-2.9825,-2.974,-2.9752,-2.9788,-2.9779,-2.9846,-2.9809,-2.9711,-2.9555,-2.9542,-2.9577,-2.9622,-2.9548,-2.9617,-2.0763,-2.0763,-2.0771,-2.0763,-2.0814,-2.1019,-2.1121,-2.1224,-2.142,-2.1358,-2.1213,-2.1155,-2.1056,-2.105,-2.0956,-2.1069,-2.1188,-2.1227,-2.121,-2.1338,-2.1363,-2.1448,-2.1539,-2.1676,-2.1834,-2.2114,-2.2396,-2.2575,-2.2751,-2.2888,-2.3056,-2.2975,-2.2986,-2.2895,-2.2803,-2.2574,-2.2373,-2.2336,-2.2025,-2.1842,-2.1787,-2.1751,-2.1696,-2.1785,-2.1919,-2.2008,-2.2052,-2.223,-2.2362,-2.2353,-2.2397,-2.2417,-2.2447,-2.2395,-2.2214,-2.1444,-2.1416,-2.1211,-2.1006,-2.0909,-2.0899,-2.0801,-2.0968,-2.1066,-2.1174,-2.1331,-2.1469,-2.1568,-2.1818,-2.224,-2.2889,-2.3079,-2.3351,-2.3623,-2.3985,-2.4266,-2.4362,-2.431,-2.4417,-2.4616,-2.4824,-2.4909,-2.5111,-2.5324,-2.5453,-2.5641,-2.5945,-2.6166,-2.627,-2.6408,-2.6602,-2.6782,-2.7053,-2.739,-2.7723,-2.8329,-2.8816,-2.9132,-2.9453,-2.9738,-2.9986,-2.9899,-2.9895,-3.0353,-3.047,-3.0393,-3.0386,-3.0367,-3.0212,-2.9909,-3.0006,-3.0268,-3.0229,-3.0056,-3.0145,-2.0233,-2.0233,-2.0233,-2.0241,-2.0241,-2.0292,-2.0447,-2.0624,-2.0719,-2.0952,-2.1204,-2.0995,-2.0957,-2.1065,-2.0816,-2.0717,-2.0888,-2.097,-2.1021,-2.127,-2.132,-2.1403,-2.1595,-2.1703,-2.1862,-2.2153,-2.2418,-2.2757,-2.3175,-2.3498,-2.3335,-2.3154,-2.3244,-2.3231,-2.3003,-2.2831,-2.2747,-2.2692,-2.2354,-2.2154,-2.2135,-2.1906,-2.1714,-2.1705,-2.1785,-2.1785,-2.183,-2.2008,-2.2141,-2.2141,-2.2318,-2.2394,-2.2393,-2.2327,-2.2248,-2.2123,-2.1882,-2.1648,-2.1543,-2.1633,-2.1681,-2.1711,-2.1633,-2.1693,-2.1743,-2.1866,-2.1888,-2.2028,-2.2159,-2.2462,-2.2544,-2.2941,-2.3053,-2.3245,-2.3591,-2.3974,-2.431,-2.4458,-2.4508,-2.4755,-2.4761,-2.4789,-2.5051,-2.523,-2.5324,-2.5465,-2.5688,-2.5945,-2.6097,-2.6248,-2.6421,-2.6602,-2.6748,-2.7121,-2.7469,-2.8192,-2.8763,-2.9039,-2.9316,-2.9582,-2.9791,-2.9789,-2.9995,-3.0391,-3.0704,-3.0734,-3.0748,-3.0832,-3.0887,-3.0705,-3.0851,-3.0998,-3.0769,-3.0581,-3.0691,-2.0138,-2.0138,-2.0138,-2.0138,-2.0138,-2.0138,-2.0189,-2.0292,-2.03,-2.0506,-2.0723,-2.0707,-2.0881,-2.1127,-2.1063,-2.1056,-2.1089,-2.1156,-2.1263,-2.1469,-2.1494,-2.1544,-2.1666,-2.1674,-2.1776,-2.1929,-2.2155,-2.2579,-2.3188,-2.3429,-2.3421,-2.3323,-2.3408,-2.3358,-2.312,-2.2883,-2.2898,-2.2885,-2.2643,-2.2453,-2.251,-2.2199,-2.1943,-2.1742,-2.1696,-2.1687,-2.1731,-2.1785,-2.1874,-2.1919,-2.1998,-2.2132,-2.2164,-2.2183,-2.2183,-2.2283,-2.2165,-2.2016,-2.1943,-2.1936,-2.1906,-2.1916,-2.1904,-2.1936,-2.1926,-2.1948,-2.2178,-2.2357,-2.2603,-2.2808,-2.3048,-2.3167,-2.3417,-2.3627,-2.3857,-2.4168,-2.4548,-2.4703,-2.4853,-2.4965,-2.4892,-2.4911,-2.5069,-2.5181,-2.5218,-2.5324,-2.5537,-2.5761,-2.6033,-2.6223,-2.6497,-2.6857,-2.7142,-2.7604,-2.7924,-2.8388,-2.8879,-2.9112,-2.9367,-2.9596,-2.9806,-2.9936,-3.0038,-3.0235,-3.0522,-3.089,-3.0911,-3.0924,-3.1189,-3.138,-3.1317,-3.121,-3.1164,-3.1131,-3.1155,-1.9931,-1.9931,-1.9931,-1.9931,-1.9931,-1.9931,-1.9983,-2.0034,-2.0034,-2.0197,-2.0411,-2.0447,-2.0644,-2.0952,-2.1046,-2.114,-2.1369,-2.1277,-2.1218,-2.1218,-2.1226,-2.131,-2.1361,-2.142,-2.142,-2.1471,-2.165,-2.203,-2.2686,-2.3038,-2.3247,-2.3302,-2.3338,-2.3406,-2.3331,-2.309,-2.3041,-2.2956,-2.2745,-2.2643,-2.2595,-2.2362,-2.2017,-2.1689,-2.1598,-2.1553,-2.1499,-2.1508,-2.1553,-2.1553,-2.1597,-2.1687,-2.1874,-2.1963,-2.2026,-2.2155,-2.2227,-2.2144,-2.2074,-2.2113,-2.2191,-2.2211,-2.2136,-2.2158,-2.2187,-2.2305,-2.2324,-2.2559,-2.2775,-2.2992,-2.3219,-2.3584,-2.3747,-2.3963,-2.42,-2.4531,-2.4724,-2.4849,-2.504,-2.5084,-2.5015,-2.5085,-2.5281,-2.5415,-2.546,-2.5803,-2.6021,-2.619,-2.6407,-2.6514,-2.6791,-2.7254,-2.7681,-2.8229,-2.8563,-2.8755,-2.9122,-2.9331,-2.9612,-2.9906,-3.0038,-3.0206,-3.0298,-3.0466,-3.0711,-3.1042,-3.102,-3.0984,-3.1146,-3.1263,-3.138,-3.1407,-3.1316,-3.133,-3.1372,-1.9376,-1.9376,-1.9376,-1.9376,-1.9428,-1.9428,-1.9532,-1.9732,-1.9732,-1.9879,-2.0138,-2.0138,-2.0189,-2.0344,-2.0336,-2.0292,-2.0344,-2.0439,-2.0498,-2.049,-2.049,-2.049,-2.0388,-2.0557,-2.0814,-2.0968,-2.1224,-2.1623,-2.2131,-2.2485,-2.2736,-2.2946,-2.3147,-2.3356,-2.3129,-2.3041,-2.3326,-2.3246,-2.2886,-2.2549,-2.2268,-2.1951,-2.1801,-2.1587,-2.1373,-2.1159,-2.1195,-2.1177,-2.1132,-2.1132,-2.1132,-2.123,-2.1428,-2.1482,-2.1741,-2.2041,-2.2233,-2.2347,-2.2355,-2.2418,-2.2539,-2.2573,-2.2708,-2.2925,-2.2818,-2.2808,-2.2847,-2.2984,-2.3037,-2.3081,-2.3202,-2.3406,-2.3537,-2.3721,-2.398,-2.4239,-2.4498,-2.4734,-2.4924,-2.5131,-2.5022,-2.5284,-2.5568,-2.5647,-2.5811,-2.6179,-2.6494,-2.6609,-2.6808,-2.6919,-2.7127,-2.7594,-2.8163,-2.8683,-2.9067,-2.9282,-2.9529,-2.971,-2.9851,-3.0132,-3.029,-3.0482,-3.0762,-3.0937,-3.1119,-3.1094,-3.103,-3.1006,-3.1057,-3.1324,-3.1723,-3.1663,-3.1467,-3.154,-3.175,-1.9175,-1.9272,-1.9272,-1.9272,-1.9272,-1.9272,-1.9376,-1.948,-1.948,-1.9628,-1.9828,-1.9879,-1.9931,-2.0034,-2.0138,-2.0138,-2.0138,-2.0086,-2.0086,-2.0086,-2.0086,-2.0086,-2.0138,-2.0241,-2.0344,-2.0454,-2.0712,-2.0968,-2.1428,-2.1827,-2.2131,-2.2283,-2.2384,-2.2384,-2.2585,-2.2636,-2.2728,-2.2826,-2.2944,-2.2846,-2.2527,-2.227,-2.1996,-2.1635,-2.1386,-2.1182,-2.1014,-2.0997,-2.0997,-2.0997,-2.0997,-2.1042,-2.1141,-2.1195,-2.1275,-2.141,-2.1526,-2.1837,-2.2325,-2.2485,-2.2574,-2.2627,-2.2794,-2.2931,-2.3057,-2.3091,-2.3091,-2.3091,-2.3091,-2.3091,-2.3091,-2.3188,-2.3363,-2.3503,-2.3721,-2.3894,-2.4153,-2.4497,-2.4723,-2.4883,-2.5061,-2.5308,-2.5534,-2.5723,-2.586,-2.6151,-2.6488,-2.6683,-2.6982,-2.7304,-2.7603,-2.7988,-2.8574,-2.9139,-2.9429,-2.9655,-3.0028,-3.0181,-2.9974,-3.0272,-3.0527,-3.0759,-3.0973,-3.11,-3.1146,-3.1105,-3.1076,-3.1397,-3.1738,-3.1967,-3.2194,-3.2138,-3.2124,-3.2392,-3.2601,-1.8914,-1.9056,-1.9227,-1.9272,-1.9272,-1.9272,-1.9272,-1.9279,-1.9324,-1.9428,-1.9532,-1.9583,-1.9732,-1.9887,-1.9879,-1.9835,-1.9887,-1.9879,-1.9879,-1.9879,-1.9931,-1.9879,-1.9887,-1.9931,-1.9975,-1.9975,-2.03,-2.0557,-2.0755,-2.1062,-2.1361,-2.1674,-2.1878,-2.1827,-2.1776,-2.1979,-2.2173,-2.2325,-2.2619,-2.2605,-2.2388,-2.2241,-2.1935,-2.1609,-2.1325,-2.1081,-2.0828,-2.0618,-2.06,-2.06,-2.0555,-2.0555,-2.0637,-2.0736,-2.0871,-2.1006,-2.1087,-2.1347,-2.1802,-2.2078,-2.2211,-2.2397,-2.2539,-2.275,-2.2882,-2.2916,-2.296,-2.2969,-2.3013,-2.3047,-2.3091,-2.3101,-2.3188,-2.3319,-2.3493,-2.358,-2.3754,-2.41,-2.4358,-2.4541,-2.4755,-2.5073,-2.5367,-2.5628,-2.5888,-2.6152,-2.6434,-2.6736,-2.7198,-2.7633,-2.7973,-2.8325,-2.8691,-2.9195,-2.9476,-2.9846,-3.0305,-3.0519,-3.0319,-3.0396,-3.0652,-3.0869,-3.1037,-3.1143,-3.1267,-3.1704,-3.2007,-3.2258,-3.2466,-3.2424,-3.2434,-3.2783,-3.2935,-3.3175,-3.3299,-1.8422,-1.8527,-1.9063,-1.9272,-1.9272,-1.9272,-1.9272,-1.922,-1.922,-1.9272,-1.9324,-1.9331,-1.9376,-1.9376,-1.9428,-1.9428,-1.9376,-1.9376,-1.9376,-1.9376,-1.9376,-1.9376,-1.9428,-1.9576,-1.9732,-1.9776,-1.999,-2.0138,-2.0181,-2.0388,-2.0901,-2.1573,-2.1412,-2.1573,-2.1623,-2.1573,-2.1725,-2.1827,-2.203,-2.203,-2.182,-2.1662,-2.1419,-2.1178,-2.0639,-2.0176,-2.0182,-2.0017,-1.9916,-1.9907,-1.9891,-1.9936,-2.011,-2.0238,-2.0428,-2.0564,-2.069,-2.0907,-2.1177,-2.1544,-2.1865,-2.2087,-2.2318,-2.2495,-2.2574,-2.2476,-2.2574,-2.2759,-2.2794,-2.2882,-2.3013,-2.3101,-2.3101,-2.3188,-2.3319,-2.3406,-2.3537,-2.3711,-2.397,-2.4196,-2.4454,-2.4796,-2.5073,-2.5337,-2.5865,-2.6152,-2.6685,-2.7049,-2.7522,-2.7977,-2.8285,-2.8606,-2.8827,-2.9147,-2.9342,-2.969,-2.9985,-3.0267,-3.0277,-3.0478,-3.0777,-3.0969,-3.1072,-3.1429,-3.1665,-3.2315,-3.2807,-3.2707,-3.2657,-3.2576,-3.2727,-3.3176,-3.3473,-3.3661,-3.3684,-1.8265,-1.8422,-1.8639,-1.8743,-1.8743,-1.8743,-1.8743,-1.8736,-1.8743,-1.8862,-1.9078,-1.9227,-1.9272,-1.9272,-1.9272,-1.9272,-1.9279,-1.913,-1.9078,-1.8966,-1.8914,-1.8907,-1.9011,-1.9175,-1.9272,-1.9472,-1.9724,-1.9828,-1.9887,-1.9923,-2.0233,-2.0644,-2.0696,-2.0696,-2.0747,-2.1062,-2.1275,-2.1471,-2.1573,-2.1674,-2.165,-2.1618,-2.1428,-2.1164,-2.1057,-2.0512,-2.0173,-1.9992,-1.9802,-1.9645,-1.955,-1.9579,-1.9617,-1.9754,-1.9891,-2.0027,-2.0155,-2.0337,-2.0645,-2.1006,-2.1454,-2.183,-2.2052,-2.2274,-2.2309,-2.2397,-2.2441,-2.253,-2.2583,-2.2662,-2.2891,-2.2935,-2.2969,-2.3091,-2.3188,-2.3242,-2.3373,-2.3493,-2.3667,-2.3894,-2.4163,-2.4421,-2.4711,-2.4999,-2.561,-2.6193,-2.6794,-2.7348,-2.7725,-2.8018,-2.8259,-2.8498,-2.8685,-2.8882,-2.9079,-2.9314,-2.9611,-2.9882,-3.0164,-3.0381,-3.0634,-3.0923,-3.1114,-3.1532,-3.1853,-3.2173,-3.2502,-3.2772,-3.2917,-3.2978,-3.3316,-3.3761,-3.3981,-3.4097,-3.4169,-1.801,-1.816,-1.8153,-1.8265,-1.837,-1.8422,-1.8422,-1.8422,-1.8422,-1.8482,-1.8757,-1.8959,-1.9011,-1.9011,-1.9004,-1.9011,-1.8959,-1.8803,-1.8757,-1.8705,-1.8586,-1.8534,-1.8698,-1.8803,-1.8855,-1.9056,-1.916,-1.9264,-1.9264,-1.9509,-1.9561,-1.9561,-1.9613,-1.9717,-2.0241,-2.0447,-2.0755,-2.096,-2.1105,-2.1208,-2.1216,-2.114,-2.1084,-2.0811,-2.0632,-2.0287,-1.983,-1.9534,-1.9325,-1.914,-1.9074,-1.912,-1.9158,-1.9204,-1.9304,-1.935,-1.9487,-1.9662,-2.011,-2.069,-2.1186,-2.1562,-2.175,-2.1963,-2.2132,-2.222,-2.2176,-2.2309,-2.2309,-2.2397,-2.2671,-2.2671,-2.2794,-2.2916,-2.2969,-2.3067,-2.3188,-2.3319,-2.3406,-2.359,-2.3851,-2.4077,-2.4454,-2.4786,-2.5338,-2.5884,-2.6362,-2.694,-2.7389,-2.7684,-2.7898,-2.8127,-2.8367,-2.8566,-2.8736,-2.9013,-2.9287,-2.9599,-2.9831,-3.0024,-3.0292,-3.0596,-3.0911,-3.1211,-3.1508,-3.1853,-3.216,-3.2425,-3.2954,-3.3526,-3.3788,-3.398,-3.4234,-3.4372,-3.4735,-1.7635,-1.7641,-1.7641,-1.795,-1.8318,-1.837,-1.837,-1.8318,-1.837,-1.8377,-1.8429,-1.8482,-1.8482,-1.8534,-1.8579,-1.8586,-1.8534,-1.8475,-1.8429,-1.8429,-1.8318,-1.8377,-1.8429,-1.8429,-1.8482,-1.8429,-1.8579,-1.8684,-1.8586,-1.8736,-1.8632,-1.8632,-1.8788,-1.9042,-1.9983,-2.0078,-2.013,-2.013,-2.0181,-2.0285,-2.0344,-2.0395,-2.0349,-2.0264,-2.0101,-1.9833,-1.9398,-1.9134,-1.8846,-1.8489,-1.8419,-1.8411,-1.8365,-1.855,-1.8689,-1.8835,-1.9058,-1.9296,-1.9625,-2.0464,-2.097,-2.1248,-2.1383,-2.1562,-2.1687,-2.1776,-2.1874,-2.2043,-2.2087,-2.2176,-2.2309,-2.2441,-2.2574,-2.2706,-2.2803,-2.2891,-2.3013,-2.3144,-2.3276,-2.3373,-2.3503,-2.3721,-2.4143,-2.4615,-2.5126,-2.5591,-2.5999,-2.6487,-2.694,-2.736,-2.7603,-2.7765,-2.8047,-2.8299,-2.8498,-2.8685,-2.8961,-2.9236,-2.9509,-2.9703,-2.987,-3.0139,-3.0482,-3.0836,-3.1174,-3.1471,-3.1767,-3.2082,-3.2638,-3.3171,-3.3695,-3.3982,-3.4298,-3.4582,-3.4783,-1.7589,-1.7589,-1.7589,-1.7687,-1.7845,-1.7845,-1.7845,-1.7898,-1.8062,-1.8115,-1.8167,-1.8318,-1.8422,-1.8422,-1.837,-1.837,-1.837,-1.8167,-1.8115,-1.8115,-1.8003,-1.801,-1.8062,-1.8167,-1.8213,-1.837,-1.8422,-1.837,-1.8422,-1.8318,-1.837,-1.8422,-1.837,-1.8579,-1.8997,-1.9257,-1.9576,-1.9628,-1.9887,-2.0138,-2.0086,-2.0086,-2.0027,-2.0019,-1.9846,-1.955,-1.9079,-1.8818,-1.85,-1.8061,-1.7977,-1.7986,-1.7994,-1.8172,-1.8218,-1.8319,-1.8504,-1.8689,-1.9066,-1.97,-2.0255,-2.0572,-2.097,-2.1203,-2.1472,-2.1472,-2.1607,-2.1785,-2.183,-2.1963,-2.2141,-2.2185,-2.2318,-2.253,-2.2618,-2.275,-2.2925,-2.3057,-2.3188,-2.3276,-2.3373,-2.359,-2.3927,-2.4229,-2.4711,-2.5094,-2.5496,-2.5884,-2.6343,-2.6951,-2.7348,-2.7482,-2.7736,-2.8018,-2.8259,-2.8459,-2.8645,-2.8961,-2.9157,-2.9353,-2.956,-2.9754,-3.0037,-3.0381,-3.0723,-3.1061,-3.1397,-3.1767,-3.2228,-3.2731,-3.3227,-3.3716,-3.4059,-3.4312,-3.4549,-1.7318,-1.7318,-1.7318,-1.7259,-1.7318,-1.7529,-1.7589,-1.7635,-1.7799,-1.7859,-1.7911,-1.8055,-1.8108,-1.8108,-1.8108,-1.816,-1.8108,-1.7957,-1.7852,-1.7859,-1.7687,-1.774,-1.7852,-1.7852,-1.7898,-1.8108,-1.816,-1.8108,-1.8055,-1.8101,-1.8101,-1.8055,-1.8108,-1.8108,-1.8318,-1.8632,-1.8945,-1.9056,-1.9257,-1.9406,-1.9406,-1.9406,-1.9465,-1.9406,-1.9332,-1.9213,-1.8857,-1.8553,-1.8308,-1.7871,-1.7641,-1.7621,-1.7613,-1.766,-1.7707,-1.78,-1.8087,-1.8272,-1.8743,-1.9066,-1.9571,-1.9882,-2.0419,-2.0916,-2.1195,-2.1239,-2.1383,-2.1517,-2.1562,-2.1741,-2.1919,-2.1963,-2.2097,-2.2274,-2.2397,-2.253,-2.2794,-2.2925,-2.3057,-2.3144,-2.3232,-2.345,-2.3677,-2.3894,-2.4239,-2.4583,-2.4956,-2.5359,-2.5791,-2.6385,-2.6951,-2.7156,-2.7371,-2.7644,-2.7938,-2.8219,-2.8419,-2.8657,-2.8843,-2.904,-2.9275,-2.9521,-2.9728,-2.996,-3.0305,-3.0685,-3.1048,-3.1458,-3.19,-3.2264,-3.2638,-3.3157,-3.3716,-3.4025,-3.4312,-1.6723,-1.667,-1.667,-1.6723,-1.6783,-1.7265,-1.7536,-1.7589,-1.7589,-1.7628,-1.7641,-1.7635,-1.7687,-1.7641,-1.7635,-1.7687,-1.7687,-1.7687,-1.7635,-1.7635,-1.7635,-1.7635,-1.7635,-1.7641,-1.774,-1.7694,-1.7687,-1.7793,-1.7635,-1.774,-1.774,-1.7635,-1.7641,-1.7635,-1.7793,-1.795,-1.8265,-1.8482,-1.8639,-1.8736,-1.8788,-1.8632,-1.8684,-1.8736,-1.8648,-1.8537,-1.8223,-1.7889,-1.7541,-1.716,-1.6845,-1.6739,-1.673,-1.6871,-1.7052,-1.738,-1.78,-1.8087,-1.8381,-1.8651,-1.892,-1.9325,-1.9828,-2.0411,-2.0826,-2.0961,-2.115,-2.1293,-2.1428,-2.1517,-2.1651,-2.1741,-2.183,-2.2008,-2.2097,-2.2362,-2.2618,-2.2794,-2.2925,-2.3013,-2.3101,-2.3276,-2.348,-2.3697,-2.4106,-2.4303,-2.4714,-2.5134,-2.5541,-2.5875,-2.6407,-2.6757,-2.6962,-2.7237,-2.7563,-2.7846,-2.8179,-2.8367,-2.8566,-2.8752,-2.904,-2.9248,-2.9443,-2.9677,-2.996,-3.0305,-3.0798,-3.1161,-3.1495,-3.1877,-3.2205,-3.2816,-3.3403,-3.375,-3.3991,-1.667,-1.667,-1.667,-1.667,-1.6723,-1.6889,-1.7107,-1.7331,-1.7483,-1.7589,-1.7589,-1.7589,-1.7536,-1.7589,-1.7589,-1.7589,-1.7589,-1.7589,-1.7641,-1.7589,-1.7529,-1.7589,-1.7589,-1.7529,-1.7589,-1.7582,-1.7582,-1.7536,-1.7582,-1.7582,-1.743,-1.7331,-1.7331,-1.7213,-1.7153,-1.7153,-1.7582,-1.7957,-1.8167,-1.8272,-1.8318,-1.8318,-1.8318,-1.8318,-1.8318,-1.8157,-1.7958,-1.763,-1.7316,-1.7023,-1.6756,-1.6595,-1.6636,-1.6683,-1.6817,-1.7066,-1.7387,-1.7613,-1.7916,-1.8187,-1.8458,-1.8781,-1.9142,-1.9691,-2.0238,-2.0645,-2.0826,-2.1015,-2.1203,-2.1338,-2.1517,-2.1607,-2.1696,-2.183,-2.1963,-2.2141,-2.2451,-2.2627,-2.2715,-2.2945,-2.3033,-2.3262,-2.3447,-2.3792,-2.4172,-2.4245,-2.449,-2.4928,-2.5271,-2.5604,-2.5917,-2.6313,-2.655,-2.6839,-2.7144,-2.7429,-2.7805,-2.8127,-2.8287,-2.851,-2.8861,-2.9098,-2.9221,-2.9594,-3.0119,-3.0432,-3.0685,-3.1026,-3.1345,-3.1535,-3.189,-3.253,-3.3065,-3.3368,-3.3681,-1.6099,-1.6211,-1.6205,-1.6258,-1.6418,-1.6471,-1.6696,-1.6908,-1.7113,-1.7265,-1.7265,-1.7206,-1.7265,-1.7206,-1.7206,-1.7213,-1.7213,-1.716,-1.716,-1.7213,-1.7259,-1.7213,-1.7213,-1.7259,-1.7206,-1.7259,-1.7371,-1.7325,-1.7318,-1.7265,-1.7113,-1.7001,-1.7008,-1.6895,-1.6783,-1.6836,-1.7001,-1.7371,-1.7687,-1.7957,-1.8062,-1.8055,-1.8055,-1.8108,-1.8055,-1.7984,-1.7798,-1.7461,-1.7067,-1.6821,-1.6574,-1.6305,-1.6305,-1.6353,-1.6588,-1.6784,-1.6911,-1.7239,-1.7527,-1.7667,-1.8032,-1.8404,-1.8596,-1.905,-1.9554,-2.0011,-2.0374,-2.0645,-2.0934,-2.1167,-2.1347,-2.1482,-2.1607,-2.1687,-2.183,-2.1963,-2.2185,-2.2362,-2.2593,-2.2832,-2.3051,-2.33,-2.3619,-2.3983,-2.4305,-2.4441,-2.4676,-2.4956,-2.5168,-2.5315,-2.5636,-2.6021,-2.6229,-2.6437,-2.6745,-2.7062,-2.7389,-2.7725,-2.7978,-2.8267,-2.8667,-2.9112,-2.9475,-2.9957,-3.048,-3.0747,-3.0996,-3.1022,-3.1239,-3.145,-3.1591,-3.194,-3.2472,-3.2966,-3.3297,-1.5208,-1.5482,-1.5482,-1.5636,-1.5838,-1.6105,-1.6217,-1.6271,-1.6524,-1.6677,-1.6736,-1.6723,-1.6776,-1.6836,-1.6836,-1.6836,-1.6836,-1.6836,-1.6836,-1.673,-1.6836,-1.6836,-1.6836,-1.6723,-1.6882,-1.6889,-1.6948,-1.706,-1.6836,-1.6783,-1.6836,-1.6677,-1.6677,-1.663,-1.6518,-1.6518,-1.663,-1.6842,-1.706,-1.7272,-1.7477,-1.7529,-1.7529,-1.7529,-1.7529,-1.7489,-1.7363,-1.7056,-1.6607,-1.6414,-1.6171,-1.5763,-1.5879,-1.5981,-1.6258,-1.6494,-1.6588,-1.6817,-1.7052,-1.7239,-1.752,-1.7893,-1.8265,-1.8496,-1.8912,-1.9509,-1.992,-2.0283,-2.0572,-2.0888,-2.1069,-2.1347,-2.1517,-2.1607,-2.1741,-2.183,-2.1963,-2.226,-2.2669,-2.2968,-2.3384,-2.3644,-2.3916,-2.4291,-2.4601,-2.475,-2.4897,-2.5127,-2.5214,-2.5223,-2.5453,-2.5796,-2.5928,-2.6137,-2.6396,-2.6704,-2.7021,-2.7319,-2.7632,-2.8145,-2.8643,-2.9203,-2.9779,-3.0208,-3.0664,-3.1148,-3.1405,-3.1377,-3.1306,-3.1422,-3.1494,-3.1431,-3.1807,-3.2372,-3.2789,-1.5041,-1.5148,-1.5148,-1.5148,-1.5256,-1.5583,-1.569,-1.569,-1.5945,-1.6311,-1.6624,-1.667,-1.6677,-1.6624,-1.6624,-1.6624,-1.6624,-1.6571,-1.667,-1.6624,-1.6624,-1.6571,-1.6677,-1.6571,-1.6624,-1.6723,-1.6783,-1.6743,-1.6683,-1.6624,-1.6577,-1.6424,-1.6371,-1.6311,-1.6205,-1.6152,-1.6258,-1.6424,-1.653,-1.669,-1.6889,-1.6889,-1.6889,-1.6942,-1.6942,-1.6995,-1.682,-1.6478,-1.6188,-1.5964,-1.5551,-1.5408,-1.554,-1.5642,-1.5879,-1.6218,-1.6265,-1.6494,-1.6683,-1.6817,-1.7059,-1.7333,-1.7652,-1.7893,-1.8311,-1.9004,-1.9509,-1.9882,-2.0246,-2.0564,-2.0835,-2.1159,-2.1437,-2.1517,-2.1616,-2.1696,-2.1839,-2.2257,-2.2732,-2.3176,-2.3679,-2.4026,-2.429,-2.4551,-2.4851,-2.5053,-2.5194,-2.5351,-2.5371,-2.5396,-2.5458,-2.5695,-2.5647,-2.5835,-2.6085,-2.6376,-2.6667,-2.7156,-2.7571,-2.8098,-2.8698,-2.9481,-3.0254,-3.0455,-3.0799,-3.1294,-3.1646,-3.1577,-3.158,-3.1523,-3.1384,-3.1302,-3.1279,-3.168,-3.2092,-1.439,-1.4659,-1.4874,-1.5041,-1.5041,-1.5202,-1.5261,-1.5315,-1.5416,-1.5678,-1.5986,-1.6205,-1.6365,-1.6365,-1.6365,-1.6365,-1.6365,-1.6358,-1.6305,-1.6311,-1.6358,-1.6311,-1.6365,-1.6365,-1.6311,-1.6365,-1.6358,-1.6365,-1.6471,-1.6365,-1.6211,-1.6158,-1.6105,-1.6051,-1.5885,-1.5945,-1.5998,-1.6111,-1.6164,-1.6211,-1.6411,-1.6518,-1.667,-1.667,-1.6677,-1.6677,-1.6545,-1.6228,-1.5986,-1.5763,-1.5418,-1.523,-1.5315,-1.5315,-1.5499,-1.5737,-1.5927,-1.6076,-1.6305,-1.6447,-1.6595,-1.6864,-1.7145,-1.7441,-1.766,-1.8303,-1.8773,-1.9196,-1.9882,-2.0246,-2.0518,-2.0835,-2.1159,-2.1347,-2.1509,-2.1626,-2.1951,-2.2425,-2.2895,-2.3444,-2.3923,-2.4435,-2.474,-2.5088,-2.535,-2.5361,-2.5505,-2.5599,-2.5613,-2.5545,-2.561,-2.5695,-2.5683,-2.5509,-2.5559,-2.5939,-2.634,-2.6853,-2.7504,-2.8326,-2.9048,-3.0,-3.0709,-3.0925,-3.1193,-3.1619,-3.1824,-3.1801,-3.1619,-3.1481,-3.134,-3.1203,-3.1123,-3.1063,-3.1408,-1.3635,-1.4116,-1.4552,-1.4767,-1.4826,-1.4874,-1.4934,-1.4987,-1.4982,-1.5035,-1.5143,-1.5624,-1.5731,-1.5785,-1.5779,-1.5838,-1.5838,-1.5945,-1.5891,-1.5939,-1.5939,-1.6045,-1.6045,-1.5939,-1.5992,-1.5992,-1.5992,-1.6105,-1.6264,-1.6105,-1.5992,-1.5885,-1.5885,-1.5885,-1.5885,-1.5885,-1.5945,-1.5945,-1.5945,-1.5939,-1.6099,-1.6365,-1.6465,-1.6571,-1.663,-1.6577,-1.6413,-1.6174,-1.5916,-1.5544,-1.5206,-1.5076,-1.5029,-1.5077,-1.522,-1.5404,-1.5594,-1.5784,-1.6028,-1.6123,-1.6312,-1.6548,-1.6791,-1.7019,-1.7239,-1.7621,-1.8094,-1.8612,-1.9304,-1.9899,-2.0164,-2.0518,-2.0888,-2.1266,-2.1446,-2.169,-2.2126,-2.2566,-2.3093,-2.3663,-2.4221,-2.4755,-2.5159,-2.5508,-2.5635,-2.5654,-2.5723,-2.5868,-2.5915,-2.5791,-2.5718,-2.5778,-2.5809,-2.5602,-2.5465,-2.5668,-2.6149,-2.6853,-2.7595,-2.8512,-2.9404,-3.0203,-3.0849,-3.1368,-3.1668,-3.1833,-3.2,-3.2031,-3.1821,-3.1489,-3.1347,-3.1223,-3.0894,-3.0854,-3.0875,-1.3369,-1.3472,-1.3581,-1.3748,-1.3964,-1.4223,-1.4493,-1.4708,-1.4874,-1.5041,-1.4934,-1.5041,-1.5148,-1.5196,-1.5196,-1.5309,-1.5577,-1.5583,-1.5737,-1.5891,-1.5838,-1.5891,-1.5885,-1.5885,-1.5885,-1.5885,-1.5885,-1.5939,-1.6051,-1.5945,-1.5885,-1.5885,-1.5885,-1.5885,-1.5885,-1.5885,-1.5885,-1.5885,-1.5885,-1.5885,-1.5885,-1.6045,-1.5998,-1.6051,-1.6051,-1.6051,-1.596,-1.5747,-1.5491,-1.5167,-1.4832,-1.4739,-1.4736,-1.479,-1.4933,-1.5118,-1.5302,-1.5499,-1.5642,-1.5832,-1.6021,-1.6218,-1.6414,-1.6548,-1.6838,-1.7236,-1.7626,-1.7875,-1.8566,-1.9345,-1.975,-2.0164,-2.0564,-2.1077,-2.1383,-2.1808,-2.2282,-2.275,-2.3251,-2.388,-2.4477,-2.5006,-2.5412,-2.5645,-2.5635,-2.5684,-2.5684,-2.5771,-2.582,-2.5817,-2.5813,-2.5829,-2.5853,-2.6011,-2.6012,-2.5815,-2.6173,-2.6889,-2.7712,-2.8667,-2.9521,-3.0256,-3.0847,-3.1217,-3.154,-3.1721,-3.1904,-3.2017,-3.1957,-3.1675,-3.1489,-3.1269,-3.0887,-3.065,-3.0663]},{"header":{"parameterUnit":"m.s-1","parameterCategory":1,"la1":31.0,"la2":29.5877,"lo1":-88.7671,"lo2":-86.6584,"dy":0.0162,"dx":0.0185,"nx":115,"ny":88,"refTime":"2023-04-26T12:00:00:Z","depth":0,"parameterNumber":3,"parameterNumberName":"V-component_of_WINDS"},"data":[0.0,0.0,0.0,0.0,0.0,0.0,0.0,0.0,0.0,0.0,0.0,0.0,0.0,0.0,0.0,0.0,0.0,0.0,0.0,0.0,0.0,0.0,0.0,0.0,0.0,0.0,0.0,0.0,0.0,0.0,0.0,0.0,0.0,0.0,0.0,0.0,0.0,0.0,0.0,0.0,0.0,0.0,0.0,0.0,0.0,0.0,0.0,0.0,0.0,0.0,0.0,0.0,0.0,0.0,0.0,0.0,0.0,0.0,0.0,0.0,0.0,0.0,0.0,0.0,0.0,0.0,0.0,0.0,0.0,0.0,0.0,0.0,0.0,0.0,0.0,0.0,0.0,0.0,0.0,0.0,0.0,0.0,0.0,0.0,0.0,0.0,0.0,0.0,0.0,0.0,0.0,0.0,0.0,0.0,0.0,0.0,0.0,0.0,0.0,0.0,0.0,0.0,0.0,0.0,0.0,0.0,0.0,0.0,0.0,0.0,0.0,0.0,0.0,0.0,0.0,0.0,0.0,0.0,0.0,0.0,0.0,0.0,0.0,0.0,0.0,0.0,0.0,0.0,0.0,0.0,0.0,0.0,0.0,0.0,0.0,0.0,0.0,0.0,0.0,0.0,0.0,0.0,0.0,0.0,0.0,0.0,0.0,0.0,0.0,0.0,0.0,0.0,0.0,0.0,0.0,0.0,0.0,0.0,0.0,0.0,0.0,0.0,0.0,0.0,0.0,0.0,0.0,0.0,0.0,0.0,0.0,0.0,0.0,0.0,0.0,0.0,0.0,0.0,0.0,0.0,0.0,0.0,0.0,0.0,0.0,0.0,0.0,0.0,0.0,0.0,0.0,0.0,0.0,0.0,0.0,0.0,0.0,0.0,0.0,0.0,0.0,0.0,0.0,0.0,0.0,0.0,0.0,0.0,0.0,0.0,0.0,0.0,0.0,0.0,0.0,0.0,0.0,0.0,0.0,0.0,0.0,0.0,0.0,0.0,0.0,0.0,0.0,0.0,0.0,0.0,0.0,0.0,0.0,0.0,0.0,0.0,0.0,0.0,0.0,0.0,0.0,0.0,0.0,0.0,0.0,0.0,0.0,0.0,0.0,0.0,0.0,0.0,0.0,0.0,0.0,0.0,0.0,0.0,0.0,0.0,0.0,0.0,0.0,0.0,0.0,0.0,0.0,0.0,0.0,0.0,0.0,0.0,0.0,0.0,0.0,0.0,0.0,0.0,0.0,0.0,0.0,0.0,0.0,0.0,0.0,0.0,0.0,0.0,0.0,0.0,0.0,0.0,0.0,0.0,0.0,0.0,0.0,0.0,0.0,0.0,0.0,0.0,0.0,0.0,0.0,0.0,0.0,0.0,0.0,0.0,0.0,0.0,0.0,0.0,0.0,0.0,0.0,0.0,0.0,0.0,0.0,0.0,0.0,0.0,0.0,0.0,0.0,0.0,0.0,0.0,0.0,0.0,0.0,0.0,0.0,0.0,0.0,0.0,0.0,0.0,0.0,0.0,0.0,0.0,0.0,0.0,0.0,0.0,0.0,0.0,0.0,0.0,0.0,0.0,0.0,0.0,0.0,0.0,0.0,0.0,0.0,0.0,0.0,0.0,0.0,0.0,0.0,0.0,0.0,0.0,0.0,0.0,0.0,0.0,0.0,0.0,0.0,0.0,0.0,0.0,0.0,0.0,0.0,0.0,0.0,0.0,0.0,0.0,0.0,0.0,0.0,0.0,0.0,0.0,0.0,0.0,0.0,0.0,0.0,0.0,0.0,0.0,0.0,0.0,0.0,0.0,0.0,0.0,0.0,0.0,0.0,0.0,0.0,0.0,0.0,0.0,0.0,0.0,0.0,0.0,0.0,0.0,0.0,0.0,0.0,0.0,0.0,0.0,0.0,0.0,0.0,0.0,0.0,0.0,0.0,0.0,0.0,0.0,0.0,0.0,0.0,0.0,0.0,0.0,0.0,0.0,0.0,0.0,0.0,0.0,0.0,0.0,0.0,0.0,0.0,0.0,0.0,0.0,0.0,0.0,0.0,0.0,0.0,0.0,0.0,0.0,0.0,0.0,0.0,0.0,0.0,0.0,0.0,0.0,0.0,0.0,0.0,0.0,0.0,0.0,0.0,0.0,0.0,0.0,0.0,0.0,0.0,0.0,0.0,0.0,0.0,0.0,0.0,0.0,0.0,0.0,0.0,0.0,0.0,0.0,0.0,0.0,0.0,0.0,0.0,0.0,0.0,0.0,0.0,0.0,0.0,0.0,0.0,0.0,0.0,0.0,0.0,0.0,0.0,0.0,0.0,0.0,0.0,0.0,0.0,0.0,0.0,0.0,0.0,0.0,0.0,0.0,0.0,0.0,0.0,0.0,0.0,0.0,0.0,0.0,0.0,0.0,0.0,0.0,0.0,0.0,0.0,0.0,0.0,0.0,0.0,0.0,0.0,0.0,0.0,0.0,0.0,0.0,0.0,0.0,0.0,0.0,0.0,0.0,0.0,0.0,0.0,0.0,0.0,0.0,0.0,0.0,0.0,0.0,0.0,0.0,0.0,0.0,0.0,0.0,0.0,0.0,0.0,0.0,0.0,0.0,0.0,0.0,0.0,0.0,0.0,0.0,0.0,0.0,0.0,0.0,0.0,0.0,0.0,0.0,0.0,0.0,0.0,0.0,0.0,0.0,0.0,0.0,0.0,0.0,0.0,0.0,0.0,0.0,0.0,0.0,0.0,0.0,0.0,0.0,0.0,0.0,0.0,0.0,0.0,0.0,0.0,0.0,0.0,0.0,0.0,0.0,0.0,0.0,0.0,0.0,0.0,0.0,0.0,0.0,0.0,0.0,0.0,0.0,0.0,0.0,0.0,0.0,0.0,0.0,0.0,0.0,0.0,0.0,0.0,0.0,0.0,0.0,0.0,0.0,0.0,0.0,0.0,0.0,0.0,0.0,0.0,0.0,0.0,0.0,0.0,0.0,0.0,0.0,0.0,0.0,0.0,0.0,0.0,0.0,0.0,0.0,0.0,0.0,0.0,0.0,0.0,0.0,0.0,0.0,0.0,0.0,0.0,0.0,0.0,0.0,0.0,0.0,0.0,0.0,0.0,0.0,0.0,0.0,0.0,0.0,0.0,0.0,0.0,0.0,0.0,0.0,0.0,0.0,0.0,0.0,0.0,0.0,0.0,0.0,0.0,0.0,0.0,0.0,0.0,0.0,0.0,0.0,0.0,0.0,0.0,0.0,0.0,0.0,0.0,0.0,0.0,0.0,0.0,0.0,0.0,0.0,0.0,0.0,0.0,0.0,0.0,0.0,0.0,0.0,0.0,0.0,0.0,0.0,0.0,0.0,0.0,0.0,0.0,0.0,0.0,0.0,0.0,0.0,0.0,0.0,0.0,0.0,0.0,0.0,0.0,0.0,0.0,0.0,0.0,0.0,0.0,0.0,0.0,0.0,0.0,0.0,0.0,0.0,0.0,0.0,0.0,0.0,0.0,0.0,0.0,0.0,0.0,0.0,0.0,0.0,0.0,0.0,0.0,0.0,0.0,0.0,0.0,0.0,0.0,0.0,0.0,0.0,0.0,0.0,0.0,0.0,0.0,0.0,0.0,0.0,0.0,0.0,0.0,0.0,0.0,0.0,0.0,0.0,0.0,0.0,0.0,0.0,0.0,0.0,0.0,0.0,0.0,0.0,0.0,0.0,0.0,0.0,0.0,0.0,0.0,0.0,0.0,0.0,0.0,0.0,0.0,0.0,0.0,0.0,0.0,0.0,0.0,0.0,0.0,0.0,0.0,0.0,0.0,0.0,0.0,0.0,0.0,0.0,0.0,0.0,0.0,0.0,0.0,0.0,0.0,0.0,0.0,0.0,0.0,0.0,0.0,0.0,0.0,0.0,0.0,0.0,0.0,0.0,0.0,0.0,0.0,0.0,0.0,0.0,0.0,0.0,0.0,0.0,0.0,0.0,0.0,0.0,0.0,0.0,0.0,0.0,0.0,0.0,0.0,0.0,0.0,0.0,0.0,0.0,0.0,0.0,0.0,0.0,0.0,0.0,0.0,0.0,0.0,0.0,0.0,0.0,0.0,0.0,0.0,0.0,0.0,0.0,0.0,0.0,0.0,0.0,0.0,0.0,0.0,0.0,0.0,0.0,0.0,0.0,0.0,0.0,0.0,0.0,0.0,0.0,0.0,0.0,0.0,0.0,0.0,0.0,0.0,0.0,0.0,0.0,0.0,0.0,0.0,0.0,0.0,0.0,0.0,0.0,0.0,0.0,0.1297,0.0,0.0,0.0,0.0,0.0,0.0,0.0,0.0,0.0,0.0,0.0,0.0,0.0,0.0,0.0,0.0,0.0,0.0,0.0,0.0,0.0,0.0,0.0,0.0,0.0,0.0,0.0,0.0,0.0,0.0,0.0,0.0,0.0,0.0,0.0,0.0,0.0,0.0,0.0,0.0,0.0,0.0,0.0,0.0,0.0,0.0,0.0,0.0,0.0,0.0,0.0,0.0,0.0,0.0,0.0,0.0,0.0,0.0,0.0,0.0,0.0,0.0,0.0,0.0,0.0,0.0,0.0,0.0,0.0,0.0,0.0,0.0,0.0,0.0,0.0,0.0,0.0,0.0,0.0,0.0,0.0,0.0,0.0,0.0,0.0,0.0,0.0,0.0,0.0,0.0,0.0,0.0,0.0,0.0,0.0,0.0,0.0,0.0,0.0,0.0,0.0,0.0,0.0,0.0,0.0,0.0,0.0,0.0,0.0,0.0,0.3201,0.2544,0.2036,0.173,0.172,0.0,0.0,0.0,0.0,0.0,0.0,0.0,0.0,0.0,0.0,0.0,0.0,0.0,0.0,0.0,0.0,0.0,0.0,0.0,0.0,0.0,0.0,0.0,0.0,0.0,0.0,0.0,0.0,0.0,0.0,0.0,0.0,0.0,0.0,0.0,0.0,0.0,0.0,0.0,0.0,0.0,0.0,0.0,0.0,0.0,0.0,0.0,0.0,0.0,0.0,0.0,0.0,0.0,0.0,0.0,0.0,0.0,0.0,0.0,0.0,0.0,0.0,0.0,0.0,0.0,0.0,0.0,0.0,0.0,0.0,0.0,0.0,0.0,0.0,0.0,0.0,0.0,0.0,0.0,0.0,0.0,0.0,0.0,0.0,0.0,0.0,0.0,0.0,0.0,0.0,0.0,0.0,0.0,0.0,0.0,0.0,0.0,0.0,0.0,0.0,0.0,0.0,0.0,0.0,0.0,0.0,0.0,0.0,0.0,0.0,0.0,0.0,0.2565,0.2348,0.2369,0.0,0.0,0.0,0.0,0.0,0.0,0.0,0.0,0.0,0.0,0.0,0.0,0.0,0.0,0.0,0.0,0.0,0.0,0.0,0.0,0.0,0.0,0.0,0.0,0.0,0.0,0.0,0.0,0.0,0.0,0.0,0.0,0.0,0.0,0.0,0.0,0.0,0.0,0.0,0.0,0.0,0.0,0.0,0.0,0.0,0.0,0.0,0.0,0.0,0.0,0.0,0.0,0.0,0.0,0.0,0.0,0.0,0.0,0.0,0.0,0.0,0.0,0.0,0.0,0.0,0.0,0.0,0.0,0.0,0.0,0.0,0.0,0.0,0.0,0.0,0.0,0.0,0.0,0.0,0.0,0.0,0.0,0.0,0.0,0.0,0.0,0.0,0.0,0.0,0.0,0.0,0.0,0.0,0.0,0.0,0.0,0.0,0.0,0.0,0.0,0.0,0.0,0.0,0.0,0.0,0.0,0.0,0.0,0.0,0.0,0.4008,0.328,0.3031,0.0,0.3289,0.0,0.0,0.0,0.0,0.0,0.0,0.0,0.0,0.0,0.0,0.0,0.0,0.0,0.0,0.0,0.0,0.0,0.0,0.0,0.0,0.0,0.0,0.0,0.0,0.0,0.0,0.0,0.0,0.0,0.0,0.0,0.0,0.0,0.0,0.0,0.0,0.0,0.0,0.0,0.0,0.0,0.0,0.0,0.0,0.0,0.0,0.0,0.0,0.0,0.0,0.0,0.0,0.0,0.0,0.0,0.0,0.0,0.0,0.0,0.0,0.0,0.0,0.0,0.0,0.0,0.0,0.0,0.0,0.0,0.0,0.0,0.0,0.0,0.0,0.0,0.0,0.0,0.0,0.0,0.0,0.0,0.0,0.0,0.0,0.0,0.0,0.0,0.0,0.0,0.0,0.0,0.0,0.0,0.0,0.0,0.0,0.0,0.0,0.0,0.0,0.0,0.0,0.0,0.0,0.0,0.0,0.0,0.0,0.0,0.0,0.4305,0.3772,0.3593,0.36,0.0,0.0,0.0,0.0,0.0,0.0,0.0,0.0,0.0,0.0,0.0,0.0,0.0,0.0,0.0,0.0,0.0,0.0,0.0,0.0,0.0,0.0,0.0,0.0,0.0,0.0,0.0,0.0,0.0,0.0,0.0,0.0,0.0,0.0,0.0,0.0,0.0,0.0,0.0,0.0,0.0,0.0,0.0,0.0,0.0,0.0,0.0,0.0,0.0,0.0,0.0,0.0,0.0,0.0,0.0,0.0,0.0,0.0,0.0,0.0,0.0,0.0,0.0,0.0,0.0,0.0,0.0,0.0,0.0,0.0,0.0,0.0,0.0,0.0,0.0,0.0,0.0,0.0,0.0,0.0,0.0,0.0,0.0,0.0,0.0,0.0,0.0,0.0,0.0,0.0,0.0,0.0,0.0,0.0,0.0,0.0,0.0,0.0,0.0,0.0,0.0,0.0,0.0,0.0,0.0,0.0,0.0,0.0,0.0,0.0,0.5365,0.4636,0.4118,0.4002,0.4124,0.4364,0.0,0.0,0.0,0.0,0.0,0.0,0.0,0.0,0.0,0.0,0.0,0.0,0.0,0.0,0.0,0.0,0.0,0.0,0.0,0.0,0.0,0.0,0.0,0.0,0.0,0.0,0.0,0.0,0.0,0.0,0.0,0.0,0.0,0.0,0.0,0.0,0.0,0.0,0.0,0.0,0.0,0.0,0.0,0.0,0.0,0.0,0.0,0.0,0.0,0.0,0.0,0.0,0.0,0.0,0.0,0.0,0.0,0.0,0.0,0.0,0.0,0.0,0.0,0.0,0.0,0.0,0.0,0.0,0.0,0.0,0.0,0.0,0.0,0.0,0.0,0.0,0.0,0.0,0.0,0.0,0.0,0.0,0.0,0.0,0.0,0.0,0.0,0.0,0.0,0.0,0.0,0.0,0.0,0.0,0.0,0.0,0.0,0.0,0.0,0.0,0.0,0.0,0.0,0.0,0.0,0.0,0.0,0.0,0.6609,0.5783,0.4949,0.4084,0.431,0.4548,0.0,0.0,0.0,0.0,0.0,0.0,0.0,0.0,0.0,0.0,0.0,0.0,0.0,0.0,0.0,0.0,0.0,0.0,0.0,0.0,0.0,0.0,0.0,0.0,0.0,0.0,0.0,0.0,0.0,0.0,0.0,0.0,0.0,0.0,0.0,0.0,0.0,0.0,0.0,0.0,0.0,0.0,0.0,0.0,0.0,0.0,0.0,0.0,0.0,0.0,0.0,0.0,0.0,0.0,0.0,0.0,0.0,0.0,0.0,0.0,0.0,0.0,0.0,0.0,0.0,0.0,0.0,0.0,0.0,0.0,0.0,0.0,0.0,0.0,0.0,0.0,0.0,0.0,0.0,0.0,0.0,0.0,0.0,0.0,0.0,0.0,0.0,0.0,0.0,0.0,0.0,0.0,0.0,0.0,0.0,0.0,0.0,0.0,0.0,0.0,0.0,0.0,0.0,0.0,0.0,0.0,0.0,0.0,0.0,0.7178,0.6142,0.5218,0.4503,0.4829,0.506,0.0,0.0,0.0,0.0,0.0,0.0,0.0,0.0,0.0,0.0,0.0,0.0,0.0,0.0,0.0,0.0,0.0,0.0,0.0,0.0,0.0,0.0,0.0,0.0,0.0,0.0,0.0,0.0,0.0,0.0,0.0,0.0,0.0,0.0,0.0,0.0,0.0,0.0,0.0,0.0,0.0,0.0,0.0,0.0,0.0,0.0,0.0,0.0,0.0,0.0,0.0,0.0,0.0,0.0,0.0,0.0,0.0,0.0,0.0,0.0,0.0,0.0,0.0,0.0,0.0,0.0,0.0,0.0,0.0,0.0,0.0,0.0,0.0,0.0,0.0,0.0,0.0,0.0,0.0,0.0,0.0,0.0,0.0,0.0,0.0,0.0,0.0,0.0,0.0,0.0,0.0,0.0,0.0,0.0,0.0,0.0,0.0,0.0,0.0,0.0,0.0,0.0,0.0,0.0,0.0,0.0,0.0,0.0,0.0,0.717,0.0,0.5452,0.493,0.5262,0.558,0.0,0.0,0.0,0.0,0.0,0.0,0.0,0.0,0.0,0.0,0.0,0.0,0.0,0.0,0.0,0.0,0.0,0.0,0.0,0.0,0.0,0.0,0.0,0.0,0.0,0.0,0.0,0.0,0.0,0.0,0.0,0.0,0.0,0.0,0.0,0.0,0.0,0.0,0.0,0.0,0.0,0.0,0.0,0.0,0.0,0.0,0.0,0.0,0.0,0.0,0.0,0.0,0.0,0.0,0.0,0.0,0.0,0.0,0.0,0.0,0.0,0.0,0.0,0.0,0.0,0.0,0.0,0.0,0.0,0.0,0.0,0.0,0.0,0.0,0.0,0.0,0.0,0.0,0.0,0.0,0.0,0.0,0.0,0.0,0.0,0.0,0.0,0.0,0.0,0.0,0.0,0.0,0.0,0.0,0.0,0.0,0.0,0.0,0.0,0.0,0.0,0.0,0.0,0.0,0.0,0.0,0.0,0.0,0.8107,0.6514,0.5991,0.5626,0.5246,0.5681,0.6106,0.0,0.0,0.0,0.0,0.0,0.0,0.0,0.0,0.0,0.0,0.0,0.0,0.0,0.0,0.0,0.0,0.0,0.0,0.0,0.0,0.0,0.0,0.0,0.0,0.0,0.0,0.0,0.0,0.0,0.0,0.0,0.0,0.0,0.0,0.0,0.0,0.0,0.0,0.0,0.0,0.0,0.0,0.0,0.0,0.0,0.0,0.0,0.0,0.0,0.0,0.0,0.0,0.0,0.0,0.0,0.0,0.0,0.0,0.0,0.0,0.0,0.0,0.0,0.0,0.0,0.0,0.0,0.0,0.0,0.0,0.0,0.0,0.0,0.0,0.0,0.0,0.0,0.0,0.0,0.0,0.0,0.0,0.0,0.0,0.0,0.0,0.0,0.0,0.0,0.0,0.0,0.0,0.0,0.0,0.0,0.0,0.0,0.0,0.0,0.0,0.0,0.0,0.0,0.0,0.0,0.0,0.0,0.0,0.0,0.716,0.6934,0.6598,0.6151,0.6447,0.6755,0.0,0.0,0.0,0.0,0.0,0.0,0.0,0.0,0.0,0.0,0.0,0.0,0.0,0.0,0.0,0.0,0.0,0.0,0.0,0.0,0.0,0.0,0.0,0.0,0.0,0.0,0.0,0.0,0.0,0.0,0.0,0.0,0.0,0.0,0.0,0.0,0.0,0.0,0.0,0.0,0.0,0.0,0.0,0.0,0.0,0.0,0.0,0.0,0.0,0.0,0.0,0.0,0.0,0.0,0.0,0.0,0.0,0.0,0.0,0.0,0.0,0.0,0.0,0.0,0.0,0.0,0.0,0.0,0.0,0.0,0.0,0.0,0.0,0.0,0.0,0.0,0.0,0.0,0.0,0.0,0.0,0.0,0.0,0.0,0.0,0.0,0.0,0.0,0.0,0.0,0.0,0.0,0.0,0.0,0.0,0.0,0.0,0.0,0.0,0.0,0.0,0.0,0.0,0.0,0.0,0.0,0.0,0.0,0.0,0.8455,0.7898,0.7471,0.7093,0.7415,0.7669,0.7872,0.0,0.0,0.0,0.0,0.0,0.0,0.0,0.0,0.0,0.0,0.0,0.0,0.0,0.0,0.0,0.0,0.0,0.0,0.0,0.0,0.0,0.0,0.0,0.0,0.0,0.0,0.0,0.0,0.0,0.0,0.0,0.0,0.0,0.0,0.0,0.0,0.0,0.0,0.0,0.0,0.0,0.0,0.0,0.0,0.0,0.0,0.0,0.0,0.0,0.0,0.0,0.0,0.0,0.0,0.0,0.0,0.0,0.0,0.0,0.0,0.0,0.0,0.0,0.0,0.0,0.0,0.0,0.0,0.0,0.0,0.0,0.0,0.0,0.0,0.0,0.0,0.0,0.0,0.0,0.0,0.0,0.0,0.0,0.0,0.0,0.0,0.0,0.0,0.0,0.0,0.0,0.0,0.0,0.0,0.0,0.0,0.0,0.0,0.0,0.0,0.0,0.0,0.0,0.0,0.0,0.0,0.0,0.0,1.0236,0.8879,0.8199,0.8212,0.8419,0.8811,0.0,0.0,0.0,0.0,0.0,0.0,0.0,0.0,0.0,0.0,0.0,0.0,0.0,0.0,0.0,0.0,0.0,0.0,0.0,0.0,0.0,0.0,0.0,0.0,0.0,0.0,0.0,0.0,0.0,0.0,0.0,0.0,0.0,0.0,0.0,0.0,0.0,0.0,0.0,0.0,0.0,0.0,0.0,0.0,0.0,0.0,0.0,0.0,0.0,0.0,0.0,0.0,0.0,0.0,0.0,0.0,0.0,0.0,0.0,0.0,0.0,0.0,0.0,0.0,0.0,0.0,0.0,0.0,0.0,0.0,0.0,0.0,0.0,0.0,0.0,0.0,0.0,0.0,0.0,0.0,0.0,0.0,0.0,0.0,0.0,0.0,0.0,0.0,0.0,0.0,0.0,0.0,0.0,0.0,0.0,0.0,0.0,0.0,0.0,0.0,0.0,0.0,0.0,0.0,0.0,0.0,0.0,0.0,0.0,1.1697,1.084,1.0018,0.9395,0.9454,0.969,0.0,0.0,0.0,0.0,0.0,0.0,0.0,0.0,0.0,0.0,0.0,0.0,0.0,0.0,0.0,0.0,0.0,0.0,0.0,0.0,0.0,0.0,0.0,0.0,0.0,0.0,0.0,0.0,0.0,0.0,0.0,0.0,0.0,0.0,0.0,0.0,0.0,0.0,0.0,0.0,0.0,0.0,0.0,0.0,0.0,0.0,0.0,0.0,0.0,0.0,0.0,0.0,0.0,0.0,0.0,0.0,0.0,0.0,0.0,0.0,0.0,0.0,0.0,0.0,0.0,0.0,0.0,0.0,0.0,0.0,0.0,0.0,0.0,0.0,0.0,0.0,0.0,0.0,0.0,0.0,0.0,0.0,0.0,0.0,0.0,0.0,0.0,0.0,0.0,0.0,0.0,0.0,0.0,0.0,0.0,0.0,0.0,0.0,0.0,0.0,0.0,0.0,0.0,0.0,0.0,0.0,0.0,0.0,1.2805,1.2982,1.2327,1.1853,1.1526,1.09,1.0678,0.0,0.0,0.0,0.0,0.0,0.0,0.0,0.0,0.0,0.0,0.0,0.0,0.0,0.0,0.0,0.0,0.0,0.0,0.0,0.0,0.0,0.0,0.0,0.0,0.0,0.0,0.0,0.0,0.0,0.0,0.0,0.0,0.0,0.0,0.0,0.0,0.0,0.0,0.0,0.0,0.0,0.0,0.0,0.0,0.0,0.0,0.0,0.0,0.0,0.0,0.0,0.0,0.0,0.0,0.0,0.0,0.0,0.0,0.0,0.0,0.0,0.0,0.0,0.0,0.0,0.0,0.0,0.0,0.0,0.0,0.0,0.0,0.0,0.0,0.0,0.0,0.0,0.0,0.0,0.0,0.0,0.0,0.0,0.0,0.0,0.0,0.0,0.0,0.0,0.0,0.0,0.0,0.0,0.0,0.0,0.0,0.0,0.0,0.0,0.0,0.0,0.0,0.0,0.0,0.0,0.0,0.0,0.0,1.3987,1.412,1.3562,1.355,1.4054,1.2614,1.1848,0.0,0.0,0.0,0.0,0.0,0.0,0.0,0.0,0.0,0.0,0.0,0.0,0.0,0.0,0.0,0.0,0.0,0.0,0.0,0.0,0.0,0.0,0.0,0.0,0.0,0.0,0.0,0.0,0.0,0.0,0.0,0.0,0.0,0.0,0.0,0.0,0.0,0.0,0.0,0.0,0.0,0.0,0.0,0.0,0.0,0.0,0.0,0.0,0.0,0.0,0.0,0.0,0.0,0.0,0.0,0.0,0.0,0.0,0.0,0.0,0.0,0.0,0.0,0.0,0.0,0.0,0.0,0.0,0.0,0.0,0.0,0.0,0.0,0.0,0.0,0.0,0.0,0.0,0.0,0.0,0.0,0.0,0.0,0.0,0.0,0.0,0.0,0.0,0.0,0.0,0.0,0.0,0.0,0.0,0.0,0.0,0.0,0.0,0.0,0.0,0.0,0.0,0.0,0.0,0.0,0.0,0.0,0.0,1.5186,1.5751,1.4832,1.4814,1.5782,1.3838,1.2824,0.0,0.0,0.0,0.0,0.0,0.0,0.0,0.0,0.0,0.0,0.0,0.0,0.0,0.0,0.0,0.0,0.0,0.0,0.0,0.0,0.0,0.0,0.0,0.0,0.0,0.0,0.0,0.0,0.0,0.0,0.0,0.0,0.0,0.0,0.0,0.0,0.0,0.0,0.0,0.0,0.0,0.0,0.0,0.0,0.0,0.0,0.0,0.0,0.7591,0.0,0.0,0.0,0.0,0.0,0.0,0.0,0.0,0.0,0.0,0.0,0.0,0.0,0.0,0.0,0.0,0.0,0.0,0.0,0.0,0.0,0.0,0.0,0.0,0.0,0.0,0.0,0.0,0.0,0.0,0.0,0.0,0.0,0.0,0.0,0.0,0.0,0.0,0.0,0.0,0.0,0.0,0.0,0.0,0.0,0.0,0.0,0.0,0.0,0.0,0.0,0.0,0.0,0.0,0.0,0.0,0.0,0.0,0.0,1.6547,1.6924,1.6196,1.608,1.6672,1.5252,1.4311,0.0,0.0,0.0,0.0,0.0,0.0,0.0,0.0,0.0,0.0,0.0,0.0,0.0,0.0,0.0,0.0,0.0,0.0,0.0,0.0,0.0,0.0,0.0,0.0,0.0,0.0,0.0,0.0,0.0,0.0,0.0,0.0,0.0,0.0,0.0,0.0,0.0,0.0,0.0,0.0,0.0,0.0,0.0,0.0,0.0,0.0,0.0,0.0,0.0,0.0,0.0,0.0,0.0,0.0,0.0,0.0,0.0,0.0,0.0,0.0,0.0,0.0,0.0,0.0,0.0,0.0,0.0,0.0,0.0,0.0,0.0,0.0,0.0,0.0,0.0,0.0,0.0,0.0,0.0,0.0,0.0,0.0,0.0,0.0,0.0,0.0,0.0,0.0,0.0,0.0,0.0,0.0,0.0,0.0,0.0,0.0,0.0,0.0,0.0,0.0,0.0,0.0,0.0,0.0,0.0,0.0,0.0,1.7835,1.7842,1.7997,1.7534,1.7356,1.7474,1.6675,1.5792,1.4976,0.0,0.0,0.0,0.0,0.0,0.0,0.0,0.0,0.0,0.0,0.0,0.0,0.0,0.0,0.0,0.0,0.0,0.0,0.0,0.0,0.0,0.0,0.0,0.0,0.0,0.0,0.0,0.0,0.0,0.0,0.0,0.0,0.0,0.0,0.0,0.0,0.0,0.0,1.0546,1.0491,0.0,0.0,0.0,0.0,0.0,0.0,0.0,0.0,0.8468,0.0,0.0,0.0,0.0,0.0,0.0,0.0,0.0,0.0,0.0,0.0,0.0,0.0,0.0,0.0,0.0,0.0,0.0,0.0,0.0,0.0,0.0,0.0,0.0,0.0,0.0,0.0,0.0,0.0,0.0,0.0,0.0,0.0,0.0,0.0,0.0,0.0,0.0,0.0,0.0,0.0,0.0,0.0,0.0,0.0,0.0,0.0,0.0,0.0,0.0,0.0,0.0,0.0,0.0,0.0,0.0,1.8879,1.8687,1.8872,1.9351,1.8792,1.8504,1.8458,1.764,1.68,1.598,0.0,0.0,0.0,0.0,0.0,0.0,0.0,0.0,0.0,0.0,0.0,0.0,0.0,0.0,0.0,0.0,0.0,0.0,0.0,0.0,0.0,0.0,0.0,0.0,0.0,0.0,0.0,0.0,0.0,0.0,0.0,0.0,0.0,0.0,0.0,0.0,0.0,0.0,0.0,1.0737,1.0713,0.0,0.0,0.0,0.0,0.0,0.0,0.0,0.0,0.8797,0.0,0.0,0.0,0.0,0.0,0.0,0.0,0.0,0.0,0.0,0.0,0.0,0.0,0.0,0.0,0.0,0.0,0.0,0.0,0.0,0.0,0.0,0.0,0.0,0.0,0.0,0.0,0.0,0.0,0.0,0.0,0.0,0.0,0.0,0.0,0.0,0.0,0.0,0.0,0.0,0.0,0.0,0.0,0.0,0.0,0.0,0.0,0.0,0.0,0.0,0.0,0.0,0.0,0.0,0.0,1.9809,1.9816,2.006,2.0552,2.0041,1.962,1.9355,1.8562,1.7658,0.0,0.0,0.0,0.0,0.0,0.0,0.0,0.0,0.0,0.0,0.0,0.0,0.0,0.0,0.0,0.0,0.0,0.0,0.0,0.0,0.0,0.0,0.0,0.0,0.0,0.0,0.0,0.0,0.0,0.0,0.0,0.0,0.0,0.0,0.0,0.0,0.0,0.0,0.0,0.0,1.0902,1.0996,1.1052,0.0,0.0,0.0,0.0,0.0,0.0,0.9786,0.9632,0.0,0.0,0.0,0.0,0.0,0.0,0.0,0.0,0.0,0.0,0.0,0.0,0.0,0.0,0.0,0.0,0.0,0.0,0.0,0.0,0.0,0.0,0.0,0.0,0.0,0.0,0.0,0.0,0.0,0.0,0.0,0.0,0.0,0.0,0.0,0.0,0.0,0.0,0.0,0.0,0.0,0.0,0.0,0.0,0.0,0.0,0.0,0.0,0.0,0.0,0.0,0.0,0.0,0.0,0.0,2.0643,2.083,2.1138,2.1487,2.115,2.0696,2.0184,1.9445,1.8494,0.0,0.0,0.0,0.0,0.0,0.0,0.0,0.0,0.0,0.0,0.0,0.0,0.0,0.0,0.0,0.0,0.0,0.0,0.0,0.0,0.0,0.0,0.0,0.0,0.0,0.0,0.0,0.0,0.0,0.0,0.0,0.0,0.0,0.0,0.0,0.0,0.0,0.0,0.0,0.0,0.0,1.1279,1.1459,1.1622,0.0,0.0,0.0,0.0,1.0856,1.0643,0.0,0.0,0.0,0.0,0.0,0.0,0.0,0.0,0.0,0.0,0.0,0.0,0.0,0.0,0.0,0.0,0.0,0.0,0.0,0.0,0.0,0.0,0.0,0.0,0.0,0.0,0.0,0.0,0.0,0.0,0.0,0.0,0.0,0.0,0.0,0.0,0.0,0.0,0.0,0.0,0.0,0.0,0.0,0.0,0.0,0.0,0.0,0.0,0.0,0.0,0.0,0.0,0.0,0.0,0.0,0.0,2.1138,2.1545,2.1836,2.2036,2.1978,2.1556,2.0815,2.0315,1.9243,0.0,0.0,0.0,0.0,0.0,0.0,0.0,0.0,0.0,0.0,0.0,0.0,0.0,0.0,0.0,0.0,0.0,0.0,0.0,0.0,0.0,0.0,0.0,0.0,0.0,0.0,0.0,0.0,0.0,0.0,0.0,0.0,0.0,0.0,0.0,0.0,0.0,0.0,0.0,0.0,0.0,1.1654,1.1965,1.2127,1.2212,0.0,0.0,1.2081,1.1856,1.1577,0.0,0.0,0.0,0.0,0.0,0.0,0.0,0.0,0.0,0.0,0.0,0.0,0.0,0.0,0.0,0.0,0.0,0.0,0.0,0.0,0.0,0.0,0.0,0.0,0.0,0.0,0.0,0.0,0.0,0.0,0.0,0.0,0.0,0.0,0.0,0.0,0.0,0.0,0.0,0.0,0.0,0.0,0.0,0.0,0.0,0.0,0.0,0.0,0.0,0.0,0.0,0.0,0.0,0.0,0.0,2.1871,2.1878,2.207,2.2342,2.265,2.2536,2.2162,2.1575,2.1007,1.9951,0.0,0.0,0.0,0.0,0.0,0.0,0.0,0.0,0.0,0.0,0.0,0.0,0.0,0.0,0.0,0.0,0.0,0.0,0.0,0.0,0.0,0.0,0.0,0.0,0.0,0.0,0.0,0.0,0.0,0.0,0.0,0.0,0.0,0.0,0.0,0.0,0.0,0.0,0.0,0.0,0.0,0.0,1.2336,1.2674,0.0,0.0,0.0,1.2636,1.2482,0.0,0.0,0.0,0.0,0.0,0.0,0.0,0.0,0.0,0.0,0.0,0.0,0.0,0.0,0.0,0.0,0.0,0.0,0.0,0.0,0.0,0.0,0.0,0.0,0.0,0.0,0.0,0.0,0.0,0.0,0.0,0.0,0.0,0.0,0.0,0.0,0.0,0.0,0.0,0.0,0.0,0.0,0.0,0.0,0.0,0.0,0.0,0.0,0.0,0.0,0.0,0.0,0.0,0.0,0.0,0.0,0.0,2.2566,2.272,2.2951,2.3297,2.3127,2.2851,2.253,2.1836,0.0,0.0,0.0,0.0,0.0,0.0,0.0,0.0,0.0,0.0,0.0,0.0,0.0,0.0,0.0,0.0,0.0,0.0,0.0,0.0,0.0,0.0,0.0,0.0,0.0,0.0,0.0,1.1022,0.0,0.0,0.0,0.0,0.0,0.0,0.0,0.0,0.0,0.0,0.0,0.0,0.0,0.0,1.2406,1.2744,1.3164,1.3398,0.0,0.0,1.3224,1.3103,1.292,1.2758,0.0,0.0,0.0,0.0,0.0,0.0,0.0,0.0,0.0,0.0,0.0,0.0,0.0,0.0,0.0,0.0,0.0,0.0,0.0,0.0,0.0,0.0,0.0,0.0,0.0,0.0,0.0,0.0,0.0,0.0,0.0,0.0,0.0,0.0,0.0,0.0,0.0,0.0,0.0,0.0,0.0,0.0,0.0,0.0,0.0,0.0,0.0,0.0,0.0,0.0,0.0,0.0,0.0,0.0,2.3124,2.2992,2.3569,2.3897,2.393,2.393,2.3804,2.3607,2.2934,2.1903,0.0,0.0,0.0,0.0,0.0,0.0,0.0,0.0,0.0,0.0,0.0,0.0,0.0,0.0,0.0,0.0,0.0,0.0,0.0,0.0,0.0,0.0,0.0,0.0,0.0,0.0,0.0,0.0,0.0,0.0,0.0,0.0,0.0,0.0,0.0,0.0,0.0,0.0,0.0,0.0,0.0,1.2858,1.3216,1.3549,1.383,0.0,1.395,1.392,1.3911,1.3631,1.342,1.345,0.0,0.0,0.0,0.0,0.0,0.0,0.0,0.0,0.0,0.0,0.0,0.0,0.0,0.0,0.0,0.0,0.0,0.0,0.0,0.0,0.0,0.0,0.0,0.0,0.0,0.0,0.0,0.0,0.0,0.0,0.0,0.0,0.0,0.0,0.0,0.0,0.0,0.0,0.0,0.0,0.0,0.0,0.0,0.0,0.0,0.0,0.0,0.0,0.0,0.0,0.0,0.0,0.0,2.3934,2.374,2.4104,2.4306,2.4306,2.4368,2.4405,2.432,2.355,2.268,0.0,0.0,0.0,0.0,0.0,0.0,0.0,0.0,0.0,0.0,0.0,0.0,0.0,0.0,0.0,0.0,0.0,0.0,0.0,0.0,0.0,0.0,0.0,0.0,0.0,0.0,0.0,0.0,1.3638,1.3851,1.4405,0.0,0.0,0.0,0.0,0.0,0.0,0.0,0.0,0.0,0.0,1.3338,1.358,1.3899,0.0,0.0,1.4109,1.4139,1.401,1.389,1.3791,1.3821,1.358,0.0,0.0,0.0,0.0,0.0,0.0,0.0,0.0,0.0,0.0,0.0,0.0,0.0,0.0,0.0,0.0,0.0,0.0,0.0,0.0,0.0,0.0,0.0,0.0,0.0,0.0,0.0,0.0,0.0,0.0,0.0,0.0,0.0,0.0,0.0,0.0,0.0,0.0,0.0,0.0,0.0,0.0,0.0,0.0,0.0,0.0,0.0,0.0,0.0,0.0,0.0,0.0,2.4658,2.455,2.479,2.4909,2.4921,2.5075,2.5146,2.5134,2.433,2.3525,0.0,0.0,0.0,0.0,0.0,0.0,0.0,0.0,0.0,0.0,0.0,0.0,0.0,0.0,0.0,0.0,0.0,0.0,0.0,0.0,0.0,0.0,0.0,0.0,0.0,0.0,0.0,0.0,1.4941,1.519,1.5528,0.0,0.0,0.0,0.0,0.0,0.0,0.0,0.0,0.0,0.0,1.3872,1.4031,1.4318,1.4476,1.4318,1.4407,1.4476,1.4318,1.4249,1.421,1.4219,0.0,0.0,0.0,0.0,0.0,0.0,0.0,0.0,0.0,0.0,0.0,0.0,0.0,0.0,0.0,0.0,0.0,0.0,0.0,0.0,0.0,0.0,0.0,0.0,0.0,0.0,0.0,0.0,0.0,0.0,2.7197,0.0,0.0,0.0,0.0,0.0,0.0,0.0,0.0,0.0,0.0,0.0,0.0,0.0,0.0,0.0,0.0,0.0,0.0,0.0,0.0,0.0,0.0,2.5312,2.5264,2.5676,2.5875,2.5863,2.606,2.6164,2.6139,2.5379,2.4591,2.3734,0.0,0.0,0.0,0.0,0.0,0.0,0.0,0.0,0.0,0.0,0.0,0.0,0.0,0.0,0.0,0.0,0.0,0.0,0.0,0.0,0.0,0.0,0.0,0.0,0.0,0.0,1.5522,1.5938,1.6276,0.0,0.0,0.0,0.0,0.0,0.0,0.0,0.0,0.0,0.0,1.435,1.4529,1.4647,1.4843,1.497,1.498,1.497,1.497,1.497,1.4804,1.4686,0.0,0.0,0.0,0.0,0.0,0.0,0.0,0.0,0.0,0.0,0.0,0.0,0.0,0.0,0.0,0.0,0.0,0.0,0.0,0.0,0.0,0.0,0.0,0.0,0.0,0.0,0.0,2.7835,2.7835,0.0,0.0,0.0,0.0,0.0,0.0,0.0,0.0,0.0,0.0,0.0,3.0083,2.996,0.0,0.0,0.0,0.0,0.0,0.0,0.0,0.0,0.0,0.0,0.0,0.0,2.622,2.622,2.6496,2.6679,2.6769,2.6952,2.7087,2.704,2.5977,2.4747,2.3368,0.0,0.0,0.0,0.0,0.0,0.0,0.0,0.0,0.0,0.0,0.0,0.0,0.0,0.0,0.0,0.0,0.0,0.0,0.0,0.0,0.0,0.0,0.0,0.0,0.0,1.6919,0.0,0.0,0.0,0.0,0.0,0.0,0.0,0.0,0.0,0.0,0.0,1.4883,1.5001,1.5118,1.5235,1.5294,1.5274,1.5284,0.0,0.0,0.0,0.0,0.0,0.0,0.0,0.0,0.0,0.0,0.0,0.0,0.0,0.0,1.4213,1.3563,1.326,1.3122,1.307,0.0,0.0,0.0,0.0,0.0,0.0,0.0,0.0,0.0,0.0,0.0,0.0,0.0,0.0,2.9233,0.0,2.9319,0.0,0.0,0.0,0.0,0.0,0.0,0.0,0.0,3.0582,3.0642,3.0762,3.0642,3.0507,0.0,3.0221,2.9397,0.0,0.0,0.0,0.0,0.0,0.0,0.0,0.0,2.7154,2.7175,2.733,2.7497,2.7597,2.7789,2.7888,2.7875,2.6604,2.5188,2.3632,2.3505,2.3207,0.0,0.0,0.0,0.0,0.0,0.0,0.0,0.0,0.0,0.0,0.0,0.0,0.0,0.0,0.0,0.0,0.0,0.0,0.0,0.0,0.0,0.0,0.0,1.8306,0.0,0.0,0.0,0.0,0.0,0.0,0.0,0.0,0.0,1.6309,1.591,1.5748,1.5787,1.5902,1.5941,1.5855,0.0,0.0,0.0,0.0,0.0,0.0,0.0,1.57,1.571,1.57,1.57,1.57,1.571,1.57,1.5642,0.0,0.0,1.4617,1.435,1.4222,1.4222,1.4103,1.3992,1.3932,1.3992,1.3948,0.0,0.0,0.0,0.0,0.0,0.0,0.0,0.0,3.1117,3.1132,0.0,3.1058,0.0,0.0,0.0,0.0,0.0,3.1117,0.0,0.0,3.1117,3.1117,3.1146,3.1146,3.1014,3.0821,3.0821,3.0717,3.0523,2.962,0.0,0.0,0.0,0.0,0.0,0.0,2.8026,2.8039,2.8222,2.832,2.8352,2.8554,2.8605,2.8524,2.7228,2.5888,2.4589,2.4263,2.406,2.3829,2.3403,0.0,0.0,0.0,0.0,0.0,0.0,0.0,0.0,0.0,0.0,0.0,0.0,0.0,0.0,0.0,0.0,0.0,0.0,0.0,0.0,1.9671,0.0,0.0,0.0,0.0,0.0,0.0,0.0,0.0,0.0,0.0,1.778,1.695,1.6428,1.669,0.0,0.0,0.0,0.0,1.6324,1.6324,1.6324,1.6314,1.6324,1.6324,1.6324,1.6314,0.0,0.0,1.6335,1.6296,1.6267,1.6132,1.6114,1.596,1.5526,1.5294,1.5206,1.5196,1.504,1.4893,1.4775,1.4715,1.4574,3.5891,0.0,0.0,0.0,0.0,3.3274,3.3348,3.3363,3.3466,3.3221,3.2781,3.2781,0.0,0.0,0.0,0.0,0.0,0.0,3.1452,3.1509,3.1509,3.1611,3.1756,3.1726,3.1567,3.1292,3.1292,3.119,3.094,3.0507,3.0099,2.9701,0.0,0.0,0.0,0.0,2.8917,2.8917,2.898,2.9103,2.9243,2.9275,2.8827,2.7831,2.7336,2.6419,2.5074,2.4935,2.4765,2.4536,2.4392,0.0,0.0,0.0,0.0,0.0,0.0,0.0,0.0,0.0,0.0,0.0,0.0,0.0,0.0,0.0,0.0,0.0,0.0,0.0,2.0677,2.0688,2.0624,0.0,0.0,0.0,0.0,0.0,0.0,0.0,0.0,0.0,1.867,1.8078,1.785,0.0,0.0,1.7712,1.7683,1.7237,1.6976,1.7015,1.6976,0.0,1.6937,1.6937,1.6937,1.6937,1.6881,1.6768,1.6676,1.6637,1.6648,1.6609,1.6609,1.6513,1.6285,1.5951,1.5701,1.5701,1.5643,1.5614,1.5556,1.5488,1.5303,3.7945,3.6383,3.5388,3.4792,3.4589,3.4692,3.4749,3.4765,3.4836,3.4631,3.4241,3.3948,3.3439,3.2729,3.23,0.0,0.0,0.0,3.1739,3.1811,3.1824,3.1896,3.1996,3.2012,3.1896,3.171,3.1695,3.1625,3.1453,3.1336,3.1102,3.0732,0.0,0.0,2.9808,2.9808,2.9808,2.9808,2.9716,2.9747,2.9867,2.982,2.9278,2.8215,2.7845,2.714,2.598,2.5675,2.5411,2.516,2.5076,2.4921,0.0,0.0,0.0,0.0,0.0,0.0,0.0,0.0,0.0,0.0,0.0,2.2353,2.231,0.0,0.0,0.0,2.2051,2.1877,2.1639,2.1608,0.0,0.0,0.0,0.0,0.0,0.0,0.0,1.9849,1.9339,1.9099,1.9275,1.8953,1.8817,1.9113,1.881,1.8554,1.8486,0.0,1.7562,1.7601,1.759,1.7551,1.7496,1.7468,1.744,1.7385,1.7318,1.7245,1.7172,1.7117,1.706,1.7015,1.6948,1.6835,1.6694,1.641,1.6163,1.6116,1.6087,1.6058,1.599,1.5904,1.5738,3.9194,3.8408,3.7128,3.6232,3.5661,3.5645,3.5633,3.5661,3.5661,3.5586,3.5502,3.4829,3.4317,3.3904,3.2823,0.0,3.2262,3.2122,3.2066,3.2053,3.2053,3.2053,3.2053,3.2038,3.201,3.2025,3.2025,3.201,3.2012,3.2012,3.1896,3.171,3.1029,3.0687,3.0657,3.0657,3.0657,3.0672,3.0463,3.0357,3.0372,3.0219,2.9827,2.9242,2.8626,2.7912,2.7129,2.6521,2.6059,2.5757,2.5591,2.5412,2.5286,0.0,0.0,0.0,0.0,0.0,0.0,0.0,0.0,0.0,0.0,0.0,0.0,0.0,0.0,2.3374,2.316,0.0,2.2543,2.2482,0.0,0.0,0.0,2.1658,2.0959,2.0973,2.0611,1.9509,0.0,0.0,1.9594,1.9563,1.9463,1.924,1.9156,1.9071,1.8942,1.8472,1.815,1.8111,1.815,1.8084,1.7991,1.7952,1.7909,1.7794,1.7739,1.77,1.7684,1.759,1.7451,1.7323,1.7145,1.6983,1.6835,1.6722,1.6591,1.6431,1.6413,1.6345,1.6181,1.6114,1.5898,4.0226,3.9462,3.8588,3.8003,3.7677,3.7677,3.7677,3.7677,3.7677,3.7355,3.6823,3.6568,3.5692,3.4417,3.3885,3.3377,3.2881,3.2746,3.2609,3.2456,3.2456,3.2385,3.2315,3.2315,3.2231,3.2135,3.215,3.2094,3.1996,3.2012,3.1981,3.194,3.1754,3.1538,3.1292,3.119,3.1146,3.1131,3.0999,3.0881,3.0895,3.0642,3.0173,2.9522,2.9158,2.8426,2.7298,2.7098,2.6744,2.6207,2.6111,2.6029,2.5879,2.5866,0.0,0.0,0.0,0.0,0.0,0.0,0.0,0.0,0.0,2.4031,2.4102,0.0,2.4179,0.0,2.4076,2.3796,2.3348,2.3318,0.0,0.0,2.2374,2.1989,2.1795,2.0974,2.0292,2.0022,1.9702,1.9472,1.9432,1.9799,2.0028,1.9946,1.9519,1.9252,1.9184,1.8791,1.8479,1.8479,1.8479,1.8452,1.8425,1.8414,1.8371,1.8259,1.8111,1.7975,1.7881,1.7744,1.759,1.7479,1.7412,1.7262,1.7011,1.6927,1.6814,1.6609,1.6488,1.6384,1.6316,1.621,1.6054,4.0757,4.0061,3.9336,3.8931,3.8766,3.8644,3.8572,3.8572,3.8572,3.8344,3.7921,3.7507,3.6599,3.5353,3.5009,3.46,3.4089,3.3638,3.3361,3.3165,3.287,3.2718,3.2621,3.2605,3.2594,3.2511,3.2527,3.2471,3.2388,3.2388,3.2388,3.2404,3.2388,3.2443,3.2532,3.1947,3.1596,3.1611,3.138,3.1278,3.119,3.0955,3.0646,3.028,2.9828,2.9305,2.8565,2.8246,2.79,2.7471,2.7155,2.6957,2.6822,2.6508,2.6353,0.0,0.0,0.0,0.0,0.0,0.0,0.0,0.0,0.0,0.0,0.0,2.5006,2.4894,2.4809,2.4567,2.4031,2.4002,2.3735,2.311,2.2731,2.2277,2.1713,2.0959,2.0389,2.0062,1.975,1.9512,1.9433,1.9705,1.9916,1.9836,1.954,1.9434,1.9602,1.927,1.896,1.8934,1.896,1.8919,1.8813,1.8667,1.8587,1.8491,1.841,1.829,1.8224,1.803,1.7877,1.7783,1.7634,1.744,1.7234,1.7095,1.6955,1.6825,1.6637,1.6477,1.6413,1.6296,1.621,4.1143,4.0459,3.9746,3.9425,3.9315,3.8996,3.8887,3.886,3.886,3.886,3.8783,3.8101,3.7297,3.648,3.6136,3.5815,3.5443,3.4703,3.4239,3.4085,3.3509,3.3181,3.3076,3.3076,3.3045,3.2951,3.2951,3.2951,3.2935,3.2935,3.2951,3.2951,3.3029,3.3373,3.3861,3.2921,3.2368,3.2283,3.1951,3.1764,3.1647,3.1441,3.1323,3.1294,3.0629,3.023,3.0141,2.9624,2.9186,2.8985,2.8355,2.7937,2.78,2.719,2.6814,0.0,2.6814,0.0,0.0,0.0,0.0,0.0,0.0,0.0,0.0,2.5811,2.5729,2.5536,2.5495,2.5231,2.4639,2.4624,2.4224,2.3365,2.315,2.2598,2.1441,2.1076,2.0676,1.9925,1.9837,1.9734,1.9525,1.9565,1.9591,1.9523,1.9483,1.9617,1.9988,1.9677,1.9368,1.942,1.942,1.9263,1.9078,1.8866,1.8721,1.8694,1.864,1.864,1.8614,1.8356,1.8127,1.8057,1.781,1.7579,1.7523,1.7262,1.7067,1.7039,1.6825,1.6609,1.6477,1.6413,1.6335,4.1889,4.116,4.0475,3.9916,3.9458,3.9422,3.9299,3.9218,3.9218,3.9121,3.8952,3.881,3.8269,3.7539,3.7162,3.6691,3.6093,3.5673,3.5418,3.528,3.5153,3.4707,3.4049,3.4017,3.3749,3.3245,3.3214,3.3229,3.3229,3.3229,3.3229,3.3261,3.3749,3.4026,3.4073,0.0,0.0,0.0,3.362,3.3516,3.3456,3.2825,3.248,3.2465,3.1674,0.0,3.0526,3.0376,3.0048,2.948,2.8827,0.0,0.0,0.0,0.0,0.0,0.0,0.0,0.0,0.0,0.0,0.0,2.7089,2.6855,2.6377,2.6351,2.6297,2.6149,2.6042,2.5756,2.5273,2.5231,2.5036,2.4518,2.3922,2.3185,2.2283,2.1588,2.0926,2.022,2.0042,1.9939,1.9888,1.9823,1.9759,1.9708,1.9708,1.9771,1.9884,1.9613,1.942,1.942,1.942,1.9394,1.9342,1.9289,1.9158,1.9117,1.9011,1.8893,1.8786,1.8614,1.8398,1.8193,1.8018,1.7893,1.77,1.7507,1.7357,1.7267,1.7078,1.6853,1.6599,1.6488,1.6384,4.2219,0.0,4.0873,4.0221,0.0,3.959,3.9563,3.9511,3.9494,3.9441,3.9345,3.9282,3.8993,3.8513,3.8264,3.7889,3.7411,3.6891,3.6604,3.6408,3.6048,3.5614,3.5181,3.5084,3.4881,3.4547,3.4547,3.4547,3.4547,3.452,3.4547,3.4563,3.4881,3.5177,3.5502,3.6099,3.5828,3.4546,3.4415,3.4327,3.4312,3.3553,3.3159,3.3099,3.2372,0.0,0.0,0.0,0.0,0.0,0.0,0.0,0.0,0.0,0.0,2.7989,2.7989,2.7965,2.7915,2.7915,2.784,2.7705,2.763,2.7372,2.6881,2.6841,2.6762,2.6566,2.65,2.6245,2.5783,2.5674,2.5398,2.4764,2.4217,2.3581,2.2831,2.2206,2.1576,2.0953,2.0681,2.045,2.0156,2.0042,1.9965,1.9914,1.9914,1.9875,1.9811,1.9708,1.9604,1.9617,1.9551,1.9499,1.9512,1.9447,1.9394,1.9289,1.9196,1.909,1.9011,1.8825,1.8625,1.8476,1.8275,1.8057,1.792,1.7755,1.7573,1.7423,1.7256,1.7078,1.6853,1.6627,1.6477,4.251,4.1694,4.1214,4.0507,3.9729,3.9729,3.9755,3.9781,0.0,0.0,0.0,3.959,3.9484,3.9352,3.9148,3.8914,3.8689,3.8079,3.772,3.7519,3.6886,3.6524,3.6411,3.6211,3.6077,3.5964,3.5964,3.5964,3.5964,3.5964,3.598,3.598,3.6093,3.65,3.7138,3.7588,3.6996,3.5504,3.5239,3.5167,3.5107,3.4275,3.38,3.3844,3.2996,3.2563,3.2578,3.2563,3.2563,3.2532,3.1263,3.0536,3.049,2.9268,2.8517,2.8517,2.8517,2.8453,2.8332,2.8308,2.8201,2.8054,2.7905,2.769,2.7335,2.7258,2.7144,2.691,2.6884,2.6686,2.6286,2.6125,2.5724,2.4924,2.4585,2.4136,2.3379,2.2937,2.2471,2.1852,2.1524,2.1158,2.072,2.0617,2.0438,2.0258,2.0258,2.0105,1.9888,1.9798,1.9773,1.9785,1.9682,1.963,1.963,1.9565,1.946,1.9447,1.9342,1.9275,1.9208,1.9023,1.8878,1.8771,1.8476,1.8259,1.815,1.7947,1.7739,1.7617,1.7479,1.7295,1.7117,1.6892,1.6666,4.3115,4.1849,4.1776,4.103,3.9875,3.9875,3.9952,4.002,3.9807,3.9703,3.9703,3.9677,3.9651,3.9625,3.9362,3.9245,3.9191,3.8789,3.863,3.8586,3.8461,3.8117,3.7588,3.7529,3.7175,3.6604,3.6571,3.6571,3.6571,3.6587,3.6571,3.6669,3.7192,3.7726,3.8125,3.8084,3.7847,3.7485,3.7089,3.6836,3.682,3.5553,3.4968,3.5077,3.3864,3.3187,3.316,3.316,3.316,3.3129,3.1823,3.1099,3.1036,2.9808,2.8982,2.8998,2.8912,2.8826,2.8803,2.8629,2.8429,2.8186,2.8054,2.7905,2.7715,2.7503,2.735,2.731,2.7181,2.7026,2.6753,2.6674,2.6377,2.5821,2.5671,2.5203,2.415,2.3893,2.3528,2.2711,2.2391,2.2203,2.2007,2.1833,2.1478,2.1078,2.0924,2.0718,2.0219,1.9862,1.9798,1.9798,1.9798,1.9773,1.9747,1.9747,1.9682,1.9591,1.9539,1.9447,1.9249,1.9155,1.9049,1.8851,1.8718,1.861,1.841,1.8205,1.8014,1.7854,1.7728,1.7545,1.7323,1.7211,1.7032,4.3574,4.2601,4.2246,4.1536,4.0577,4.018,4.0037,4.0096,3.9986,3.9893,3.991,3.9849,3.9807,3.9781,3.9616,3.9511,3.9494,3.9345,3.9292,3.9292,3.9212,3.9009,3.8728,3.8535,3.8257,3.7945,3.7865,3.7838,3.7838,3.7838,3.7838,3.7838,3.8182,3.8455,3.8595,3.8528,3.8399,3.8274,3.7815,3.7422,3.7025,3.6026,3.5312,3.5045,3.4091,3.3617,3.3633,3.371,3.372,3.3761,3.2768,3.2183,3.2093,3.111,3.0528,3.0458,3.0339,3.0243,3.014,2.9855,2.9623,2.9514,2.9297,2.9017,2.8601,2.8001,2.7539,2.7427,2.735,2.7233,2.7041,2.6963,2.6779,2.642,2.6245,2.5834,2.5203,2.4902,2.4491,2.3649,2.3339,2.3069,2.267,2.2429,2.2214,2.1848,2.1689,2.1451,2.1101,2.0929,2.0543,1.9975,1.9798,1.9798,1.9811,1.9798,1.9773,1.9734,1.9656,1.9539,1.9342,1.9275,1.9117,1.8958,1.8851,1.8771,1.861,1.8433,1.8232,1.803,1.7909,1.7728,1.7573,1.7407,1.7127,4.39,4.3204,4.2554,4.1779,4.0916,4.035,4.0113,4.0113,4.0113,4.0113,4.0087,3.9986,3.9935,3.9952,3.9807,3.9713,3.9729,3.9703,3.9703,3.9703,3.959,3.9537,3.9511,3.9282,3.9158,3.9131,3.9067,3.898,3.898,3.9023,3.8996,3.8996,3.8969,3.8942,3.8914,3.8843,3.8777,3.8639,3.8274,3.7862,3.7271,3.6419,3.5696,3.5176,3.4426,3.4025,3.405,3.4151,3.4201,3.4168,3.3543,3.3121,3.2975,3.2296,3.1838,3.1742,3.1598,3.1412,3.1184,3.0876,3.0654,3.0603,3.0397,3.0052,2.9455,2.8774,2.8092,2.7614,2.7503,2.7427,2.7273,2.7144,2.7015,2.6858,2.6606,2.6297,2.6001,2.5701,2.526,2.4546,2.4313,2.3932,2.3446,2.3177,2.2988,2.2691,2.2356,2.2129,2.2047,2.1897,2.1339,2.0634,2.0227,2.0264,2.0188,2.0225,2.0188,2.0062,1.9946,1.9778,1.9547,1.9316,1.9196,1.9052,1.8919,1.8851,1.8798,1.8637,1.8422,1.822,1.8084,1.7975,1.7783,1.7562,1.7267,4.4102,4.3341,4.2642,4.1484,4.0299,4.0146,4.0113,4.0113,4.0113,4.0113,4.0113,4.0087,4.007,4.0045,3.9935,3.9875,3.9858,3.9755,3.9703,3.972,3.9703,3.9677,3.9703,3.9651,3.9625,3.9625,3.9599,3.9573,3.9573,3.9599,3.9582,3.9599,3.9511,3.9379,3.9245,3.9077,3.8914,3.8777,3.875,3.8634,3.8377,3.7064,3.6401,3.6499,3.5159,3.4448,3.4423,3.4448,3.4472,3.4382,3.3801,3.3368,3.3279,3.2613,3.2176,3.2185,3.1917,3.159,3.1265,3.1052,3.0929,3.0644,3.0655,3.0495,3.0149,3.0036,2.9342,2.8218,2.7811,2.77,2.7442,2.7391,2.7273,2.7055,2.6858,2.6606,2.6338,2.6015,2.5783,2.5605,2.5204,2.5009,2.472,2.4525,2.4181,2.349,2.2984,2.2612,2.242,2.231,2.2229,2.182,2.1564,2.136,2.1282,2.1345,2.1056,2.0691,2.0589,2.0321,1.9863,1.9547,1.9342,1.9182,1.9052,1.8946,1.8851,1.8744,1.8664,1.8449,1.8329,1.8247,1.7952,1.7744,1.7479,4.4644,4.4286,4.3554,4.2311,4.0909,4.0324,4.0113,4.0113,4.0113,4.0113,4.0113,4.0113,4.0113,4.0113,4.0037,4.0011,4.0028,3.9961,3.9935,3.9918,3.9935,3.9918,3.9918,3.9858,3.9824,3.9824,3.9729,3.9703,3.9703,3.9703,3.9703,3.9703,3.9625,3.959,3.9547,3.9451,3.9372,3.9319,3.9345,3.9292,3.9123,3.7929,3.6836,3.6095,3.5547,3.5062,3.4684,3.4691,3.4739,3.4723,3.4459,3.4246,3.4175,3.3864,3.3605,3.3461,3.3177,3.2889,3.2577,3.2424,3.2285,3.2092,3.2002,3.1725,3.1081,3.1023,3.0503,2.9428,2.8799,2.847,2.8312,2.7931,2.7539,2.7386,2.7233,2.7026,2.6765,2.6527,2.634,2.6082,2.5797,2.5564,2.5397,2.5118,2.4699,2.423,2.3783,2.3512,2.3426,2.3295,2.3179,2.3093,2.2892,2.2417,2.1863,2.1549,2.1408,2.1257,2.1182,2.0926,2.0329,1.998,1.9746,1.932,1.9175,1.9071,1.8946,1.8851,1.8744,1.8657,1.846,1.8302,1.8057,1.7909,1.7689,4.5022,4.4868,4.397,4.2757,4.1393,4.0518,4.0163,4.0163,4.0113,4.0113,4.0113,4.0113,4.0113,4.0113,4.0113,4.0113,4.0113,4.0113,4.0113,4.0113,4.0113,4.0113,4.007,4.0011,3.9935,3.9952,3.9858,3.9807,3.9807,3.9807,3.9807,3.9807,3.9781,3.9755,3.9755,3.9729,3.9703,3.9703,3.9703,3.9703,3.9584,3.8811,3.7725,3.6537,3.6117,3.5703,3.5173,3.5086,3.5018,3.5018,3.497,3.4923,3.4811,3.4739,3.457,3.4325,3.4075,3.3848,3.3633,3.3477,3.3346,3.3192,3.3058,3.2705,3.2124,3.1947,3.165,3.096,3.0169,2.9678,2.9219,2.8596,2.8102,2.7996,2.7714,2.7361,2.7155,2.6974,2.6712,2.6472,2.6204,2.5975,2.5757,2.5425,2.5062,2.4738,2.4567,2.445,2.4363,2.4134,2.3985,2.4011,2.3793,2.3266,2.2353,2.2204,2.2005,2.1732,2.1707,2.1503,2.0932,2.0643,2.0441,2.0098,1.9679,1.9495,1.9621,1.9455,1.9241,1.9199,1.9061,1.8841,1.8746,1.8439,1.8202,4.5022,4.48,4.3389,4.2381,4.1527,4.0703,4.0305,4.0288,4.0146,4.0096,4.0096,4.0096,4.0113,4.0113,4.0113,4.0113,4.0113,4.0113,4.0113,4.0113,4.0113,4.0113,4.0113,4.0113,4.0087,4.0087,4.0045,4.0045,4.0087,4.0087,4.007,4.0087,3.9935,3.9901,3.9858,3.9781,3.9703,3.9729,3.9729,3.9729,3.9703,3.9627,3.9174,3.8355,3.7108,3.6355,3.6188,3.5619,3.5285,3.5268,3.5152,3.5105,3.5065,3.4851,3.457,3.4349,3.4176,3.405,3.3873,3.3745,3.3581,3.3361,3.3266,3.3145,3.2783,3.2756,3.2613,3.2454,3.1758,3.1012,3.0155,2.9397,2.895,2.8864,2.8142,2.7705,2.7579,2.7277,2.6951,2.6765,2.6578,2.6312,2.5948,2.5784,2.5453,2.5146,2.4977,2.4863,2.4635,2.4434,2.4305,2.4189,2.4041,2.3763,2.3391,2.3031,2.2808,2.2531,2.2263,2.2096,2.1716,2.1344,2.1138,2.092,2.0604,2.0451,2.0506,2.0433,2.0284,2.0163,2.0001,1.9812,1.9505,1.9262,1.8993,4.5247,4.5135,4.4069,4.3186,4.2406,4.1527,4.0863,4.0453,4.037,4.0313,4.0238,4.0213,4.0188,4.0113,4.0113,4.0113,4.0113,4.0113,4.0113,4.0113,4.0113,4.0113,4.0113,4.0113,4.0113,4.0113,4.0113,4.0113,4.0113,4.0113,4.0113,4.0113,4.0045,4.0054,4.0011,3.9986,3.9961,3.9944,3.9961,3.9944,3.9961,3.9944,3.9826,3.9522,3.7951,3.6889,3.6427,3.57,3.5308,3.5308,3.5268,3.5198,3.5105,3.4851,3.4659,3.457,3.4423,3.425,3.4075,3.3975,3.3848,3.3607,3.3555,3.3466,3.3229,3.315,3.3069,3.2807,3.2613,3.2137,3.1593,3.0547,2.9774,2.9668,2.9011,2.8449,2.8267,2.7808,2.735,2.7155,2.6896,2.6539,2.6231,2.5961,2.5729,2.5467,2.5258,2.5061,2.4892,2.4721,2.4565,2.435,2.4205,2.4057,2.3772,2.3509,2.3272,2.3111,2.2875,2.2535,2.2192,2.1943,2.1737,2.1366,2.1158,2.1022,2.096,2.0815,2.0774,2.0679,2.0551,2.0546,2.021,1.9965,1.9709,4.5502,4.5329,4.4587,4.3915,4.3314,4.2149,4.138,4.0901,4.0637,4.0436,4.0362,4.0362,4.0313,4.0221,4.0221,4.0213,4.0163,4.0121,4.0113,4.0113,4.0113,4.0138,4.0163,4.0163,4.0171,4.0196,4.0171,4.0163,4.0113,4.0113,4.0113,4.0113,4.0113,4.0113,4.0113,4.0113,4.0113,4.0113,4.0113,4.0113,4.0113,4.0113,4.0113,3.9901,3.8722,3.7648,3.6908,3.6185,3.5625,3.544,3.54,3.5291,3.5088,3.4923,3.4804,3.4691,3.4618,3.4472,3.4275,3.4201,3.4075,3.3864,3.3771,3.3642,3.345,3.3424,3.3309,3.3096,3.3032,3.2935,3.2575,3.1705,3.0955,3.06,2.9861,2.9351,2.9213,2.855,2.7935,2.7482,2.713,2.6803,2.6525,2.6326,2.6084,2.5866,2.5591,2.5384,2.5244,2.4991,2.4806,2.4565,2.4379,2.4247,2.4011,2.3806,2.3522,2.3327,2.3199,2.2908,2.2694,2.248,2.2272,2.1861,2.1634,2.1472,2.1338,2.1191,2.1121,2.1079,2.12,2.1278,2.0932,2.0612,2.0381,4.5736,4.5503,4.4826,4.4413,4.4018,4.266,4.1864,4.1624,4.0942,4.062,4.0527,4.0493,4.0468,4.0468,4.0461,4.0412,4.0288,4.0171,4.0138,4.0121,4.0113,4.0188,4.0288,4.0305,4.0362,4.0461,4.0355,4.0238,4.0121,4.0121,4.0121,4.0113,4.0113,4.0113,4.0113,4.0113,4.0113,4.0113,4.0113,4.0113,4.0113,4.0113,4.0113,4.0028,3.9335,3.8642,3.7898,3.7144,3.636,3.5746,3.5537,3.536,3.5175,3.5088,3.4994,3.4763,3.4732,3.4659,3.4497,3.4374,3.4275,3.4101,3.4016,3.3848,3.372,3.3668,3.3565,3.3346,3.3309,3.3203,3.2978,3.2756,3.2326,3.1528,3.0707,3.023,3.0055,2.9479,2.8677,2.794,2.7609,2.7177,2.6943,2.697,2.6827,2.6489,2.6242,2.6049,2.5828,2.5493,2.5158,2.4892,2.4679,2.4421,2.4261,2.4057,2.3747,2.3509,2.3407,2.3199,2.3059,2.2882,2.2767,2.2471,2.237,2.2246,2.1922,2.1813,2.1807,2.1813,2.1926,2.186,2.16,2.1276,2.106,4.5787,4.5701,4.5501,4.5016,4.4421,4.386,4.3059,4.1977,4.1619,4.1184,4.07,4.0631,4.0583,4.051,4.051,4.0485,4.0436,4.0412,4.0337,4.0263,4.0238,4.0313,4.0412,4.0436,4.0461,4.0485,4.0461,4.0379,4.0263,4.0238,4.0188,4.0138,4.0113,4.0113,4.0113,4.0113,4.0113,4.0113,4.0113,4.0113,4.0113,4.0113,4.0113,4.0079,3.9876,3.9394,3.8667,3.7472,3.6711,3.6383,3.5881,3.552,3.54,3.5291,3.5175,3.5011,3.497,3.4875,3.4667,3.4594,3.4497,3.4374,3.425,3.4126,3.3975,3.3899,3.3787,3.3607,3.3581,3.3477,3.3256,3.3176,3.2848,3.2284,3.1585,3.1063,3.0807,3.0175,2.9576,2.9222,2.8951,2.8765,2.8574,2.8383,2.8037,2.7832,2.7665,2.7384,2.6708,2.6385,2.5839,2.5212,2.4917,2.4782,2.4728,2.4632,2.4396,2.4008,2.3752,2.3445,2.33,2.3198,2.3108,2.3017,2.2969,2.28,2.2512,2.2328,2.2278,2.2216,2.2101,2.207,2.2056,2.1856,2.1542,4.5922,4.5871,4.5871,4.5534,4.4946,4.4711,4.3811,4.2587,4.221,4.1626,4.0961,4.0793,4.0721,4.0655,4.0655,4.0607,4.0566,4.0583,4.0527,4.0453,4.0404,4.0436,4.0558,4.0631,4.0607,4.0583,4.06,4.0527,4.0379,4.0362,4.0288,4.0188,4.0163,4.0138,4.0113,4.0113,4.0113,4.0113,4.0113,4.0113,4.0113,4.0113,4.0113,4.0113,4.0096,3.9859,3.9351,3.8234,3.7354,3.6795,3.6045,3.5588,3.5514,3.5423,3.5314,3.5198,3.5111,3.5018,3.4875,3.4739,3.4667,3.457,3.4464,3.4349,3.425,3.4126,3.4,3.3873,3.3797,3.3668,3.3503,3.3398,3.3214,3.2904,3.2315,3.1797,3.1305,3.0788,3.0312,2.9997,2.9731,2.9619,2.9456,2.9277,2.9029,2.8862,2.8694,2.8467,2.7698,2.7385,2.6692,2.614,2.5949,2.5716,2.5373,2.5196,2.5018,2.4592,2.4167,2.3752,2.3403,2.33,2.3241,2.309,2.3,2.2909,2.2665,2.2451,2.2359,2.2309,2.2247,2.2185,2.2111,2.2111,2.1899,4.6122,4.6005,4.6023,4.5905,4.5681,4.5115,4.4341,4.3499,4.269,4.1949,4.1312,4.0993,4.0912,4.0894,4.0864,4.0799,4.0721,4.0721,4.0697,4.0655,4.0583,4.0607,4.0721,4.0817,4.0776,4.0721,4.0721,4.0648,4.051,4.051,4.0436,4.0313,4.033,4.0263,4.0171,4.0121,4.0146,4.0146,4.0163,4.0146,4.0146,4.0163,4.0138,4.0138,4.0121,4.0079,3.9893,3.9182,3.8193,3.6998,3.6214,3.578,3.5621,3.5548,3.5429,3.5314,3.5198,3.5152,3.5065,3.4899,3.4763,3.4732,3.4611,3.4538,3.4472,3.4374,3.425,3.4126,3.4009,3.3889,3.3736,3.3607,3.345,3.3282,3.2799,3.2249,3.162,3.1351,3.1087,3.0559,3.013,2.9931,2.9961,2.9794,2.9614,2.9405,2.9239,2.9055,2.8669,2.8312,2.7936,2.746,2.6901,2.6524,2.6123,2.5945,2.5751,2.5387,2.4905,2.4404,2.3743,2.3534,2.3283,2.315,2.3067,2.2994,2.2848,2.2635,2.2451,2.2359,2.2309,2.2216,2.2197,2.2154,2.2123,4.6172,4.6147,4.6165,4.6073,4.593,4.572,4.5172,4.4331,4.3517,4.2745,4.2043,4.1319,4.1081,4.1047,4.0918,4.0871,4.0847,4.0847,4.084,4.084,4.0817,4.0799,4.084,4.0888,4.0871,4.0823,4.0823,4.0776,4.0648,4.0648,4.0583,4.0436,4.0436,4.0419,4.0395,4.037,4.0395,4.0395,4.0412,4.037,4.037,4.037,4.0337,4.0238,4.0238,4.0188,4.0045,3.9402,3.8599,3.7686,3.6891,3.6485,3.6371,3.5892,3.5577,3.5469,3.54,3.5337,3.5261,3.5105,3.4994,3.4987,3.4804,3.4643,3.4643,3.4521,3.4448,3.4358,3.4275,3.4151,3.4016,3.3873,3.3642,3.3335,3.3027,3.268,3.2331,3.2245,3.2102,3.1729,3.1555,3.1414,3.1261,3.1093,3.0953,3.0768,3.0537,3.0219,2.9652,2.9262,2.8913,2.8077,2.7516,2.7191,2.6909,2.6714,2.6476,2.6161,2.5757,2.5332,2.4554,2.3909,2.3525,2.3138,2.3228,2.3205,2.3001,2.283,2.2635,2.2482,2.2359,2.2309,2.2216,2.2185,2.2185,4.6368,4.6368,4.6368,4.6301,4.6228,4.6179,4.5709,4.4953,4.4349,4.3463,4.2526,4.1928,4.1482,4.1163,4.1059,4.1018,4.1018,4.1018,4.1035,4.1018,4.1018,4.0989,4.0935,4.0894,4.0894,4.0894,4.0912,4.0864,4.0793,4.0793,4.0721,4.0583,4.0583,4.0576,4.0485,4.051,4.051,4.0493,4.051,4.051,4.051,4.051,4.0461,4.0387,4.0387,4.0313,4.0128,3.9714,3.9123,3.8396,3.7669,3.7134,3.6795,3.6366,3.5932,3.561,3.5498,3.5446,3.54,3.5268,3.5198,3.5152,3.4994,3.4899,3.4851,3.4707,3.4594,3.4586,3.4448,3.4349,3.4234,3.4084,3.3822,3.3529,3.3282,3.3027,3.2757,3.2617,3.2523,3.2385,3.2247,3.2178,3.2094,3.1927,3.1769,3.1581,3.1275,3.0923,3.0514,3.0178,2.9798,2.907,2.8543,2.8326,2.8063,2.7865,2.7532,2.7185,2.6591,2.6161,2.5418,2.4587,2.42,2.3876,2.3633,2.3428,2.3367,2.3163,2.2818,2.2665,2.2512,2.2414,2.2345,2.2368,2.2325,4.6613,4.659,4.659,4.6613,4.6566,4.6453,4.6046,4.5476,4.5062,4.4195,4.3133,4.2591,4.2021,4.1354,4.129,4.1186,4.1169,4.1163,4.129,4.1337,4.1406,4.1406,4.149,4.108,4.108,4.1125,4.105,4.1188,4.1336,4.1285,4.1064,4.1003,4.091,4.0741,4.0641,4.0583,4.0541,4.0566,4.0566,4.0566,4.0583,4.0583,4.0558,4.0517,4.0468,4.0419,4.0313,4.0111,3.9782,3.9165,3.8413,3.777,3.7168,3.7015,3.6468,3.5887,3.565,3.5498,3.5492,3.5383,3.5314,3.5291,3.5198,3.5111,3.5081,3.4899,3.4763,3.478,3.4594,3.4521,3.4448,3.4275,3.405,3.3771,3.3633,3.3398,3.3043,3.2773,3.2648,3.2578,3.2358,3.2274,3.215,3.2025,3.1841,3.1798,3.1582,3.129,3.1012,3.0734,3.0499,3.0232,2.9841,2.9572,2.9306,2.9056,2.867,2.8243,2.7528,2.6948,2.6255,2.5606,2.5237,2.4868,2.4375,2.4129,2.4036,2.3704,2.33,2.3189,2.3311,2.2934,2.2547,2.2618,2.2592,4.6613,4.6613,4.6613,4.6613,4.659,4.6566,4.6478,4.6242,4.5629,4.5094,4.4478,4.3342,4.2631,4.2277,4.1661,4.1209,4.1371,4.1406,4.1505,4.2131,4.2149,4.2532,4.2547,4.1816,4.1468,4.1756,4.1799,4.2085,4.2482,4.2465,4.2337,4.1778,4.1667,4.1426,4.0972,4.0913,4.0799,4.0799,4.0817,4.0776,4.0776,4.0776,4.0728,4.0655,4.0558,4.0468,4.0436,4.0337,4.0195,3.9881,3.9265,3.8681,3.8268,3.7438,3.6812,3.6417,3.5904,3.5628,3.5571,3.5498,3.5469,3.5446,3.5337,3.5245,3.5245,3.5128,3.5018,3.497,3.4804,3.4725,3.4726,3.4538,3.4422,3.427,3.4136,3.3925,3.3456,3.315,3.2893,3.2676,3.2551,3.2468,3.237,3.2191,3.2066,3.1968,3.1769,3.1553,3.138,3.119,3.0984,3.0777,3.0447,3.0052,2.9775,2.9477,2.9067,2.8748,2.8163,2.7666,2.7012,2.6433,2.5987,2.5493,2.4995,2.4823,2.4696,2.4487,2.4116,2.4121,2.4025,2.3631,2.3308,2.3145,2.2957,4.6778,4.6778,4.6778,4.6795,4.6778,4.6708,4.6684,4.6613,4.6206,4.5788,4.5293,4.4377,4.3791,4.3289,4.2782,4.2561,4.2474,4.2474,4.2702,4.3069,4.3104,4.3331,4.3517,4.2916,4.2543,4.2819,4.2715,4.296,4.3202,4.3239,4.2913,4.2603,4.2568,4.243,4.193,4.1619,4.144,4.1336,4.1067,4.0894,4.0894,4.0894,4.0888,4.0793,4.0673,4.0583,4.06,4.0461,4.0429,4.026,3.9921,3.9433,3.9012,3.8244,3.755,3.6812,3.6451,3.5943,3.5729,3.5571,3.5543,3.5577,3.5469,3.5406,3.536,3.5268,3.5198,3.5242,3.5381,3.552,3.5696,3.5654,3.5512,3.5335,3.5207,3.5011,3.4695,3.3895,3.3139,3.2881,3.2703,3.2594,3.2468,3.233,3.2219,3.2066,3.187,3.1683,3.1597,3.1424,3.1219,3.0984,3.0717,3.0417,3.0144,2.9744,2.9289,2.894,2.8519,2.8115,2.7688,2.715,2.6661,2.6207,2.578,2.549,2.5322,2.5124,2.4876,2.4636,2.4407,2.4273,2.4094,2.3875,2.3664,4.7048,4.7048,4.7066,4.7048,4.7025,4.6934,4.6888,4.6842,4.6731,4.6329,4.5751,4.5627,4.4898,4.4382,4.4059,4.4048,4.3927,4.3886,4.3851,4.4114,4.4167,4.4343,4.4407,4.4319,4.4154,4.3993,4.3718,4.3714,4.3821,4.3617,4.3706,4.3439,4.3345,4.3172,4.3,4.2568,4.2189,4.212,4.1533,4.1188,4.1084,4.1015,4.0912,4.0864,4.0793,4.0745,4.0721,4.0624,4.0551,4.0534,4.051,4.0029,3.9474,3.8986,3.8572,3.7235,3.7094,3.6738,3.6383,3.6124,3.6107,3.5938,3.5954,3.5942,3.5946,3.5944,3.5907,3.5984,3.6222,3.6651,3.7078,3.6845,3.6743,3.6638,3.6496,3.6403,3.6033,3.4718,3.3995,3.3343,3.3018,3.2757,3.2578,3.2413,3.2287,3.2163,3.1968,3.1813,3.1727,3.1612,3.1424,3.1219,3.0984,3.0687,3.0387,2.9984,2.9516,2.9259,2.888,2.853,2.827,2.782,2.7334,2.7031,2.6662,2.6304,2.5952,2.5764,2.5464,2.5096,2.5011,2.5062,2.4863,2.4612,2.4411,4.7236,4.7236,4.7236,4.7254,4.7254,4.7232,4.7165,4.7151,4.7088,4.6921,4.6529,4.5937,4.559,4.5174,4.4514,4.4301,4.4415,4.4463,4.4698,4.5099,4.5205,4.5382,4.5788,4.5758,4.5834,4.5673,4.5086,4.4784,4.5119,4.526,4.4706,4.436,4.418,4.3922,4.3491,4.3051,4.3007,4.2904,4.2265,4.1885,4.174,4.1309,4.0946,4.0929,4.0864,4.0864,4.084,4.0745,4.0673,4.0673,4.0576,4.04,4.0088,3.9564,3.9025,3.8512,3.7997,3.7591,3.7313,3.7374,3.7459,3.751,3.7374,3.7385,3.7378,3.7306,3.7066,3.7211,3.7246,3.7384,3.7426,3.7528,3.7253,3.711,3.703,3.6829,3.6468,3.5921,3.5246,3.4546,3.377,3.2971,3.287,3.2659,3.2413,3.2302,3.215,3.1968,3.187,3.1771,3.1627,3.1424,3.1248,3.0925,3.0642,3.0166,2.9785,2.968,2.938,2.8944,2.8644,2.8392,2.8032,2.7544,2.7224,2.6894,2.6611,2.6333,2.6148,2.5879,2.5887,2.5895,2.559,2.5265,2.5132,4.7298,4.7298,4.7298,4.7298,4.7298,4.7298,4.7276,4.7232,4.7249,4.716,4.6959,4.6645,4.6354,4.6092,4.582,4.5544,4.5485,4.5498,4.5728,4.6041,4.6094,4.62,4.6596,4.6613,4.6566,4.6365,4.5932,4.566,4.5879,4.5735,4.5475,4.5284,4.5086,4.487,4.4532,4.4193,4.3987,4.3729,4.315,4.2676,4.2558,4.1861,4.1378,4.0998,4.0912,4.0894,4.0871,4.0864,4.0817,4.0793,4.0728,4.0655,4.0504,4.0226,3.9712,3.9185,3.8781,3.8326,3.8007,3.7898,3.7848,3.7865,3.7939,3.7898,3.7882,3.7824,3.8029,3.8241,3.8277,3.8337,3.874,3.8556,3.8496,3.8367,3.8179,3.7936,3.7621,3.7145,3.6502,3.5737,3.4736,3.3975,3.342,3.3115,3.2643,3.2413,3.232,3.2242,3.2148,3.2095,3.2072,3.2077,3.199,3.1825,3.1493,3.1048,3.0566,3.0344,3.0015,2.9596,2.9162,2.8972,2.8442,2.7888,2.7603,2.7631,2.7048,2.6705,2.6697,2.6624,2.6395,2.6189,2.6092,2.5949,2.5797,4.7385,4.7385,4.7385,4.7385,4.7385,4.7385,4.7363,4.7341,4.7341,4.7294,4.7223,4.7165,4.7057,4.6921,4.6858,4.6794,4.6754,4.6689,4.6694,4.6694,4.6712,4.676,4.6737,4.6731,4.6731,4.6708,4.656,4.6447,4.613,4.5955,4.5871,4.5734,4.5803,4.5812,4.5544,4.5074,4.4858,4.4572,4.4044,4.3613,4.3175,4.2504,4.1847,4.1224,4.1052,4.0965,4.0971,4.0989,4.0965,4.0965,4.0942,4.0894,4.0817,4.0769,4.0357,3.9661,3.9486,3.904,3.872,3.8495,3.8631,3.8664,3.8437,3.8379,3.843,3.8633,3.8667,3.9073,3.915,3.9227,3.9615,3.974,3.962,3.9489,3.9299,3.9162,3.8716,3.8264,3.7742,3.6841,3.5726,3.5006,3.4479,3.4112,3.3786,3.3475,3.338,3.3148,3.305,3.2815,3.2791,3.2915,3.2916,3.2834,3.257,3.2217,3.1781,3.1454,3.1001,3.0499,3.0038,2.9619,2.9131,2.8785,2.8639,2.8569,2.7808,2.7113,2.6897,2.676,2.6624,2.6471,2.6336,2.6289,2.6208,4.7657,4.7657,4.7657,4.7657,4.7636,4.7636,4.7593,4.749,4.749,4.7407,4.7298,4.7298,4.7276,4.7209,4.7191,4.7232,4.7209,4.7147,4.7143,4.7125,4.7125,4.7125,4.7169,4.7138,4.7025,4.6957,4.6842,4.6637,4.6398,4.6228,4.6105,4.6023,4.5922,4.5838,4.5887,4.5713,4.5656,4.5499,4.4916,4.4254,4.3586,4.2849,4.2443,4.2026,4.1609,4.1192,4.1152,4.1117,4.114,4.114,4.114,4.1111,4.1053,4.1047,4.0888,4.0594,4.0422,4.0314,4.0019,3.9827,3.9736,3.9695,3.973,3.9808,3.9622,3.9605,3.9673,3.991,3.9901,3.9876,3.9986,3.9935,3.9858,3.9772,3.9616,3.9458,3.9206,3.8918,3.8472,3.815,3.7096,3.6277,3.5598,3.53,3.4961,3.4662,3.4372,3.4135,3.393,3.3691,3.3574,3.3698,3.3862,3.3807,3.3659,3.3316,3.294,3.2566,3.2011,3.1476,3.1025,3.0616,3.0362,3.0072,2.9855,2.9315,2.8496,2.7795,2.7237,2.7109,2.7214,2.6924,2.6521,2.6524,2.676,4.7759,4.7699,4.7699,4.7699,4.7699,4.7699,4.7657,4.7615,4.7615,4.7533,4.7428,4.7407,4.7385,4.7341,4.7298,4.7298,4.7298,4.732,4.732,4.732,4.732,4.732,4.7298,4.7254,4.7209,4.7183,4.707,4.6957,4.6749,4.6542,4.6398,4.6326,4.6277,4.6277,4.6179,4.6154,4.6087,4.5908,4.5521,4.4958,4.4331,4.3826,4.3286,4.2462,4.2085,4.1685,4.1354,4.1209,4.1209,4.1209,4.1209,4.1186,4.1157,4.1152,4.1088,4.1018,4.0913,4.0748,4.0483,4.0461,4.0412,4.0404,4.0288,4.012,4.0138,4.0096,4.0096,4.0096,4.0096,4.0096,4.0096,4.0062,3.9961,3.9901,3.9772,3.9668,3.9511,3.9299,3.8995,3.8777,3.8499,3.761,3.6722,3.6063,3.5675,3.5341,3.4992,3.4696,3.4613,3.4558,3.447,3.4486,3.4663,3.4803,3.4686,3.4493,3.409,3.3667,3.3144,3.2606,3.2098,3.1713,3.1449,3.0965,3.0474,2.9842,2.9106,2.8644,2.8265,2.8096,2.7924,2.7631,2.7376,2.7544,2.766,4.7863,4.7765,4.7738,4.7699,4.7699,4.7699,4.7699,4.7717,4.7678,4.7636,4.7593,4.7572,4.749,4.7425,4.7407,4.7446,4.7425,4.7407,4.7407,4.7407,4.7385,4.7407,4.7425,4.7385,4.7345,4.7345,4.7249,4.7138,4.703,4.6893,4.6737,4.6613,4.6518,4.6542,4.6566,4.6471,4.6357,4.6284,4.6119,4.5712,4.5275,4.4977,4.4235,4.3459,4.2771,4.2282,4.1775,4.1466,4.1431,4.1431,4.1453,4.1453,4.1391,4.1363,4.1295,4.1226,4.1163,4.1007,4.0789,4.0662,4.059,4.051,4.0453,4.0313,4.0238,4.0196,4.0171,4.0188,4.0163,4.0121,4.0096,4.0113,4.0062,3.9986,3.9884,3.9833,3.9729,3.952,3.9362,3.9179,3.8951,3.8794,3.7876,3.6942,3.6377,3.5995,3.5642,3.5319,3.5285,3.5368,3.5324,3.5293,3.5273,3.5416,3.5284,3.5177,3.4938,3.4647,3.412,3.3684,3.3159,3.2743,3.2422,3.183,3.1267,3.102,3.0707,3.0015,2.9297,2.8876,2.8569,2.8497,2.8441,2.8522,2.8377,4.7992,4.7951,4.7783,4.7699,4.7699,4.7699,4.7699,4.772,4.772,4.7699,4.7678,4.7696,4.7657,4.7657,4.7636,4.7636,4.7657,4.7657,4.7657,4.7657,4.7657,4.7657,4.7636,4.7554,4.749,4.745,4.7381,4.7298,4.7258,4.7169,4.6944,4.6661,4.6713,4.6661,4.6637,4.6661,4.659,4.6542,4.6447,4.6447,4.6135,4.58,4.5288,4.4905,4.3885,4.3023,4.2913,4.2321,4.1872,4.1854,4.1819,4.1797,4.1692,4.1609,4.1538,4.1471,4.1386,4.1255,4.1117,4.0948,4.0799,4.068,4.0576,4.0478,4.0412,4.0444,4.0412,4.033,4.0288,4.0238,4.0163,4.0113,4.0113,4.0062,3.9986,3.9935,3.9858,3.9755,3.9599,3.9484,3.9325,3.911,3.8887,3.7919,3.7371,3.7004,3.6645,3.6305,3.6193,3.6214,3.6122,3.6043,3.5917,3.5834,3.5674,3.5462,3.5264,3.5049,3.4677,3.4449,3.4182,3.3797,3.3248,3.3047,3.2576,3.2457,3.2099,3.1106,3.0188,2.9525,2.921,2.9352,2.9162,2.9004,2.8768,4.8052,4.7992,4.7929,4.7888,4.7888,4.7888,4.7888,4.787,4.7888,4.7884,4.7819,4.7738,4.7699,4.7699,4.7699,4.7699,4.7717,4.7798,4.7819,4.7842,4.7863,4.7845,4.7804,4.7759,4.7699,4.7597,4.7472,4.7428,4.7425,4.7367,4.7236,4.7057,4.7035,4.7035,4.7012,4.6893,4.6819,4.6708,4.6661,4.6613,4.656,4.636,4.5953,4.5386,4.5156,4.3988,4.3262,4.2873,4.2465,4.2129,4.2044,4.1987,4.1948,4.1884,4.1819,4.1754,4.167,4.1582,4.1408,4.1226,4.0995,4.084,4.0721,4.06,4.0558,4.051,4.0485,4.0436,4.0429,4.0362,4.0255,4.023,4.0188,4.0096,4.0062,4.0054,3.9977,3.9884,3.9781,3.9668,3.9528,3.9369,3.9164,3.8865,3.8418,3.8023,3.765,3.7298,3.7043,3.6846,3.6662,3.6476,3.6305,3.6148,3.599,3.5799,3.5604,3.5377,3.5162,3.4949,3.4702,3.4419,3.3955,3.3888,3.364,3.3171,3.2573,3.1855,3.1169,3.0618,3.0395,3.0398,3.0064,2.9575,2.9312,4.8169,4.8092,4.8073,4.8052,4.8012,4.7992,4.7992,4.7992,4.7992,4.799,4.7925,4.7824,4.7804,4.7804,4.7785,4.7804,4.7824,4.7886,4.7925,4.7945,4.7949,4.797,4.7927,4.7886,4.7866,4.7765,4.7723,4.7681,4.7681,4.7539,4.7518,4.7518,4.7496,4.7454,4.7254,4.7165,4.703,4.6939,4.6852,4.6806,4.6824,4.6794,4.6669,4.6064,4.5802,4.5036,4.4021,4.349,4.2899,4.2489,4.2219,4.2199,4.216,4.2139,4.2115,4.2094,4.203,4.1927,4.1692,4.1386,4.1134,4.0982,4.0905,4.0769,4.0655,4.0607,4.0631,4.0558,4.0558,4.051,4.0379,4.0379,4.0288,4.0196,4.0188,4.0155,4.0062,3.9986,3.9935,3.9849,3.9694,3.958,3.9325,3.9094,3.8738,3.8375,3.8001,3.7594,3.7268,3.7074,3.6938,3.6739,3.6554,3.6399,3.6289,3.6068,3.5846,3.5589,3.5394,3.5231,3.5001,3.4735,3.4481,3.421,3.3937,3.364,3.3157,3.2567,3.2172,3.1746,3.1439,3.1,3.069,3.021,3.0062,4.8287,4.8305,4.8305,4.817,4.8032,4.8012,4.8012,4.8032,4.8012,4.803,4.801,4.799,4.799,4.797,4.7931,4.7949,4.797,4.7972,4.801,4.801,4.8032,4.803,4.801,4.801,4.799,4.801,4.7931,4.7891,4.7949,4.787,4.7911,4.7911,4.785,4.7728,4.7363,4.7302,4.728,4.728,4.7258,4.7214,4.7209,4.7187,4.708,4.6882,4.6506,4.5749,4.4746,4.4136,4.3473,4.2649,4.2488,4.247,4.249,4.2409,4.2348,4.2305,4.2184,4.2097,4.1966,4.1498,4.1267,4.1146,4.1076,4.0982,4.0894,4.0847,4.0817,4.0704,4.068,4.0631,4.0558,4.0485,4.0412,4.0337,4.0305,4.0255,4.0163,4.0087,4.0011,3.9977,3.9901,3.9772,3.9494,3.9202,3.8876,3.8572,3.8274,3.7915,3.7594,3.7314,3.7134,3.7013,3.68,3.6631,3.6476,3.6305,3.6085,3.5863,3.5638,3.5477,3.5362,3.5133,3.4835,3.4549,3.4244,3.3971,3.3695,3.3368,3.2852,3.2314,3.1767,3.1344,3.1086,3.0798,3.0571,4.8324,4.8324,4.8324,4.8267,4.8209,4.8209,4.8209,4.819,4.8149,4.813,4.811,4.8032,4.7992,4.7992,4.8012,4.8012,4.8012,4.811,4.813,4.813,4.8151,4.8169,4.8149,4.811,4.8072,4.8012,4.7992,4.8012,4.7992,4.8032,4.8012,4.7992,4.8012,4.7931,4.7767,4.7663,4.7554,4.7533,4.7425,4.7298,4.732,4.732,4.7323,4.7306,4.7039,4.6338,4.5222,4.4739,4.3982,4.2938,4.274,4.2631,4.2649,4.2552,4.2532,4.251,4.243,4.2348,4.2202,4.1888,4.1644,4.1488,4.1267,4.1169,4.1029,4.1029,4.0959,4.0864,4.084,4.0769,4.0673,4.0648,4.0576,4.0436,4.0387,4.0313,4.0213,4.0138,4.0062,4.0011,3.9977,3.9849,3.9625,3.9441,3.9164,3.892,3.8611,3.8375,3.8062,3.761,3.7298,3.7224,3.7059,3.6846,3.6662,3.6507,3.6336,3.6085,3.5926,3.5767,3.5621,3.5459,3.5246,3.4949,3.465,3.4346,3.404,3.3695,3.3227,3.2731,3.2228,3.1716,3.1347,3.1099,3.0836,4.8401,4.8401,4.8401,4.8402,4.8401,4.8325,4.8324,4.8287,4.8247,4.8246,4.8226,4.8131,4.8111,4.8111,4.8111,4.8092,4.8111,4.8189,4.8228,4.8246,4.8267,4.8248,4.8228,4.8228,4.819,4.8111,4.8092,4.8111,4.8131,4.8093,4.8093,4.8131,4.8111,4.8111,4.8032,4.7911,4.7788,4.7765,4.7663,4.7582,4.7582,4.7582,4.7578,4.7582,4.7401,4.6964,4.5949,4.5208,4.4612,4.3546,4.2986,4.2804,4.2786,4.2767,4.2747,4.2709,4.2609,4.253,4.2346,4.2202,4.197,4.1801,4.152,4.1272,4.1152,4.1129,4.1076,4.1006,4.0982,4.0888,4.0793,4.0769,4.0697,4.06,4.051,4.0436,4.0288,4.0213,4.0138,4.0087,4.0037,3.991,3.9798,3.9668,3.9458,3.9245,3.8985,3.8771,3.8508,3.8033,3.761,3.7462,3.7329,3.7104,3.6907,3.6693,3.6538,3.6352,3.6179,3.6022,3.5831,3.5653,3.5507,3.5311,3.5016,3.4683,3.4332,3.3957,3.3542,3.3192,3.2852,3.23,3.1716,3.1384,3.1099,4.8569,4.8587,4.8587,4.8569,4.8569,4.842,4.8343,4.8324,4.8324,4.8268,4.8305,4.8287,4.8267,4.8305,4.8287,4.8267,4.8267,4.8267,4.8287,4.8287,4.8287,4.8287,4.8287,4.8305,4.8248,4.8286,4.8267,4.8229,4.8287,4.8248,4.8248,4.8287,4.8305,4.8287,4.8229,4.817,4.8052,4.799,4.7929,4.787,4.785,4.7911,4.7891,4.787,4.78,4.7361,4.6561,4.5853,4.5108,4.4271,4.3597,4.3324,4.316,4.3105,4.3013,4.2881,4.2709,4.2609,4.2526,4.2387,4.2246,4.204,4.1805,4.1503,4.1318,4.1249,4.1175,4.1123,4.1053,4.1006,4.0935,4.0888,4.084,4.0745,4.0697,4.0551,4.0387,4.0288,4.0213,4.0163,4.0113,4.0011,3.996,3.9831,4.0019,3.9854,3.9647,3.9358,3.9049,3.8452,3.8065,3.7772,3.7626,3.7403,3.7164,3.6952,3.6723,3.6554,3.6399,3.6227,3.6022,3.5878,3.5718,3.5524,3.5311,3.5016,3.4582,3.423,3.3922,3.3591,3.3276,3.2674,3.2046,3.168,3.1421,4.8587,4.8587,4.8587,4.8587,4.8569,4.8532,4.8476,4.8438,4.8363,4.8324,4.8324,4.8324,4.8343,4.8324,4.8324,4.8324,4.8324,4.8324,4.8305,4.8324,4.8325,4.8324,4.8324,4.8325,4.8324,4.8306,4.8306,4.8343,4.8306,4.8306,4.8382,4.8438,4.8438,4.8439,4.8439,4.8439,4.8306,4.8189,4.811,4.807,4.8032,4.8032,4.8032,4.8032,4.8032,4.7612,4.6936,4.6078,4.5257,4.4491,4.3652,4.3233,4.3196,4.3178,4.3105,4.3049,4.2899,4.2786,4.2724,4.2588,4.245,4.2308,4.2124,4.187,4.1609,4.1408,4.1318,4.1244,4.1169,4.1099,4.1006,4.0959,4.0912,4.084,4.0769,4.0673,4.0502,4.0404,4.0355,4.0247,4.0197,4.029,4.0205,4.0592,4.0731,4.0551,4.0358,4.0088,3.9572,3.8961,3.8424,3.8107,3.7918,3.7714,3.7447,3.7238,3.6983,3.6739,3.6616,3.6492,3.6365,3.6175,3.5925,3.5821,3.5816,3.5318,3.4683,3.4457,3.4432,3.3965,3.3605,3.2959,3.2422,3.2082,3.1753,4.882,4.8804,4.8785,4.8767,4.8714,4.8696,4.8661,4.8587,4.8495,4.842,4.842,4.842,4.842,4.842,4.842,4.8439,4.8439,4.8458,4.8458,4.8439,4.8402,4.8439,4.8439,4.8402,4.842,4.8402,4.8382,4.842,4.8401,4.842,4.8495,4.8513,4.8532,4.855,4.8569,4.855,4.8513,4.8382,4.8267,4.8189,4.8149,4.8131,4.8131,4.8111,4.8131,4.7782,4.7289,4.6393,4.5498,4.4839,4.4035,4.3322,4.3322,4.3304,4.3214,4.316,4.3068,4.2938,4.2842,4.2785,4.2611,4.2452,4.2389,4.2166,4.1934,4.1719,4.1542,4.1408,4.1307,4.121,4.1117,4.1047,4.0959,4.0894,4.084,4.0769,4.0648,4.0551,4.0446,4.0356,4.0434,4.0561,4.0806,4.1227,4.1468,4.1389,4.1272,4.1126,4.0376,3.9451,3.8823,3.8307,3.8164,3.802,3.7756,3.7506,3.7268,3.7043,3.6877,3.6755,3.6692,3.6764,3.6725,3.6585,3.6405,3.6,3.5657,3.5219,3.5001,3.4548,3.41,3.3585,3.3043,3.2467,3.2155,4.9166,4.9101,4.9101,4.9032,4.8926,4.8839,4.8822,4.8804,4.8678,4.8605,4.8605,4.8569,4.855,4.855,4.855,4.855,4.855,4.855,4.855,4.8587,4.855,4.855,4.855,4.8569,4.8514,4.8532,4.8532,4.8513,4.855,4.8569,4.855,4.8605,4.8605,4.8642,4.866,4.866,4.8642,4.8569,4.8513,4.8438,4.8344,4.8325,4.8325,4.8325,4.8325,4.8215,4.7866,4.7022,4.5938,4.5405,4.458,4.3605,4.348,4.3464,4.334,4.3251,4.3214,4.3105,4.3013,4.2938,4.2824,4.267,4.2512,4.2412,4.2228,4.1956,4.1762,4.1587,4.1488,4.133,4.1238,4.1117,4.1006,4.0959,4.0888,4.084,4.0769,4.0786,4.0895,4.0907,4.1121,4.1264,4.1424,4.1861,4.2291,4.2227,4.2162,4.2026,4.1449,4.0365,3.9571,3.8881,3.844,3.8298,3.8049,3.7786,3.7535,3.7344,3.7258,3.7265,3.7328,3.7462,3.7606,3.7387,3.7116,3.712,3.6852,3.6335,3.5776,3.5283,3.4824,3.4301,3.3738,3.3086,3.2646,4.9197,4.9164,4.9164,4.9164,4.9131,4.9049,4.9015,4.9015,4.8891,4.875,4.8623,4.8587,4.8605,4.8623,4.8623,4.8623,4.8623,4.8641,4.8587,4.8623,4.8623,4.8641,4.8605,4.8641,4.8623,4.8569,4.8569,4.8624,4.8624,4.8623,4.866,4.8732,4.875,4.875,4.8785,4.8803,4.8767,4.8732,4.8697,4.8642,4.8532,4.8532,4.8532,4.8514,4.8514,4.8495,4.7997,4.702,4.6356,4.5876,4.4531,4.3815,4.3582,4.3566,4.348,4.3376,4.3358,4.3251,4.3178,4.3105,4.3031,4.29,4.2749,4.267,4.2492,4.2187,4.1956,4.1801,4.1626,4.1471,4.1335,4.1192,4.107,4.1006,4.0976,4.0912,4.0858,4.1099,4.1329,4.1596,4.1852,4.2036,4.2178,4.2523,4.2936,4.3067,4.2985,4.2824,4.254,4.1749,4.084,4.0043,3.8933,3.8573,3.831,3.811,3.7908,3.7896,3.7861,3.7886,3.7997,3.8334,3.855,3.8116,3.7864,3.7963,3.7798,3.7218,3.665,3.6104,3.5473,3.4918,3.436,3.375,3.3304,4.9371,4.9292,4.9228,4.9197,4.9197,4.9148,4.915,4.9133,4.9081,4.8978,4.8837,4.8785,4.8732,4.8732,4.8732,4.8732,4.8732,4.8713,4.8731,4.875,4.8713,4.875,4.8732,4.8732,4.875,4.8732,4.8713,4.8732,4.8696,4.8732,4.8804,4.8821,4.8839,4.8856,4.889,4.8891,4.8874,4.8857,4.884,4.8804,4.8695,4.866,4.8587,4.8587,4.8605,4.8605,4.8051,4.7128,4.6426,4.578,4.4618,4.3919,4.3703,4.3703,4.3617,4.3532,4.3463,4.3429,4.3322,4.3269,4.3233,4.3087,4.2975,4.2899,4.2767,4.2474,4.229,4.2121,4.1801,4.1626,4.1493,4.1335,4.1192,4.1117,4.1099,4.1103,4.1285,4.1518,4.1841,4.2185,4.2499,4.286,4.3068,4.3453,4.3798,4.3927,4.3844,4.3676,4.3373,4.2937,4.21,4.1221,4.012,3.9093,3.8616,3.8456,3.8325,3.835,3.8559,3.8809,3.9078,3.9363,3.9483,3.914,3.8952,3.8959,3.8691,3.8152,3.7515,3.6941,3.6212,3.5502,3.4947,3.4424,3.3977,4.9585,4.943,4.9324,4.926,4.9262,4.9228,4.923,4.9214,4.9195,4.9179,4.9146,4.8995,4.896,4.8943,4.8925,4.8926,4.8926,4.8891,4.8909,4.8873,4.8873,4.8838,4.8838,4.8873,4.8855,4.8855,4.8855,4.8839,4.8786,4.8839,4.8855,4.889,4.889,4.889,4.889,4.889,4.8891,4.8891,4.8891,4.8873,4.882,4.8732,4.8678,4.8641,4.8642,4.866,4.8179,4.7477,4.6554,4.5628,4.4794,4.4096,4.3802,4.3786,4.3736,4.3651,4.3583,4.3515,4.3446,4.3411,4.334,4.3251,4.3178,4.3068,4.2938,4.2804,4.2627,4.2425,4.2115,4.1837,4.1688,4.1493,4.133,4.1181,4.1197,4.1335,4.1612,4.1997,4.2422,4.28,4.325,4.3644,4.3908,4.4293,4.4401,4.4547,4.4553,4.4468,4.4215,4.3676,4.3015,4.2272,4.1404,4.0381,3.9401,3.8965,3.8951,3.9347,3.9594,3.988,4.0102,4.0263,4.0386,4.0331,4.0171,3.9841,3.9606,3.9204,3.8516,3.7777,3.7029,3.6236,3.5461,3.4951,3.4593,4.9678,4.963,4.96,4.9574,4.9514,4.9399,4.9321,4.9257,4.9228,4.9197,4.923,4.9197,4.9164,4.9129,4.9129,4.9115,4.903,4.9049,4.8979,4.8909,4.8926,4.8909,4.889,4.889,4.889,4.889,4.889,4.8873,4.8856,4.8891,4.889,4.889,4.889,4.889,4.889,4.889,4.889,4.889,4.889,4.889,4.889,4.8838,4.8874,4.8856,4.8856,4.8856,4.8578,4.7929,4.7149,4.6166,4.4981,4.4209,4.3881,4.3883,4.3835,4.3751,4.3666,4.3617,4.3566,4.3497,4.3428,4.3376,4.3323,4.3251,4.316,4.3066,4.295,4.2889,4.2573,4.2203,4.1994,4.1688,4.1471,4.1256,4.1186,4.1559,4.1905,4.2563,4.3159,4.364,4.4158,4.431,4.4349,4.453,4.4513,4.4598,4.4598,4.4525,4.4497,4.4159,4.3822,4.3199,4.25,4.183,4.0929,3.9942,3.9826,4.0242,4.0605,4.0846,4.1007,4.1075,4.1122,4.0867,4.0643,4.0328,4.0109,3.9893,3.9288,3.851,3.7777,3.7018,3.6164,3.5492,3.5118]}]]